GFSSW_sfc_thetae_000.txt.gz
Theta_e
319 320 318 319 319 318 317 317 317 315 315 315 314 314 314 314 313 310 304 310 311 322 317 304 303 303 303 299 298 294 289 288 293 296 299 302 301 301 311 312 311 312 315 324 333
319 320 320 320 319 318 318 318 317 316 315 314 314 313 313 313 308 306 316 323 323 324 303 302 300 303 298 297 297 293 289 291 295 296 303 306 304 306 309 308 308 308 319 329 332
319 319 318 318 319 318 318 317 317 316 315 314 313 313 312 312 305 306 323 324 325 321 305 304 303 302 296 295 294 291 290 293 295 297 298 300 298 304 307 303 308 309 317 323 327
318 317 317 317 318 318 317 316 316 316 314 314 313 312 312 309 295 305 328 326 327 313 305 303 302 298 296 294 296 291 295 295 294 297 296 300 296 305 299 305 313 316 321 320 322
317 315 316 316 316 317 316 316 315 314 314 313 312 312 308 305 305 314 329 328 315 307 304 303 300 300 297 298 295 292 294 296 295 295 294 296 297 301 294 306 311 314 318 318 319
315 314 315 314 315 315 315 316 314 313 312 311 311 311 303 299 308 316 318 312 309 306 304 303 303 303 300 295 295 297 293 292 295 293 293 294 293 293 294 308 308 311 314 314 317
315 314 314 315 315 315 315 315 313 312 311 310 311 309 307 304 310 311 313 308 309 307 304 306 305 301 299 294 297 295 292 293 294 293 293 296 291 290 297 309 307 308 308 308 310
315 313 313 314 314 313 314 313 312 311 310 310 311 308 304 313 313 311 304 304 308 308 306 307 307 303 299 298 295 292 290 287 291 294 293 292 286 292 301 307 305 307 308 307 307
314 313 313 313 313 313 312 311 311 310 309 311 305 304 301 312 307 306 305 304 306 305 305 307 303 298 296 291 288 289 284 286 289 294 293 292 288 295 297 305 301 302 303 305 306
314 313 313 314 314 312 310 310 310 310 309 309 309 300 304 301 307 304 305 305 304 304 303 301 297 293 292 289 284 285 285 285 287 291 294 291 292 297 299 300 300 299 301 302 302
314 314 315 314 314 311 308 306 300 300 304 297 299 300 304 306 305 302 304 304 303 301 295 297 292 288 289 291 291 290 288 286 287 292 294 292 292 294 299 299 298 299 300 300 301
314 314 314 314 313 310 308 304 305 307 301 307 307 306 308 306 299 301 306 299 298 293 295 293 289 293 296 295 294 292 289 288 291 295 294 293 291 293 296 297 298 299 299 300 301
313 313 314 313 312 310 305 306 315 310 299 300 306 304 304 305 298 299 303 300 296 294 293 290 292 297 296 294 294 292 289 289 290 295 294 293 290 292 297 300 301 301 300 301 301
312 313 312 312 307 306 304 310 315 308 290 294 297 301 303 303 298 303 303 301 297 292 294 294 297 295 294 293 293 289 294 293 292 290 286 290 283 289 293 296 298 298 299 300 301
312 312 312 311 305 310 314 320 314 304 278 294 298 306 301 300 298 299 305 301 294 294 295 292 293 294 293 292 295 293 295 293 290 288 287 287 285 286 293 293 296 297 299 299 299
312 312 312 309 306 310 316 308 303 289 280 292 298 296 297 299 298 300 301 304 300 296 296 294 296 295 293 296 295 297 295 293 291 288 281 286 285 284 289 293 295 297 299 300 300
312 312 310 312 312 320 311 301 288 282 295 291 293 296 295 295 297 297 295 294 292 289 289 293 293 295 296 293 295 294 290 283 282 279 280 289 286 287 293 295 298 298 298 299 298
311 311 310 311 313 312 304 293 283 292 291 294 295 295 293 295 295 295 293 291 294 293 289 287 284 292 295 292 290 289 290 283 279 276 281 288 283 288 294 297 299 299 299 298 298
310 308 307 317 313 308 298 282 287 291 294 294 295 292 292 295 295 294 290 290 292 293 290 287 287 293 294 295 294 290 285 290 284 282 280 283 287 291 294 295 297 297 297 296 295
308 308 308 315 310 305 293 289 296 300 298 296 290 293 290 292 292 292 291 295 294 296 295 292 286 291 294 296 295 291 293 284 282 277 275 280 283 284 290 293 295 294 294 294 294
304 298 303 314 303 297 286 291 299 303 301 295 293 292 292 292 292 291 292 295 297 297 296 292 289 288 292 290 288 290 288 287 286 281 276 273 280 289 292 295 293 292 293 293 293
298 292 307 303 293 291 290 298 301 298 300 300 298 295 293 294 293 292 293 295 298 298 291 292 288 282 287 292 294 290 288 286 278 280 278 275 279 290 290 293 293 293 293 293 293
299 304 312 302 285 282 293 299 301 297 297 298 297 298 298 295 291 294 295 298 296 295 293 293 286 281 285 289 291 288 290 288 285 282 281 275 279 291 292 291 292 291 292 292 292
303 296 301 298 294 292 292 294 296 300 299 299 298 299 297 295 296 294 294 297 296 296 299 297 288 285 281 284 286 284 288 288 286 278 280 280 282 288 289 290 291 291 291 291 291
299 296 300 289 292 293 294 296 295 295 299 299 297 297 296 291 291 291 295 294 296 299 296 292 285 285 286 287 287 286 286 288 286 285 282 284 284 287 290 290 291 292 291 291 291
301 296 293 293 298 298 294 296 296 296 297 295 295 297 296 292 294 293 294 291 290 296 292 290 282 283 284 287 286 285 286 286 286 286 286 285 286 291 291 292 291 291 291 290 290
304 304 298 290 291 294 292 298 298 299 298 299 298 296 293 296 297 296 296 295 295 294 288 284 282 280 277 282 281 278 284 286 286 287 287 284 288 291 290 291 291 291 291 290 290

GFSSW_sfc_thetae_003.txt.gz
Theta_e
318 319 320 319 319 319 319 319 317 316 317 316 315 314 314 313 312 310 305 311 313 323 318 307 307 307 308 306 304 300 297 298 299 301 302 309 307 307 315 316 315 315 324 329 336
319 319 319 319 319 319 319 318 317 317 316 315 315 314 313 313 308 305 315 321 323 324 307 306 303 306 304 304 303 300 297 297 301 306 306 308 307 309 313 312 310 317 329 334 334
320 318 319 319 319 319 318 318 317 317 316 314 315 313 312 311 305 308 323 323 324 321 308 308 306 306 302 302 302 299 298 298 299 298 303 306 302 310 312 309 312 316 323 328 329
317 317 318 317 316 318 317 316 317 317 315 315 314 313 312 308 299 310 330 325 326 312 308 306 304 302 301 300 301 297 298 297 298 297 304 304 307 309 310 308 315 324 329 328 327
317 316 316 315 316 316 315 316 316 316 315 313 312 312 308 305 307 318 329 328 320 307 306 305 303 303 301 301 298 297 297 298 296 299 302 300 306 309 301 311 318 326 329 329 330
316 315 315 315 314 315 314 314 315 315 313 312 311 311 304 300 312 321 320 316 312 307 305 305 304 306 303 300 300 299 298 297 297 296 298 299 298 302 302 311 318 323 325 327 327
316 314 314 315 315 314 314 315 315 313 311 310 311 310 304 306 313 317 314 313 310 309 305 306 307 305 303 297 299 298 296 297 298 299 298 300 297 296 301 310 312 319 318 319 320
315 314 314 313 314 313 314 314 313 311 310 310 312 308 303 315 316 313 310 308 310 311 308 309 308 305 301 301 299 296 296 293 297 300 298 298 293 300 303 310 308 310 311 312 311
314 314 312 312 313 313 313 312 311 309 309 312 307 304 304 315 310 311 308 306 305 308 308 307 307 301 300 297 295 295 291 292 295 299 299 299 295 302 304 308 306 307 309 310 311
314 313 313 313 313 312 310 310 309 310 310 310 309 302 306 305 310 306 310 309 307 305 305 305 300 298 297 296 289 291 291 293 294 297 299 299 297 302 304 307 306 307 308 308 309
314 313 313 314 313 310 308 307 303 302 305 303 303 301 304 309 307 306 308 309 308 305 299 300 297 294 296 296 294 294 293 293 294 298 299 296 298 300 303 304 305 306 307 308 308
313 313 314 314 312 310 308 303 305 310 305 307 307 307 308 309 302 304 311 305 303 298 299 298 294 297 299 298 296 295 294 293 296 298 299 299 298 301 302 302 304 306 306 307 308
312 313 314 313 311 307 305 306 315 315 304 302 307 305 306 307 302 303 308 305 300 298 296 296 297 299 299 297 297 295 294 293 294 298 299 299 296 299 303 304 305 305 306 307 309
311 312 312 311 306 307 305 311 312 313 294 296 300 304 305 305 302 306 307 305 300 295 297 298 299 298 297 296 297 294 296 297 295 295 291 295 290 296 300 301 303 304 305 306 306
311 312 311 311 306 308 315 321 313 308 283 297 300 308 305 302 302 304 307 304 298 297 298 296 297 296 296 296 299 296 298 297 294 293 293 293 293 293 299 299 302 303 304 305 305
310 311 311 309 308 310 314 314 307 293 283 295 301 300 300 301 301 302 304 305 303 299 299 297 300 299 298 298 298 299 298 297 295 294 289 291 291 291 296 300 302 303 304 304 305
310 312 310 311 308 316 315 304 292 286 296 293 296 299 298 298 299 299 297 297 296 294 293 296 296 298 300 298 299 298 296 290 288 288 287 291 290 294 298 301 304 303 304 305 306
310 310 310 310 312 310 305 297 287 292 292 297 296 297 296 298 297 296 296 294 297 296 292 291 290 296 299 298 296 295 295 290 282 284 287 291 289 294 297 301 305 306 306 305 305
310 308 308 310 313 310 301 287 288 291 295 295 297 294 296 297 297 296 294 294 296 297 294 292 291 297 298 299 299 293 292 295 288 285 286 289 292 297 297 298 302 302 303 303 304
307 305 308 317 314 306 296 290 295 299 299 297 292 295 293 295 295 295 295 298 297 299 299 296 290 295 297 299 298 297 296 290 289 283 281 286 287 291 294 296 300 300 302 303 302
308 304 307 314 307 301 291 291 299 303 301 297 295 295 295 295 295 295 295 298 300 299 299 295 295 293 296 294 294 294 291 290 290 287 283 281 287 295 296 299 299 302 301 301 301
302 296 309 305 296 293 292 297 301 302 302 302 299 298 296 297 296 295 295 298 301 302 297 296 294 290 291 296 298 296 292 291 287 283 283 284 287 293 295 296 300 299 298 300 300
298 306 314 305 289 288 295 300 302 300 299 301 300 301 302 298 294 297 298 301 300 299 297 297 292 288 290 293 295 294 293 290 289 288 284 287 287 294 294 294 297 298 297 297 297
304 299 304 298 296 294 294 296 297 301 301 301 300 302 300 298 299 296 297 300 300 300 299 299 291 290 287 289 291 290 292 291 291 287 285 288 290 292 294 294 294 295 296 297 296
301 298 303 293 292 294 295 296 296 297 302 302 300 300 298 294 295 295 298 297 299 300 298 296 291 290 289 290 290 290 290 290 289 290 289 289 288 292 295 296 295 296 295 295 295
299 298 296 296 297 294 293 297 297 298 300 299 299 300 301 296 297 295 297 295 295 298 295 293 288 288 288 289 289 289 290 290 290 290 289 289 290 296 296 296 295 295 295 294 294
305 303 301 290 295 294 293 296 298 301 301 301 301 299 297 300 300 298 298 297 298 297 291 290 287 286 283 285 285 284 288 290 290 291 293 289 295 295 294 294 295 295 295 295 296

GFSSW_sfc_thetae_006.txt.gz
Theta_e
320 320 320 320 320 319 319 319 319 318 318 317 317 315 315 314 313 314 309 314 316 325 320 316 315 314 313 309 311 309 301 300 304 306 310 317 312 317 317 317 321 321 325 333 339
319 320 320 320 319 319 319 318 318 318 318 317 316 315 314 313 312 310 319 322 324 325 313 310 308 310 308 308 309 306 302 303 310 312 310 311 311 314 316 317 317 322 331 337 336
319 319 319 319 319 318 318 317 317 318 317 316 315 315 314 313 310 313 325 323 324 324 314 313 311 310 305 308 307 306 302 305 305 311 313 310 311 316 315 314 317 321 328 332 332
319 319 318 318 317 317 317 316 317 317 317 315 314 314 313 312 301 316 331 325 325 320 313 311 310 306 303 303 308 303 305 304 301 302 308 309 313 313 314 313 319 329 331 333 331
318 317 317 316 316 316 315 315 316 316 315 314 313 313 312 310 309 323 328 326 320 314 311 310 307 306 302 305 305 303 304 302 302 305 311 312 313 313 310 319 327 330 331 331 329
317 316 316 316 315 315 315 315 315 315 313 312 312 312 310 304 317 323 325 318 316 313 312 312 308 309 306 306 305 304 302 301 302 306 305 310 308 310 307 319 324 327 326 329 329
316 316 316 315 315 315 315 314 315 313 311 311 311 311 308 309 318 324 320 317 317 314 312 314 312 308 308 303 305 304 300 302 303 305 303 306 302 303 310 316 322 323 325 327 328
316 316 315 314 313 314 313 314 312 311 310 310 312 310 308 319 321 318 318 315 317 317 314 313 314 310 306 306 303 301 301 297 302 303 303 303 297 305 312 315 319 322 324 325 325
315 315 314 313 312 313 313 312 311 310 310 311 310 309 308 318 313 315 316 309 312 314 313 310 311 307 304 302 299 300 294 296 298 305 303 303 299 306 313 314 315 318 320 319 319
315 314 313 312 312 312 310 311 310 310 311 312 312 306 313 309 314 311 314 312 310 309 307 307 306 303 303 300 293 295 295 297 297 303 303 302 303 306 311 314 313 316 317 318 318
315 314 313 313 313 310 310 311 309 307 308 308 307 308 308 313 314 310 312 312 311 307 303 305 300 298 301 301 301 300 298 297 300 304 304 303 303 305 310 313 314 315 315 316 317
314 314 313 314 312 310 311 310 313 316 307 312 311 310 312 312 306 309 315 307 306 301 305 301 298 301 303 302 301 300 298 298 300 303 304 304 303 306 307 309 313 314 316 316 317
314 313 313 313 311 309 309 311 322 321 310 307 312 308 309 311 305 306 311 308 304 300 302 300 301 304 303 302 300 301 299 299 298 302 304 304 301 304 307 309 310 313 315 317 318
313 312 312 310 307 313 309 315 318 320 301 300 304 308 309 309 304 310 312 309 304 301 303 302 303 302 302 300 301 298 301 301 300 299 295 302 294 302 306 307 309 311 314 316 319
312 311 311 310 316 311 320 327 326 317 288 302 304 312 309 305 307 307 311 309 302 302 303 299 301 301 301 300 302 300 304 302 301 300 299 299 296 301 306 304 307 311 314 316 319
311 311 311 310 312 318 323 324 319 301 287 298 304 303 304 305 305 308 308 310 308 304 305 302 305 304 303 303 303 304 303 302 302 300 293 297 296 297 302 305 308 310 311 313 314
311 311 311 316 314 322 327 318 299 292 299 297 299 303 303 301 303 304 304 303 301 297 298 301 301 304 305 302 304 304 301 293 290 291 290 297 295 298 304 307 310 310 310 312 312
310 310 312 315 321 321 317 304 291 295 297 301 301 302 300 302 301 302 302 300 303 302 299 295 293 300 303 302 300 302 300 293 284 288 291 296 292 299 304 308 312 312 311 311 310
309 310 309 316 318 317 311 300 295 298 301 299 300 298 299 301 301 301 301 301 301 303 297 296 294 302 302 303 303 298 297 301 294 293 292 295 298 303 303 304 309 309 309 309 310
310 307 314 323 324 317 308 297 299 303 303 302 296 299 296 299 298 300 300 302 301 303 305 301 294 299 300 303 303 301 302 295 297 287 285 292 294 296 300 302 306 307 308 309 310
314 309 320 327 322 310 302 300 302 308 307 301 299 298 299 299 300 298 299 302 304 302 305 302 300 297 300 299 299 298 297 296 297 294 288 286 291 302 302 305 305 307 309 310 310
314 304 320 321 308 306 302 302 303 306 306 305 304 302 301 302 300 300 299 302 306 305 301 302 301 296 297 300 302 301 298 297 292 289 292 292 291 301 303 305 307 308 309 311 311
308 312 318 313 301 304 302 303 306 304 304 305 303 305 305 303 299 302 302 303 304 305 303 303 299 293 294 298 300 298 299 297 296 296 290 291 291 300 302 302 305 307 309 309 309
311 306 312 309 308 304 301 301 300 306 305 306 305 307 305 302 304 301 302 302 304 304 299 302 300 297 293 294 298 295 297 298 297 292 291 293 294 298 301 302 304 305 308 307 307
312 307 310 303 302 304 304 302 299 301 306 307 304 305 304 301 301 301 303 301 303 301 304 304 297 296 295 295 295 295 296 296 295 296 292 294 294 297 300 303 305 305 306 305 304
309 308 309 306 304 302 299 300 299 303 305 303 304 305 306 303 303 301 303 302 302 304 303 300 297 295 293 294 294 293 296 297 297 297 296 296 296 303 304 304 304 303 303 302 302
316 313 311 298 303 301 300 301 301 307 306 306 307 307 304 305 308 308 306 306 305 304 301 299 296 293 290 291 292 290 294 296 297 299 298 294 299 302 301 302 303 303 303 302 303

GFSSW_sfc_thetae_009.txt.gz
Theta_e
319 319 319 320 320 320 320 319 319 319 319 319 318 317 316 316 313 315 312 317 318 325 320 317 314 314 314 311 311 311 303 300 303 305 309 318 315 316 318 313 316 323 325 330 336
320 320 320 321 320 319 319 318 318 318 319 318 317 316 316 314 312 312 321 327 324 325 315 312 310 311 308 309 308 305 301 303 309 313 312 313 314 314 314 314 316 322 330 336 336
319 319 320 319 319 318 318 317 317 318 318 318 316 316 315 314 312 315 328 325 324 325 316 314 313 310 307 308 307 305 302 309 310 314 313 311 311 316 312 313 318 323 327 329 332
318 319 319 319 318 318 317 316 316 318 318 316 315 314 314 315 304 320 330 325 325 321 316 312 310 307 306 304 307 304 307 308 307 311 309 309 311 313 309 310 317 325 329 329 330
318 318 318 318 317 317 316 315 316 317 316 315 314 313 314 312 313 327 327 326 319 317 313 310 308 308 303 305 306 305 306 306 305 306 310 312 310 310 313 319 324 328 329 327 329
318 317 317 317 316 316 316 315 315 316 314 313 312 312 314 306 319 326 322 318 317 316 312 313 310 310 306 306 306 307 307 303 307 308 312 311 310 309 315 321 323 325 324 324 324
318 316 316 316 316 315 315 315 315 314 312 311 311 313 311 311 320 326 321 316 317 316 311 314 314 309 310 306 309 305 301 301 307 308 309 309 304 306 317 320 319 320 320 321 321
318 316 315 315 314 314 315 314 313 311 311 310 312 315 310 321 323 319 323 319 320 319 316 316 317 312 309 309 305 302 303 300 306 307 306 305 299 308 316 317 316 318 320 321 322
317 316 315 314 313 313 313 312 311 310 309 311 313 314 310 318 314 318 320 313 315 317 317 314 313 309 308 302 300 301 295 298 301 306 303 303 301 308 314 316 316 319 320 321 322
317 315 315 313 313 313 312 310 310 310 312 315 316 311 314 309 316 315 318 315 313 313 309 309 308 304 304 300 292 296 297 298 298 302 303 302 303 308 312 314 316 318 320 320 321
316 315 314 313 313 311 310 314 311 311 312 311 311 310 310 315 317 314 315 313 313 311 303 306 302 299 301 302 302 301 298 297 301 303 302 302 303 306 311 312 313 315 318 319 320
316 315 314 314 314 311 313 312 317 320 311 312 312 312 314 315 308 311 316 308 308 302 305 303 299 303 305 304 301 300 298 299 302 304 305 303 304 307 310 311 314 314 315 317 320
314 315 314 313 311 310 313 314 325 324 313 310 312 311 311 313 307 308 312 309 305 302 302 301 302 305 303 301 300 300 298 299 299 304 306 304 303 305 309 312 314 316 317 318 320
314 313 312 311 308 317 313 318 319 321 305 303 306 310 311 312 305 312 313 310 306 301 304 302 306 304 302 300 302 297 304 303 300 300 295 304 292 302 307 308 310 313 316 318 320
313 312 311 311 320 313 324 329 326 324 290 304 306 315 312 307 308 308 314 309 304 303 304 301 303 302 301 302 304 301 306 304 303 301 300 300 296 296 307 305 308 312 314 318 321
313 312 311 311 315 321 326 330 326 303 290 300 306 305 305 306 306 309 308 311 310 304 305 303 308 306 305 305 305 307 304 303 303 300 293 298 297 297 303 306 309 313 315 319 322
312 312 312 317 316 325 329 324 302 293 302 298 300 304 303 302 303 305 303 302 299 295 298 302 303 306 307 303 306 305 301 293 291 292 291 299 297 299 304 309 311 312 315 318 320
311 311 312 318 323 327 326 312 294 298 299 303 302 303 300 302 303 303 301 299 303 303 298 296 295 303 306 304 301 302 300 293 286 288 291 299 293 299 307 309 312 315 315 317 316
310 311 311 316 321 323 316 300 298 298 303 300 301 298 299 301 301 303 302 301 303 304 297 296 295 305 305 306 305 301 298 303 296 297 293 295 299 304 306 307 310 313 314 314 313
313 309 313 321 322 318 309 299 302 304 304 303 297 300 297 299 299 301 301 304 303 306 308 302 295 302 303 306 306 303 305 295 296 287 286 293 294 295 303 304 308 311 312 312 313
315 308 319 324 321 311 302 303 304 308 307 302 300 299 300 299 300 300 301 305 307 306 307 304 300 299 302 300 299 300 298 299 299 298 290 287 293 303 301 305 307 311 312 313 312
313 304 324 327 307 309 305 306 304 307 310 306 306 303 301 302 300 300 299 302 309 308 301 304 302 298 299 304 305 304 301 301 294 292 295 294 292 304 305 307 308 310 312 314 313
309 311 323 322 302 308 307 305 306 306 306 306 303 305 305 302 298 301 302 308 309 308 304 306 300 294 296 300 303 299 301 301 299 298 292 291 293 304 305 305 308 309 311 312 313
311 305 311 311 313 307 304 303 302 309 307 308 305 307 306 303 306 302 303 306 308 308 301 304 301 298 294 297 301 298 299 300 299 294 294 294 296 300 302 303 305 308 311 312 313
312 307 311 304 308 308 307 304 301 302 308 310 306 305 304 300 303 303 306 304 306 302 305 306 299 300 301 300 299 298 298 299 297 297 295 296 295 299 301 303 305 307 308 310 311
308 308 312 310 310 307 302 302 302 304 306 305 304 305 306 303 304 301 306 306 304 307 306 307 300 300 297 300 299 296 299 298 299 299 298 298 297 303 305 306 305 306 307 307 309
317 318 314 306 309 305 304 303 303 307 309 309 307 307 305 308 312 312 312 311 310 307 306 304 301 296 292 296 296 291 297 298 299 300 299 296 300 305 303 303 304 305 307 307 308

GFSSW_sfc_thetae_012.txt.gz
Theta_e
320 321 320 318 320 318 320 319 319 319 319 320 319 318 317 317 315 313 309 315 318 325 321 315 312 312 313 309 310 308 298 297 300 302 308 312 309 316 319 315 318 319 314 320 335
320 319 320 318 319 319 318 318 318 318 318 319 318 317 317 316 311 310 319 328 327 326 313 311 308 309 307 307 307 303 299 300 311 313 311 311 309 311 313 312 317 320 319 322 333
320 319 320 320 317 318 318 317 317 317 318 318 317 316 316 314 312 316 329 326 326 323 313 314 312 309 304 306 306 304 299 305 309 311 312 310 311 315 313 309 313 315 323 330 330
320 319 319 319 317 317 317 316 316 317 318 318 316 315 315 313 303 319 330 327 326 318 313 312 309 305 303 302 307 301 304 306 310 311 310 310 314 308 309 310 314 319 325 328 328
319 319 318 318 318 317 316 316 315 316 317 316 315 314 313 312 313 325 329 325 316 317 313 310 306 305 302 305 305 302 305 307 308 308 310 312 310 308 309 314 318 319 325 326 327
319 318 317 318 318 317 315 315 315 316 316 314 313 312 311 305 320 326 321 317 314 313 312 311 308 310 306 305 303 305 306 304 306 308 312 308 308 311 313 318 320 321 321 324 325
319 318 317 317 317 316 315 315 315 316 315 313 312 312 310 309 321 325 319 315 316 314 311 312 313 309 309 306 309 307 302 302 306 307 308 311 305 307 316 319 318 317 319 320 322
319 318 316 316 315 314 314 315 315 314 313 311 311 313 308 321 322 319 322 318 318 318 315 316 316 312 309 310 306 302 302 295 305 307 308 306 298 308 316 315 315 315 316 317 318
318 317 316 315 314 313 314 314 313 312 312 311 312 313 309 319 315 318 319 315 316 317 317 316 313 309 308 302 298 300 295 298 300 307 304 301 300 307 315 315 313 315 316 317 317
318 317 316 315 313 313 313 312 313 310 311 315 315 309 316 310 314 316 318 316 313 313 310 309 307 304 303 300 291 294 294 298 298 302 301 300 301 306 311 311 309 315 316 317 317
318 317 315 314 313 313 310 312 309 308 312 308 310 308 310 314 317 314 315 312 313 310 303 307 301 298 301 303 302 300 298 297 300 302 300 301 301 304 308 313 313 314 316 317 319
317 316 315 314 314 312 313 311 317 320 311 312 308 313 314 315 308 311 315 308 308 302 305 302 298 303 304 303 302 300 298 297 300 302 301 300 300 304 307 309 312 313 315 317 318
316 315 315 313 313 311 312 313 321 319 311 312 308 308 311 313 307 307 312 309 305 302 302 299 301 305 303 301 300 299 298 298 298 300 302 302 299 302 306 309 311 313 315 317 318
315 314 313 312 308 316 313 318 318 320 303 304 306 309 312 312 306 312 313 309 305 301 303 301 306 303 301 299 300 296 304 301 300 298 292 302 291 299 304 305 309 312 313 315 317
314 313 311 311 318 313 324 325 327 324 290 305 306 315 312 306 307 307 313 309 303 302 304 300 302 301 300 301 304 299 304 302 301 299 299 298 294 298 302 303 306 311 314 316 319
313 313 311 311 314 318 323 328 327 303 289 300 306 304 304 305 305 308 307 310 309 304 305 302 307 305 304 305 305 306 302 302 301 299 292 296 295 294 299 302 306 309 313 316 318
312 312 312 317 314 324 324 323 302 291 303 299 300 303 302 301 302 304 303 300 299 296 297 300 301 306 307 301 304 303 299 291 289 289 290 298 295 298 303 307 307 308 312 316 319
312 311 312 316 321 324 323 310 293 297 298 303 302 302 299 302 302 302 300 297 302 300 297 295 293 301 305 302 299 300 297 292 283 284 289 298 292 297 307 310 310 313 315 318 319
311 312 311 315 319 322 313 298 297 299 302 301 301 298 298 301 301 301 300 298 301 302 296 295 294 304 305 305 304 298 296 302 295 296 292 294 297 301 306 306 308 313 314 315 317
311 308 309 318 320 315 307 299 302 306 304 303 296 299 296 299 298 299 299 303 301 304 307 300 292 302 304 305 305 302 303 295 297 287 285 290 293 295 301 303 306 310 312 314 315
313 304 317 322 320 309 300 302 305 308 306 302 299 298 299 299 299 299 299 303 306 305 306 303 300 299 302 299 297 299 297 298 297 297 291 288 291 301 301 304 306 309 313 313 314
311 299 320 322 302 302 302 305 305 306 308 306 305 302 300 302 299 299 299 303 308 306 301 304 301 298 298 304 305 303 301 299 295 292 297 294 292 304 305 305 308 309 312 314 314
305 308 321 320 296 301 305 305 306 305 305 305 303 305 305 302 298 300 301 309 310 306 302 304 299 294 295 300 303 299 300 301 301 300 294 291 293 304 304 304 306 308 310 313 314
307 300 309 313 308 304 303 302 302 308 306 307 304 306 303 301 304 300 301 306 309 308 303 308 301 297 293 295 300 298 298 299 298 295 294 293 294 299 302 303 305 307 308 310 312
310 305 309 298 304 306 308 305 301 301 307 308 304 303 303 299 301 300 304 306 307 302 305 306 297 299 299 300 300 299 298 298 296 297 292 296 295 299 301 303 305 307 308 307 308
306 306 311 307 307 306 305 304 302 302 304 303 303 304 305 302 302 300 303 306 303 306 305 307 300 301 299 300 300 297 299 299 298 298 298 297 297 303 305 305 304 304 305 306 306
312 315 311 305 306 305 306 305 304 306 307 308 306 305 304 308 311 312 313 312 310 307 305 305 303 298 293 296 296 290 297 298 299 300 299 294 300 304 303 303 304 305 306 306 307

GFSSW_sfc_thetae_015.txt.gz
Theta_e
321 320 321 320 318 317 317 317 317 318 318 319 319 319 318 317 315 310 305 311 313 321 323 310 308 308 307 303 303 301 290 288 298 302 303 311 308 311 317 315 316 317 314 326 325
321 321 320 320 318 317 316 316 316 317 317 318 318 318 317 316 308 306 315 324 325 326 310 307 305 304 299 300 300 296 290 292 307 310 308 310 309 310 311 311 313 313 321 328 328
322 321 320 320 319 316 316 315 315 317 317 317 318 317 316 313 306 313 329 325 327 322 310 309 308 304 299 300 299 296 293 301 306 307 310 308 310 314 309 307 313 311 315 324 327
321 320 320 319 319 317 315 314 314 315 317 317 317 317 315 309 300 313 329 327 328 315 311 307 305 300 298 296 300 295 300 301 307 308 309 308 311 311 307 309 317 318 322 321 324
320 319 319 319 319 317 315 314 314 315 316 317 316 314 309 307 310 324 327 327 315 312 308 307 306 302 297 299 300 299 300 303 309 309 309 312 308 306 307 311 316 320 324 323 324
319 318 318 318 318 317 316 315 314 315 316 316 315 314 305 303 320 323 317 313 310 310 309 309 305 305 302 301 298 302 301 299 301 306 308 306 306 309 306 312 313 318 319 324 323
319 318 318 317 317 316 315 315 314 315 315 315 313 309 306 305 315 315 316 310 309 309 306 310 308 306 304 302 307 303 297 298 302 305 305 307 302 304 310 313 312 313 319 322 320
319 318 317 316 315 315 314 314 314 315 314 314 312 307 303 319 314 314 313 310 311 312 311 312 311 307 304 305 303 298 298 291 301 304 307 304 295 308 313 314 310 311 313 317 316
319 318 317 315 314 314 313 314 314 314 314 313 305 305 306 320 313 315 314 314 313 313 312 314 308 303 304 297 294 296 290 296 298 304 301 299 296 308 311 311 308 309 310 311 312
318 317 316 315 314 313 312 313 313 311 311 311 310 302 310 309 314 314 313 313 310 310 308 306 300 297 297 294 289 290 293 293 295 298 299 293 295 306 308 308 309 309 309 310 310
318 317 316 314 314 312 310 307 303 304 305 304 305 306 309 313 314 310 312 310 309 306 297 301 294 292 296 298 299 298 295 295 296 300 295 295 296 301 304 306 307 309 314 312 310
317 317 316 314 313 313 307 304 309 310 303 311 308 308 311 313 306 309 311 304 304 299 301 298 293 300 303 302 299 298 295 294 297 297 294 294 295 299 304 305 306 310 312 314 311
316 316 315 313 312 310 306 308 313 312 303 310 313 308 307 311 306 305 307 304 301 300 300 296 299 305 303 300 297 297 297 294 294 295 295 296 295 299 303 306 309 311 311 314 313
315 314 313 311 307 309 307 313 313 311 296 303 306 305 307 309 304 310 309 305 302 299 301 299 303 302 300 298 298 294 301 300 298 295 288 294 285 296 301 301 304 308 310 312 313
314 313 311 312 308 309 317 318 314 312 284 302 303 312 310 305 304 305 309 306 299 302 300 298 301 300 298 299 301 296 301 299 299 294 295 294 290 293 298 298 302 303 306 307 314
314 313 311 310 309 310 314 315 319 298 284 301 305 303 302 304 303 305 304 307 305 300 301 299 303 302 300 303 302 303 299 298 297 293 286 294 291 292 295 299 303 306 308 310 313
313 313 311 313 307 316 313 314 294 285 301 298 298 302 300 299 300 301 299 297 293 291 293 298 298 304 305 299 302 301 295 286 284 284 283 296 294 294 300 303 304 306 306 308 312
312 311 311 311 315 317 315 306 289 296 297 302 301 300 297 299 298 299 297 293 296 296 292 292 289 298 302 298 296 297 294 287 281 281 287 295 290 294 303 306 308 308 306 308 312
311 310 310 310 312 313 309 295 291 298 299 300 299 295 295 299 298 297 295 294 296 297 291 292 294 302 304 303 301 297 291 296 291 292 287 291 294 300 303 303 305 305 304 308 312
308 307 307 312 313 310 301 295 299 304 304 301 295 296 292 295 296 295 295 298 297 299 303 299 292 300 302 304 301 298 299 289 290 281 280 285 288 290 297 299 304 303 305 309 311
308 302 308 314 313 306 294 296 302 307 306 302 298 295 296 295 297 294 296 299 300 302 304 300 297 296 301 298 294 295 292 293 293 288 281 280 285 294 296 298 301 305 309 310 310
307 296 309 314 298 299 293 300 303 305 308 305 303 299 297 299 296 295 296 301 307 303 298 301 297 288 295 301 301 298 296 295 283 285 285 283 286 298 297 298 300 302 309 310 311
302 303 312 309 290 292 297 300 305 304 304 303 302 302 302 299 295 296 300 306 307 303 299 300 292 283 289 296 299 295 296 296 297 289 285 279 285 298 299 297 299 298 302 308 309
303 295 305 306 301 296 294 296 299 307 305 306 303 304 300 298 300 297 300 306 306 304 301 303 297 290 284 290 296 293 296 296 293 283 284 285 290 294 295 297 299 299 299 303 307
303 297 304 296 298 298 298 299 298 300 305 306 301 301 299 293 297 296 302 302 305 302 302 300 291 293 295 298 298 296 296 296 292 293 286 290 292 295 295 296 297 300 300 301 301
300 299 303 299 302 300 298 298 299 301 302 300 300 301 300 296 299 296 301 301 299 302 299 301 291 292 290 297 296 293 295 295 295 295 293 293 292 296 298 298 298 299 300 300 301
302 306 305 301 299 297 296 301 301 303 304 304 304 301 299 303 305 306 306 306 305 301 297 297 290 287 285 291 290 283 290 294 295 296 294 288 293 297 297 298 297 297 299 300 301

GFSSW_sfc_thetae_021.txt.gz
Theta_e
322 322 321 321 319 319 318 317 316 315 315 316 316 316 317 317 314 308 301 308 309 319 320 306 304 303 301 298 299 294 287 284 287 300 300 307 305 308 315 314 318 320 319 324 328
322 322 322 321 319 318 318 317 316 316 315 316 316 317 317 316 307 304 314 319 321 322 306 303 300 300 296 294 296 293 287 289 294 302 303 305 306 311 311 313 314 316 323 326 326
323 322 322 320 320 319 318 317 316 316 316 316 316 317 316 313 304 309 325 322 324 324 306 306 304 300 294 294 295 292 291 294 302 306 307 305 308 311 310 307 313 315 318 321 323
322 321 321 320 320 319 317 316 316 316 315 315 316 316 315 307 295 306 328 325 325 318 306 303 301 296 294 292 295 291 296 297 299 306 307 306 310 309 308 309 318 319 320 320 320
320 320 320 320 320 319 317 316 316 315 314 315 315 315 307 299 301 318 327 326 320 309 305 302 301 299 295 295 294 293 297 297 301 308 307 310 306 304 305 316 319 320 319 318 319
320 319 319 319 319 318 317 316 315 314 314 315 315 313 302 293 313 321 317 312 309 306 303 303 303 303 299 297 295 299 300 297 301 305 308 305 305 306 307 318 317 319 317 316 317
321 319 318 318 318 317 316 315 314 314 314 314 314 308 302 296 314 313 314 308 306 306 304 306 306 302 301 298 303 301 296 299 301 304 304 306 302 302 308 316 317 318 317 315 317
321 320 318 317 316 315 314 314 313 314 314 314 312 304 299 309 311 311 309 308 307 308 305 307 306 303 300 302 301 296 294 292 298 302 304 303 296 305 310 313 313 315 317 316 317
319 319 317 316 315 314 314 313 313 314 314 314 303 302 300 313 310 314 311 307 308 307 306 310 304 299 300 294 290 292 287 291 296 302 303 300 298 305 310 311 311 311 316 317 317
317 318 317 316 314 313 312 312 313 311 310 310 307 296 301 303 310 310 310 310 307 305 303 302 297 294 294 291 285 286 289 290 292 297 300 299 300 304 307 308 309 309 313 316 316
316 317 318 315 314 312 308 305 302 303 303 297 296 296 300 308 310 307 309 307 305 302 295 297 292 289 292 294 295 294 291 290 293 297 296 297 299 304 305 306 305 306 308 313 316
315 316 317 316 314 312 305 302 304 306 298 306 306 304 307 309 304 305 308 302 300 295 297 294 290 295 297 297 296 296 292 291 294 296 294 292 296 299 304 305 306 307 308 311 315
313 315 316 314 312 309 304 305 311 310 296 302 308 307 308 309 304 302 304 300 298 295 295 291 294 299 299 296 295 294 292 291 292 292 293 294 292 298 303 304 305 308 310 311 313
312 314 314 312 306 307 304 312 311 308 292 297 304 307 309 305 300 307 305 302 297 295 295 294 298 298 296 296 296 291 296 295 294 289 286 291 284 292 298 301 302 306 306 308 310
311 313 312 312 307 307 312 312 310 307 278 295 304 311 304 301 301 302 305 301 295 296 296 294 296 295 295 296 297 294 297 295 294 290 289 289 286 288 296 299 301 303 306 308 308
311 313 312 310 307 307 310 313 314 289 279 295 303 297 297 299 300 300 301 302 300 296 296 295 299 298 297 300 299 299 295 294 292 290 283 288 287 286 291 298 303 304 306 307 306
311 312 311 312 304 312 313 313 294 283 295 295 295 297 295 295 297 298 295 293 291 288 289 293 294 298 301 296 298 296 291 284 282 281 281 291 288 290 295 298 300 299 302 306 307
310 311 312 312 310 310 314 303 287 292 293 301 298 297 293 296 296 296 293 291 292 292 289 288 286 295 300 296 293 293 291 283 279 279 283 291 286 291 298 300 301 301 301 303 306
309 309 310 312 312 309 304 292 289 294 299 294 296 293 292 295 295 294 292 291 293 294 289 287 289 297 299 301 298 292 288 292 286 285 283 285 291 294 297 298 298 299 302 304 304
301 303 306 313 312 307 300 292 295 301 302 300 291 294 289 292 292 291 291 294 294 296 296 294 288 296 299 300 300 294 296 286 286 281 280 283 284 286 294 297 299 298 300 303 306
300 297 306 312 311 300 290 292 296 303 303 300 296 293 293 292 292 290 291 294 296 295 297 296 291 290 298 294 293 292 290 289 289 285 280 278 283 291 294 297 298 298 301 301 306
298 291 308 311 297 296 292 296 299 298 302 302 302 299 295 293 292 292 292 295 299 299 294 297 291 284 291 297 298 295 293 290 282 283 281 280 283 295 294 295 296 299 301 302 305
293 297 308 307 291 291 295 296 299 297 298 299 299 300 298 293 290 293 294 299 302 298 296 297 289 282 287 292 295 292 293 293 290 284 283 279 283 294 294 294 295 298 300 302 305
295 289 298 301 299 294 292 293 294 301 298 300 300 302 298 294 296 294 295 301 303 300 301 299 291 288 285 288 292 288 292 292 290 282 282 282 287 292 294 294 294 295 297 300 304
296 292 297 289 293 294 294 294 293 294 298 299 296 298 297 291 292 292 297 299 300 300 298 297 290 289 290 292 294 292 292 291 290 289 285 288 288 292 292 293 293 295 296 301 302
292 295 298 293 296 293 294 292 292 295 296 294 294 298 297 294 294 292 297 296 296 297 295 296 287 289 287 291 291 290 292 292 291 291 290 289 288 292 293 293 294 295 296 296 297
298 300 298 294 293 292 291 292 293 297 298 299 299 298 295 298 300 298 300 300 300 297 293 292 287 285 283 286 287 282 288 291 291 292 292 287 291 293 293 294 294 295 296 296 297

GFSSW_sfc_thetae_024.txt.gz
Theta_e
322 322 322 321 320 319 318 318 317 316 316 315 315 316 317 317 314 306 300 308 310 320 319 306 303 302 300 297 296 293 287 283 286 294 298 307 304 308 316 315 317 320 319 325 327
323 323 323 322 320 319 318 318 317 316 316 316 316 316 317 316 306 303 312 319 321 321 304 302 298 298 295 293 295 292 286 288 292 294 300 304 305 308 310 312 314 319 325 326 325
324 323 322 321 320 319 319 317 316 316 316 315 315 316 316 312 302 306 324 322 323 321 304 304 302 298 292 293 292 290 289 292 294 300 306 304 305 310 309 307 313 316 319 323 323
323 322 321 321 320 319 318 316 316 316 315 315 315 316 315 306 295 303 328 324 325 315 305 301 299 295 292 291 295 291 295 295 297 303 306 305 308 307 307 310 318 320 321 321 320
321 321 321 321 320 319 317 316 316 315 315 315 315 315 307 296 298 318 327 325 317 308 303 300 299 297 293 294 293 292 295 296 297 306 306 308 305 304 310 316 320 320 320 319 319
319 320 320 320 319 318 317 316 315 314 314 315 315 313 303 291 310 319 317 312 309 305 302 301 301 301 298 296 293 297 297 297 301 305 307 304 304 307 313 317 315 316 316 317 315
318 320 319 319 319 317 317 315 314 314 314 314 314 308 301 296 310 311 311 307 307 305 301 303 304 300 299 297 300 299 295 298 301 303 305 306 300 303 314 315 314 315 316 316 315
317 318 318 318 317 316 315 314 314 314 314 314 312 305 297 306 309 310 309 307 306 307 304 304 304 301 298 300 298 294 295 293 298 302 304 301 295 305 315 314 313 314 316 314 315
315 315 317 317 316 315 314 314 313 314 314 313 303 304 297 310 305 311 310 306 305 304 304 308 303 297 298 293 289 290 286 291 295 301 302 300 297 304 312 314 311 314 314 313 314
314 315 316 316 316 314 312 312 312 310 310 310 307 295 298 299 307 309 309 308 305 304 302 300 296 293 292 289 284 286 287 288 291 295 298 298 298 303 309 311 311 311 314 314 314
314 315 315 316 316 313 308 303 299 300 303 299 295 294 297 306 310 305 308 306 304 300 294 296 291 288 290 293 293 292 289 288 292 296 297 296 298 301 305 306 306 307 311 314 316
314 313 314 315 315 312 304 299 302 303 298 304 304 302 304 309 304 305 308 301 299 294 295 293 289 294 295 295 294 293 290 289 293 294 293 293 295 299 302 305 306 308 310 313 315
312 312 312 315 313 308 302 304 310 307 297 300 305 305 306 308 303 302 303 300 297 294 294 291 293 297 297 294 293 292 291 290 291 291 292 293 292 298 302 303 305 307 310 312 313
311 311 311 313 306 305 302 312 311 307 289 294 301 306 307 307 299 306 304 300 296 294 294 293 296 296 294 293 294 291 296 293 292 288 284 289 282 290 298 300 302 305 306 309 310
310 311 311 312 304 303 310 310 309 306 276 295 303 311 306 300 300 301 304 300 294 294 294 292 294 294 292 294 296 293 296 293 292 289 288 287 285 287 293 297 301 303 305 308 310
310 311 311 310 308 306 310 312 312 291 278 291 301 299 297 298 298 298 299 301 299 294 295 294 296 296 295 297 297 297 295 293 291 288 282 286 286 286 290 298 303 304 304 307 307
309 310 311 313 306 309 313 310 295 282 293 291 296 296 294 293 295 296 294 293 290 287 287 291 293 297 298 293 296 294 290 283 282 281 280 290 287 289 294 296 300 302 304 305 308
308 308 309 311 312 308 312 300 285 290 291 298 297 294 291 293 294 294 292 289 290 291 287 287 285 293 298 294 292 291 290 283 279 278 282 289 284 289 296 297 299 299 300 301 304
307 304 303 308 312 309 303 288 289 293 298 295 295 290 290 293 293 292 291 290 292 293 288 286 287 295 298 298 295 291 287 290 285 284 282 284 289 292 294 296 298 297 298 298 302
301 300 298 310 312 307 297 290 293 299 302 300 291 293 288 290 291 291 289 293 292 294 294 292 286 294 296 299 297 293 294 286 285 280 279 282 282 285 291 295 298 298 298 300 303
300 294 298 313 311 301 290 291 295 301 302 299 296 294 291 291 291 289 290 292 295 293 295 293 289 288 295 292 292 291 289 288 288 284 280 277 282 291 292 294 294 295 299 299 302
298 286 306 311 295 296 291 294 298 298 301 300 300 299 296 292 290 290 290 294 297 297 292 295 290 283 290 294 296 293 291 289 282 282 281 279 282 292 293 293 293 295 297 299 301
293 294 306 305 287 290 294 295 297 296 296 298 297 300 298 293 289 292 292 297 298 296 293 295 287 281 285 289 292 290 291 291 288 284 282 278 283 293 293 293 294 294 295 299 301
294 286 296 299 295 291 291 291 292 300 297 298 297 300 297 294 294 291 292 298 299 297 300 298 289 286 283 285 290 287 290 290 289 281 282 282 286 291 292 292 293 294 293 296 301
294 288 294 287 290 291 292 293 291 292 298 298 294 296 295 290 290 291 295 297 298 300 296 295 287 287 288 290 291 291 291 290 288 288 285 287 286 291 292 293 292 293 295 300 301
290 290 296 290 292 292 293 291 291 293 296 294 293 295 296 293 293 290 295 294 294 296 294 294 287 287 286 290 290 288 290 290 289 288 288 288 288 292 291 291 292 293 295 296 297
295 296 295 292 291 289 290 292 292 295 296 298 296 295 293 296 299 298 298 298 297 295 292 290 287 285 284 285 286 283 287 290 290 290 291 286 291 292 291 292 292 294 295 294 294

GFSSW_sfc_thetae_027.txt.gz
Theta_e
323 323 323 322 321 320 319 319 318 317 317 317 317 316 316 317 315 308 304 312 313 319 319 310 308 307 306 305 303 300 296 292 293 295 302 310 309 316 320 317 319 321 321 325 323
324 324 324 323 321 319 319 319 318 317 317 317 316 316 317 316 308 305 316 319 321 323 307 304 303 304 302 302 302 300 295 294 297 299 303 308 309 313 314 313 315 319 324 324 322
325 324 323 322 321 320 319 318 317 317 317 316 316 317 316 314 304 309 324 321 322 321 307 308 305 302 299 300 300 297 296 298 298 300 308 308 309 313 314 310 315 316 318 321 321
321 323 323 322 321 320 318 317 317 317 316 316 316 316 315 309 299 308 328 324 325 317 308 305 304 301 298 297 300 296 299 299 300 304 309 308 312 309 310 312 319 322 322 321 321
318 319 321 322 322 320 318 317 316 316 315 315 315 315 309 300 297 321 327 325 319 311 305 304 303 302 299 299 298 297 299 300 300 307 309 311 307 309 312 319 321 322 322 320 320
316 317 318 321 321 319 318 317 316 315 315 315 315 314 305 295 315 321 319 314 312 308 306 305 305 305 302 301 298 300 299 301 304 309 308 307 309 311 313 319 318 319 318 321 321
315 316 317 319 320 319 318 316 315 315 315 314 314 309 302 298 312 317 314 310 311 308 304 306 308 305 304 301 303 302 298 301 305 307 306 308 305 307 314 315 315 315 317 320 319
315 314 315 315 317 318 317 315 315 315 315 314 313 306 299 308 311 310 313 311 309 310 308 308 308 305 303 305 301 297 298 297 302 305 306 305 299 310 314 315 313 315 317 318 317
314 314 314 314 315 316 315 314 314 314 314 314 306 305 297 311 306 310 312 308 306 307 308 308 307 303 302 298 295 296 293 296 298 306 305 303 301 310 314 314 312 314 316 316 316
313 313 314 314 314 315 313 313 312 311 311 310 307 299 300 300 308 312 311 310 307 305 305 304 301 299 298 297 290 292 293 295 297 301 304 302 303 309 313 314 313 314 315 316 316
313 313 314 313 314 313 310 307 301 301 304 302 300 297 297 306 311 308 311 309 308 305 300 300 298 295 297 297 297 296 294 293 297 299 302 301 303 306 312 313 313 314 316 316 315
312 312 312 312 314 312 309 302 303 306 299 305 304 302 303 309 304 308 311 305 303 298 299 297 295 298 297 297 297 296 294 294 297 297 300 298 300 305 308 311 313 314 315 317 318
312 311 311 311 313 311 306 305 311 311 300 301 304 304 305 307 304 304 307 303 300 297 297 295 298 298 297 296 296 296 294 294 294 295 297 298 296 302 306 310 311 312 316 318 319
310 311 310 311 309 307 304 311 312 310 291 293 299 304 307 308 302 308 307 304 300 297 297 297 299 297 296 296 297 293 298 296 295 293 291 295 288 295 303 305 306 310 312 315 317
310 310 310 311 306 304 309 311 311 308 280 296 302 311 308 302 301 302 305 303 297 297 298 296 297 297 296 297 298 296 299 297 296 293 293 292 291 294 298 302 305 308 310 313 316
309 309 309 308 309 309 311 314 312 292 280 291 302 300 300 300 300 301 302 305 302 298 298 297 300 300 299 299 299 300 297 296 294 293 288 291 291 293 296 302 306 310 310 312 314
308 308 308 311 305 312 314 309 293 285 295 291 296 297 297 295 297 298 297 296 295 291 292 295 297 300 302 297 299 298 296 289 287 286 286 292 291 295 300 300 303 307 310 312 314
308 308 309 307 313 311 311 298 287 290 292 298 297 295 293 295 295 296 295 294 295 295 291 290 289 297 301 299 297 296 296 289 282 283 286 292 289 294 301 302 303 303 304 308 311
307 304 303 306 310 310 303 288 287 292 296 295 295 292 291 294 294 295 294 295 296 296 292 290 290 298 301 301 300 294 293 296 289 288 287 289 292 297 298 301 303 304 305 305 305
301 299 298 307 310 306 296 289 293 299 301 300 291 294 289 292 292 293 292 296 295 296 299 296 290 297 299 302 300 297 298 291 290 284 282 287 288 291 297 298 300 303 305 307 308
299 292 300 307 309 299 288 290 294 300 302 299 297 295 293 292 293 292 293 295 297 295 298 296 295 293 298 297 295 295 293 292 293 290 286 284 288 297 298 299 301 302 302 306 307
296 286 300 305 291 293 289 293 297 297 301 299 301 299 297 295 291 292 293 296 298 298 295 298 295 289 293 298 299 298 295 294 290 287 287 287 288 298 300 299 300 301 301 304 308
290 292 301 301 285 288 292 293 296 296 297 297 297 300 301 296 290 293 294 299 298 297 297 298 292 288 290 293 297 295 295 294 292 290 287 288 290 297 298 299 300 300 301 301 305
293 285 294 295 295 291 289 290 291 298 296 298 298 300 299 296 296 294 294 299 299 299 300 300 293 291 287 290 294 292 293 293 294 289 290 289 292 297 299 298 301 300 300 301 306
293 288 293 285 288 291 291 291 290 291 297 298 296 296 297 292 293 292 297 300 300 300 299 300 292 291 292 292 294 294 293 292 292 293 291 293 291 296 299 299 299 298 301 304 305
288 289 293 291 291 289 290 290 290 292 294 294 293 296 296 295 296 293 297 298 297 298 297 297 292 291 290 292 292 292 294 293 293 292 292 292 292 298 298 297 297 298 301 300 300
295 296 294 291 290 288 287 290 292 295 296 298 296 295 294 297 301 300 300 301 301 299 295 295 291 290 287 289 291 287 291 293 294 294 296 291 297 297 296 297 297 299 299 297 297

GFSSW_sfc_thetae_030.txt.gz
Theta_e
324 324 324 323 322 321 320 320 319 318 318 318 318 317 317 318 316 314 311 316 316 321 318 313 312 311 311 308 309 308 300 301 298 299 302 311 312 319 321 318 322 324 325 325 324
323 325 325 324 322 321 320 319 318 318 318 318 318 317 318 317 313 311 317 320 321 323 314 310 307 309 308 307 309 305 301 299 303 304 303 308 312 316 317 317 319 321 322 322 323
319 321 322 324 322 321 320 319 318 318 318 317 317 317 317 316 309 314 321 322 324 322 313 310 309 308 305 307 306 305 301 304 304 305 306 307 310 316 315 312 317 317 318 320 320
317 318 319 321 322 322 320 318 318 318 317 317 316 317 316 315 299 317 327 324 324 319 313 309 308 305 303 302 305 301 305 305 305 306 308 311 314 312 315 317 324 323 321 320 321
315 316 317 319 321 321 320 318 318 317 317 316 316 316 314 306 304 322 329 324 319 315 311 309 307 307 303 305 305 303 305 305 307 306 312 314 312 313 316 321 326 323 322 320 320
315 315 317 318 319 320 319 318 317 316 316 316 316 314 309 300 316 324 320 319 315 313 311 311 309 310 306 305 304 306 306 306 307 310 313 311 312 314 316 322 321 321 319 320 318
314 315 315 316 316 318 319 318 317 316 316 316 315 312 307 305 316 322 319 316 316 313 309 311 312 309 309 305 308 307 303 306 307 312 310 312 308 311 319 321 319 318 320 321 322
314 314 314 314 314 315 316 317 316 316 316 315 314 311 305 311 315 318 318 314 315 315 312 313 313 311 308 310 306 303 302 300 306 310 311 310 302 314 319 318 316 318 320 321 323
312 313 313 313 313 314 315 316 315 315 314 314 312 310 303 312 308 313 318 312 313 313 313 312 312 309 308 303 301 302 296 299 301 309 310 309 305 314 318 317 315 316 317 318 319
311 312 313 313 313 314 314 314 315 312 314 314 311 305 308 303 309 313 315 315 311 311 308 308 309 305 304 301 294 296 297 299 300 306 308 306 306 313 317 317 314 316 317 317 317
311 312 312 313 312 314 315 318 311 308 310 307 306 305 301 308 315 313 314 311 312 310 304 308 302 299 301 302 302 301 299 297 301 305 305 304 305 310 316 317 316 317 317 317 317
311 310 312 311 311 313 317 311 310 310 302 310 309 308 310 309 306 311 316 307 307 303 306 302 299 302 303 302 301 301 299 298 301 303 302 303 303 309 315 316 317 318 319 319 319
311 311 311 310 311 312 314 314 316 316 305 306 310 307 307 309 305 307 312 309 306 303 303 301 301 304 302 301 300 301 299 298 298 300 302 302 300 305 311 316 317 319 320 321 320
310 310 310 310 308 314 311 317 317 316 298 297 300 305 308 308 303 311 313 309 305 301 303 303 304 301 301 300 301 297 303 300 299 298 294 300 292 300 306 310 314 316 318 320 321
310 310 310 310 309 311 313 319 318 314 283 298 302 313 310 304 304 306 313 308 302 302 303 299 301 300 300 300 303 299 303 301 301 299 297 296 294 299 304 305 309 314 317 320 322
309 309 310 308 308 313 317 319 314 297 284 294 304 303 302 304 303 306 306 309 308 303 303 302 305 304 303 304 304 304 302 301 301 300 291 296 295 296 300 303 305 311 315 318 320
309 309 308 307 302 315 317 312 295 288 296 293 298 302 301 298 300 301 301 300 298 295 296 300 301 304 305 301 303 303 299 292 290 291 289 297 295 297 303 305 307 308 311 317 320
308 308 308 307 309 312 311 300 286 291 293 300 300 301 297 298 299 300 299 297 302 300 297 294 292 300 305 302 300 301 299 292 285 287 290 296 292 298 305 307 309 310 311 312 316
308 305 306 309 311 308 301 289 287 292 297 297 297 296 297 297 298 299 298 297 300 302 296 295 294 302 304 305 304 299 296 301 294 295 292 294 297 302 304 304 308 310 310 312 313
303 300 301 310 312 302 293 290 292 298 300 299 293 297 294 296 294 297 297 300 300 303 305 300 293 300 303 305 304 302 304 295 296 287 285 291 292 295 299 301 304 305 308 311 314
302 292 302 310 309 294 286 291 294 300 302 301 297 296 297 296 297 296 296 298 303 302 304 302 298 298 302 300 299 299 298 298 298 296 289 287 292 302 301 303 304 306 307 310 313
298 287 304 309 290 292 288 294 296 297 303 302 303 301 299 298 297 296 295 298 304 304 299 303 299 294 296 302 304 303 300 300 294 292 295 293 292 304 305 306 306 307 306 309 313
290 292 304 304 285 286 293 294 296 296 298 301 300 303 305 300 295 298 297 303 304 303 301 303 297 292 293 297 301 299 301 301 300 298 293 292 293 304 305 306 307 307 308 308 309
292 285 293 296 296 292 290 289 291 298 297 301 301 304 302 300 301 297 297 300 303 304 303 303 299 295 290 293 298 296 298 300 299 294 294 294 296 300 303 305 307 308 308 308 311
292 289 293 284 291 292 295 293 290 290 298 300 299 300 300 296 297 296 297 300 300 300 303 304 295 297 297 298 298 297 297 298 296 297 294 296 297 301 303 306 307 306 306 308 310
288 292 297 293 293 290 292 291 290 292 294 294 296 299 301 297 297 296 299 298 299 302 302 304 296 298 295 298 297 295 297 298 298 298 297 299 298 305 307 307 305 304 306 307 309
297 300 298 292 291 289 291 292 292 295 296 298 297 296 296 298 302 303 303 302 302 302 301 300 298 295 291 296 295 290 296 297 298 300 299 296 302 306 304 304 305 306 307 306 305

GFSSW_sfc_thetae_036.txt.gz
Theta_e
320 320 321 322 322 323 323 323 321 321 320 320 320 319 319 318 316 317 315 319 322 323 317 317 314 313 313 310 311 310 299 297 300 300 302 308 308 310 314 309 310 319 320 322 326
317 317 318 319 320 321 321 322 321 321 320 320 319 319 318 317 315 313 321 324 323 323 313 311 309 310 308 308 308 305 299 301 305 306 304 307 308 313 311 310 308 311 321 325 326
315 315 315 315 317 319 320 319 321 321 321 320 319 319 317 317 313 314 323 324 323 322 316 315 312 310 305 308 307 305 300 306 306 307 308 308 309 313 312 303 307 309 317 322 322
315 314 315 314 315 316 318 318 320 321 321 320 320 319 318 317 302 319 325 324 325 317 315 310 308 305 304 303 307 302 306 306 307 309 308 310 313 309 315 308 315 320 321 322 321
312 314 315 314 314 315 316 316 318 320 320 320 319 319 316 310 310 323 326 323 316 313 313 309 306 306 304 306 306 303 305 308 308 308 310 312 310 314 316 321 322 321 322 321 320
312 311 313 315 315 315 314 314 315 317 318 319 319 317 314 303 318 326 321 315 314 312 312 311 309 311 307 307 305 307 307 307 308 308 310 309 311 311 318 321 320 320 319 319 318
313 311 313 313 314 314 314 314 314 316 318 319 318 316 310 308 317 318 321 315 315 313 311 314 314 309 310 306 309 308 303 305 307 307 308 310 303 304 317 319 317 318 317 317 319
313 313 312 311 312 313 313 313 314 316 317 318 317 314 304 316 318 317 319 317 317 316 315 316 315 310 308 310 307 303 303 298 306 308 309 306 297 307 311 317 315 313 314 313 316
313 313 312 311 310 312 313 312 312 315 318 317 314 312 303 316 312 314 317 315 314 314 315 315 312 307 307 303 299 301 295 298 301 309 309 306 300 307 313 316 314 313 315 317 318
313 313 312 311 311 311 311 310 312 316 317 318 315 306 309 305 312 313 315 317 311 311 309 309 306 302 303 300 292 296 297 299 300 305 307 304 303 308 311 314 313 313 315 316 317
312 312 313 311 311 311 310 310 309 312 314 308 306 303 305 313 313 310 312 314 312 308 301 305 300 296 300 303 302 301 300 299 302 306 304 304 305 308 311 313 312 312 312 313 315
311 311 312 312 311 311 309 305 308 313 302 308 310 309 312 314 305 309 313 309 307 301 304 302 298 303 305 304 302 300 298 298 303 306 304 301 304 308 310 313 312 313 313 312 314
310 311 310 311 311 308 306 306 315 317 302 300 304 304 306 309 306 307 308 309 305 302 303 300 303 307 304 302 300 299 298 298 299 302 304 301 299 304 310 313 314 314 316 316 313
310 310 309 310 305 307 304 311 314 317 295 293 299 306 307 307 302 311 311 308 305 301 302 302 306 304 302 300 300 296 302 301 301 299 293 302 291 300 306 307 311 313 314 315 316
309 310 308 309 307 307 314 318 320 315 280 296 300 312 309 304 305 305 311 308 301 302 303 300 302 301 300 300 302 299 304 302 301 298 298 298 294 298 303 302 307 312 314 316 316
310 310 309 306 308 309 314 315 316 293 281 293 304 302 302 304 303 306 305 309 308 302 304 302 307 305 303 304 304 305 302 302 301 298 291 297 295 295 299 302 305 311 314 316 316
309 309 308 306 303 312 313 310 292 284 294 292 298 302 300 300 300 301 300 299 297 294 296 300 301 305 306 300 304 303 299 291 289 289 290 299 295 298 303 305 306 309 309 312 317
309 308 307 305 310 313 306 296 282 288 291 299 298 300 298 300 300 299 299 296 301 300 296 294 292 300 304 301 299 300 298 292 285 287 291 298 293 297 306 308 309 309 312 312 316
308 306 305 307 309 309 297 284 286 288 293 293 296 295 297 300 300 298 298 298 300 301 295 294 294 303 304 304 303 300 296 301 295 297 291 292 299 303 305 306 306 307 309 312 312
304 302 302 308 308 306 291 285 290 294 294 295 290 294 292 298 297 297 296 300 300 303 304 300 294 301 303 305 304 301 303 295 296 287 285 292 294 295 300 302 304 305 308 311 314
301 294 303 307 308 295 285 288 292 296 296 293 292 292 293 294 298 297 297 300 303 302 304 302 299 298 302 299 297 299 297 299 300 296 289 288 292 303 302 304 305 306 309 310 312
298 287 303 308 290 290 287 290 295 294 297 296 296 295 293 295 296 298 297 300 305 304 299 302 299 293 296 303 304 302 300 299 293 292 296 296 293 306 306 306 308 308 309 310 313
293 292 304 303 283 285 290 292 292 293 294 294 294 297 298 296 294 298 300 305 306 304 300 302 296 291 294 298 302 299 300 301 301 300 295 291 293 306 307 306 307 308 308 310 311
293 285 293 296 296 290 288 290 289 295 294 295 294 297 296 296 299 296 296 303 307 305 303 305 299 294 290 294 299 297 298 300 300 295 295 295 297 301 304 304 306 307 309 309 311
292 287 293 286 288 292 292 291 289 289 294 295 294 294 294 291 293 293 296 299 304 305 304 304 295 297 298 299 299 298 297 298 297 299 295 297 298 302 305 304 306 309 310 309 310
285 290 295 292 292 291 291 290 289 291 292 290 291 293 296 293 296 294 298 298 299 304 302 305 295 297 295 299 298 296 298 299 298 298 298 299 299 306 308 307 306 306 308 308 309
293 299 296 292 291 288 289 292 292 294 295 295 294 294 294 296 302 302 303 301 300 300 300 300 298 295 291 297 295 290 296 298 299 300 300 295 301 306 305 305 306 308 308 308 311

GFSSW_sfc_thetae_039.txt.gz
Theta_e
318 318 318 318 318 319 320 320 320 321 321 321 321 320 320 320 317 313 310 317 318 325 318 311 307 306 305 302 302 300 290 289 294 297 296 305 304 308 315 310 314 317 319 321 324
316 316 316 316 316 317 318 319 319 320 321 321 320 320 320 319 313 309 319 325 324 325 307 306 305 306 299 300 300 295 289 292 301 299 299 301 307 310 309 310 309 315 321 324 323
315 315 315 315 316 316 316 316 317 318 319 320 320 320 319 317 309 311 323 324 325 322 309 310 311 305 299 299 299 297 292 298 302 303 301 303 307 314 306 304 308 311 315 321 321
312 312 314 314 315 316 315 314 315 317 317 319 320 321 319 314 298 313 325 325 325 314 310 309 304 298 297 296 300 294 300 301 301 302 302 303 309 311 308 309 311 317 320 320 319
312 312 312 312 314 315 314 314 314 315 316 318 319 320 313 307 308 320 326 324 315 311 308 307 302 300 297 301 302 298 299 302 304 304 304 311 311 313 313 317 319 319 321 320 318
314 312 311 311 312 312 313 313 313 314 315 317 319 318 310 301 314 323 319 314 311 306 306 308 304 305 303 302 300 302 303 302 303 302 306 307 308 312 316 317 317 319 318 317 316
314 313 313 311 311 311 312 313 313 313 314 316 318 316 307 303 313 316 317 312 310 308 305 309 308 304 304 301 306 305 299 300 301 301 305 305 301 304 315 318 315 315 315 315 315
313 313 313 312 312 311 311 312 312 313 313 315 318 311 302 313 312 313 313 312 313 311 310 311 310 305 303 304 303 299 297 292 299 305 305 303 298 304 309 315 311 312 312 315 315
313 312 312 312 311 311 311 311 311 312 313 315 311 306 302 316 309 312 313 311 314 312 310 313 308 302 302 296 293 295 289 291 296 305 305 302 299 305 312 315 309 310 308 309 314
312 312 312 312 312 311 310 311 311 311 314 316 314 302 308 304 310 312 311 311 311 308 306 304 300 295 294 291 286 290 290 292 293 302 304 301 300 305 308 313 311 308 310 312 313
312 312 312 311 311 311 308 304 303 305 309 305 304 301 305 310 313 308 310 307 310 304 297 300 293 290 293 296 298 297 295 293 297 304 303 302 300 300 305 309 310 308 310 313 311
311 311 311 311 311 311 306 299 303 303 297 309 310 309 312 313 305 307 308 302 304 298 299 297 293 298 301 300 299 299 295 292 297 304 301 301 299 301 304 308 308 308 309 312 312
311 310 311 310 310 306 301 301 307 304 297 300 305 302 302 305 302 303 304 302 302 298 297 294 297 302 300 299 298 298 294 293 295 299 302 298 298 302 307 308 311 309 309 311 312
310 310 309 308 303 302 299 309 312 307 291 293 296 299 302 302 299 306 309 304 302 298 299 297 302 301 300 299 299 293 299 298 297 294 289 297 286 300 303 306 309 308 308 308 312
310 310 309 309 301 299 307 308 309 307 272 294 296 305 302 298 301 302 308 303 299 300 299 296 298 298 298 299 300 296 301 300 298 293 291 293 289 293 303 302 305 307 310 310 312
310 310 309 304 302 303 307 307 307 289 278 291 300 299 299 298 299 302 301 304 303 300 301 299 304 301 299 303 301 301 300 299 297 293 284 291 291 290 298 302 306 309 311 311 310
309 309 307 304 296 306 309 304 287 279 290 287 295 299 297 297 297 298 297 295 293 290 291 296 297 301 303 298 300 298 294 286 283 283 282 296 293 293 298 302 304 308 310 311 313
309 308 307 304 302 305 305 293 280 286 287 295 294 297 295 297 297 298 296 292 296 296 291 290 288 297 302 299 296 296 295 286 280 280 286 295 289 294 303 304 305 311 312 311 311
308 304 303 304 303 306 296 282 283 286 290 289 290 288 289 297 297 296 294 293 296 297 291 290 291 300 301 302 300 295 291 297 290 293 286 290 296 301 303 302 303 303 306 305 307
302 300 299 305 306 301 290 284 287 292 292 291 285 289 286 292 294 294 294 297 296 299 300 295 290 298 301 302 301 297 300 291 291 283 281 288 291 293 298 299 301 300 303 305 308
301 293 301 305 303 293 284 284 288 294 295 291 287 287 288 289 290 291 292 298 298 299 300 297 293 293 299 296 295 295 293 295 296 292 284 281 286 298 300 301 299 299 301 303 306
299 288 301 304 289 289 285 288 293 291 295 293 293 290 289 290 289 290 294 298 303 301 296 298 295 289 292 300 301 298 296 295 288 288 291 288 288 301 301 301 303 302 302 303 307
294 292 302 300 283 283 288 288 291 290 291 291 291 292 292 290 286 295 297 302 303 299 298 298 293 286 289 295 298 296 297 298 296 293 289 284 288 300 301 302 302 301 302 304 305
294 285 293 294 292 286 285 286 286 293 292 292 291 292 291 289 292 293 296 300 303 301 302 302 295 290 286 290 295 293 296 297 295 287 288 288 292 298 302 301 301 301 301 301 303
292 286 291 285 286 288 288 288 286 286 292 292 289 289 289 285 288 290 295 298 301 301 302 301 292 293 294 296 297 296 296 296 294 295 291 294 295 298 302 303 304 304 305 306 306
285 287 292 289 290 288 289 285 285 288 289 289 287 290 290 287 288 287 295 296 296 299 297 301 292 293 291 295 296 294 296 297 296 295 297 297 296 303 305 303 303 303 304 303 304
297 294 293 290 289 287 286 287 287 290 291 293 291 289 288 290 294 299 300 301 300 295 292 295 292 291 286 293 292 286 293 295 296 298 297 292 298 303 302 303 303 303 305 303 304

GFSSW_sfc_thetae_042.txt.gz
Theta_e
317 316 316 316 316 316 316 316 317 317 319 319 319 321 321 320 318 313 306 313 316 323 320 309 305 303 302 298 299 297 289 286 289 292 295 305 303 308 313 310 315 317 319 320 324
315 314 314 314 315 316 316 315 315 315 317 317 317 319 320 319 313 309 316 326 326 326 306 303 303 303 298 297 298 294 287 290 296 297 296 302 308 309 309 308 312 314 320 322 324
315 314 313 313 314 315 315 315 314 314 315 316 318 319 318 317 308 308 326 326 327 323 306 307 309 305 297 296 295 293 291 297 299 302 300 308 309 310 304 302 308 310 317 321 320
315 314 314 313 312 312 313 314 314 313 314 315 316 317 318 313 292 311 325 324 326 312 307 307 304 296 295 293 296 292 299 299 299 302 301 305 310 309 308 307 312 315 320 320 318
314 314 314 314 312 312 311 312 313 314 313 313 315 316 313 305 305 315 326 323 315 310 306 305 303 299 294 296 299 297 298 300 302 302 308 313 311 312 312 314 317 319 320 319 318
314 313 314 314 314 313 312 312 312 313 313 313 314 317 308 298 309 314 317 313 309 305 304 306 305 302 299 300 297 301 301 300 301 300 311 311 312 311 314 316 314 318 317 317 316
313 313 313 313 313 313 312 312 311 312 312 313 313 314 305 301 310 309 313 309 308 307 302 305 306 302 302 299 303 302 297 298 299 299 304 306 300 305 315 316 314 314 315 313 315
313 313 313 312 312 312 312 311 311 312 312 313 313 311 300 312 311 310 310 309 311 309 307 307 307 304 302 302 300 297 295 290 296 302 303 300 294 304 315 315 311 311 313 313 312
313 312 312 312 311 311 311 311 311 312 312 313 310 306 298 315 309 311 309 307 310 310 308 310 306 301 300 294 290 292 287 290 293 301 303 299 296 302 312 314 310 310 310 311 311
312 312 312 312 311 310 310 310 310 311 310 314 313 301 305 300 308 309 309 308 307 308 306 302 298 295 292 290 284 288 288 287 290 299 301 299 297 303 308 312 308 307 304 311 311
312 312 311 311 311 310 308 302 298 301 306 304 304 301 302 307 314 307 309 306 305 303 296 298 292 290 292 293 295 294 292 290 294 301 301 299 298 300 306 310 307 305 305 307 311
311 311 311 311 310 310 306 297 298 297 291 301 305 307 309 310 304 307 308 300 300 296 297 295 291 296 298 297 295 295 292 292 295 300 299 298 298 298 304 307 310 307 307 309 311
311 311 311 310 309 305 301 300 305 304 292 297 303 303 306 308 303 303 304 300 299 297 295 292 295 300 298 296 294 294 293 293 292 297 296 298 295 298 303 307 309 312 309 312 311
311 310 309 308 302 302 298 306 307 307 288 290 295 298 302 301 296 304 305 300 298 297 297 294 299 297 296 295 296 292 299 296 294 292 287 294 284 297 300 302 305 308 308 311 311
310 310 309 309 299 297 304 304 308 300 270 289 295 305 302 296 297 299 304 300 295 298 297 294 296 295 294 296 299 295 300 296 296 292 289 290 286 290 300 300 302 306 307 309 310
310 310 309 304 300 301 304 305 305 286 274 288 296 294 294 295 297 300 299 303 301 298 299 297 300 298 298 301 300 301 297 296 295 291 284 289 288 287 295 300 303 307 307 309 311
309 309 308 304 294 300 303 302 287 278 289 286 293 297 294 291 293 296 295 293 291 288 290 295 297 300 300 295 299 296 291 285 283 283 282 293 290 291 296 302 305 307 307 308 312
309 308 307 305 301 301 301 292 280 284 284 291 291 291 292 294 292 294 292 290 293 292 288 287 285 295 299 296 294 294 292 284 280 279 284 293 287 292 301 302 306 310 310 311 309
308 305 303 303 301 304 293 283 283 286 290 288 288 285 287 291 294 293 292 291 293 294 288 287 288 297 299 300 298 294 289 295 288 289 284 288 293 297 301 301 301 303 309 310 310
303 301 299 304 301 299 288 283 286 292 292 291 284 287 284 287 289 289 291 295 295 296 297 293 287 296 298 299 299 296 298 288 288 281 280 286 288 289 296 299 299 298 305 307 308
302 294 301 303 301 292 282 284 288 293 292 289 287 286 286 287 289 289 289 295 297 296 298 294 292 291 295 293 292 293 291 293 292 289 282 281 285 296 298 300 300 301 302 306 306
299 287 301 304 288 288 283 287 293 290 293 291 292 290 287 289 288 288 290 294 302 301 295 297 291 287 290 297 299 296 294 294 287 286 287 284 288 299 299 300 301 300 301 302 304
293 292 301 298 282 283 287 287 289 289 290 290 289 291 291 288 286 289 292 303 303 301 297 298 291 283 287 292 295 292 294 296 294 291 287 283 287 301 299 298 301 298 301 301 305
292 284 292 294 290 286 284 284 285 291 289 290 290 291 288 286 289 287 291 299 303 302 302 302 295 290 284 288 292 290 294 295 294 285 286 287 291 296 298 298 299 299 300 300 303
292 285 290 285 286 287 287 286 284 284 290 292 288 288 287 283 285 285 290 296 301 301 301 300 291 292 293 295 294 293 294 294 292 292 288 290 292 297 298 300 301 302 301 303 302
285 287 291 288 290 287 287 284 284 286 287 286 287 289 288 285 286 284 288 289 293 298 296 297 290 289 287 294 294 291 293 295 295 294 293 293 293 301 303 303 302 302 303 303 302
297 294 293 290 289 286 285 285 286 288 290 290 290 289 286 288 291 294 294 296 296 294 291 293 289 286 282 290 291 286 291 294 295 296 296 291 296 301 300 301 301 302 303 303 302

GFSSW_sfc_thetae_045.txt.gz
Theta_e
315 316 315 315 315 315 315 315 315 314 314 314 315 317 317 317 316 312 304 310 315 324 320 305 304 301 300 297 297 294 288 284 287 289 293 303 302 308 311 309 314 317 318 320 324
316 314 313 314 314 313 314 314 314 314 314 314 315 316 316 316 311 307 315 324 325 324 305 302 302 301 297 295 295 292 286 289 293 294 294 301 306 308 308 307 311 312 319 323 323
313 314 314 314 314 312 313 313 313 313 314 314 315 316 315 316 304 302 324 325 327 324 304 304 307 303 295 295 294 292 290 294 297 298 300 305 306 308 303 300 307 308 313 320 320
313 313 313 313 315 314 313 312 313 313 312 312 313 314 316 311 289 309 325 326 327 313 305 304 303 296 293 293 295 291 296 296 297 298 306 305 307 308 306 305 309 312 317 316 317
313 313 312 313 313 314 313 313 313 313 313 312 313 314 311 302 303 312 325 323 314 307 303 302 300 297 293 294 296 294 297 300 299 300 304 311 309 309 307 311 314 316 318 316 316
313 313 313 312 312 313 313 313 313 313 312 312 312 313 306 295 306 310 316 312 306 304 303 303 301 301 297 296 296 299 299 299 299 306 311 308 308 308 312 314 312 316 315 317 317
312 313 313 313 313 313 312 312 312 312 312 312 312 309 304 299 308 308 308 306 306 304 300 303 305 300 300 297 301 300 295 296 297 299 306 307 300 305 313 313 312 313 316 316 315
310 312 312 312 312 312 311 311 311 312 313 313 312 309 298 310 309 309 308 307 309 308 305 305 305 302 300 301 298 294 293 289 294 301 301 298 294 302 313 312 310 310 312 312 312
313 312 311 311 311 311 310 310 311 312 313 312 307 305 297 313 308 311 309 304 307 308 306 309 303 298 298 292 289 290 285 288 293 298 300 298 295 300 312 313 309 309 309 309 309
313 312 312 311 311 310 309 310 310 310 309 310 312 299 302 300 306 309 309 307 304 306 304 302 297 293 291 289 283 285 287 286 288 293 299 296 297 300 311 312 309 306 307 309 308
312 312 312 311 311 310 307 302 294 297 299 300 301 301 303 308 312 307 308 304 303 302 295 296 291 288 290 292 292 292 289 288 291 295 297 297 297 298 304 308 305 305 304 307 309
311 311 311 311 311 310 305 296 297 298 292 300 298 300 307 309 302 305 307 298 298 293 296 293 290 294 295 295 293 292 289 289 293 296 296 295 295 298 303 308 308 305 305 304 309
311 311 311 310 310 303 300 300 306 305 293 296 299 298 298 305 301 301 305 299 296 294 294 291 294 298 296 293 292 292 290 290 291 294 295 295 292 296 300 305 309 310 308 307 308
310 311 310 309 300 300 298 303 304 306 285 287 293 297 301 303 297 305 305 300 296 293 295 293 298 296 294 293 293 288 295 295 293 290 286 294 284 290 298 300 305 307 308 307 309
310 310 309 309 297 296 300 303 304 302 270 288 294 301 301 294 295 298 304 298 293 296 296 293 293 293 293 294 296 292 297 295 294 289 288 288 285 288 298 297 301 304 307 308 310
310 310 309 304 299 300 302 302 303 287 273 286 294 294 294 295 294 298 296 301 300 295 296 296 298 296 295 297 297 299 295 294 292 289 283 288 286 285 292 297 300 304 306 307 310
309 309 307 303 294 299 300 298 287 279 288 284 288 294 292 291 292 295 293 293 291 288 288 293 295 297 299 294 297 294 289 282 281 281 282 290 288 289 294 299 302 303 305 307 310
308 308 307 304 301 300 297 291 280 285 284 289 288 288 291 291 291 293 291 288 292 291 288 286 284 294 298 296 292 292 290 283 279 279 282 291 286 290 298 300 301 305 306 307 308
308 305 303 301 300 300 289 282 282 286 289 287 288 284 285 290 293 291 289 289 291 292 287 285 286 295 297 298 297 292 288 293 286 286 282 286 290 295 299 299 299 301 305 305 307
301 301 300 302 302 296 285 283 287 292 291 290 283 286 283 285 288 290 290 293 292 294 296 291 285 294 296 297 296 294 295 286 286 280 279 284 286 287 292 296 298 298 300 304 308
300 294 301 303 303 292 280 282 287 291 292 288 286 284 285 285 286 287 289 295 298 297 296 292 289 289 294 291 290 291 289 290 290 286 282 280 283 294 295 297 298 298 300 304 305
297 286 301 303 287 288 282 285 291 290 292 290 290 289 287 288 285 286 287 290 301 299 294 297 289 284 289 295 296 293 291 291 286 284 285 282 287 297 297 298 299 299 301 299 304
290 291 301 299 283 283 287 285 288 288 289 289 288 290 290 286 283 287 289 300 302 299 295 298 291 283 285 290 292 290 291 292 292 289 286 283 286 299 298 298 299 298 298 299 300
289 284 291 294 290 286 284 284 284 290 288 290 289 289 287 285 287 285 288 293 302 300 302 300 293 290 285 287 291 289 292 293 292 285 284 287 289 294 297 297 298 298 298 298 300
290 284 291 284 286 287 287 286 284 284 289 290 286 287 285 282 283 283 287 292 298 301 300 297 287 290 290 291 292 291 292 293 290 291 287 289 290 294 297 298 299 301 299 300 299
285 287 291 289 290 287 287 284 284 285 287 286 285 288 287 284 285 283 286 286 289 296 294 297 287 289 285 292 290 288 291 292 293 292 290 291 290 297 300 299 299 300 300 300 300
293 294 292 290 288 286 285 286 286 288 289 289 288 286 285 287 289 290 290 291 292 292 291 291 288 286 281 286 288 282 288 291 293 294 294 290 294 298 298 299 299 301 301 301 301

GFSSW_sfc_thetae_048.txt.gz
Theta_e
316 315 315 315 314 313 313 313 312 313 313 313 314 314 315 314 314 310 301 307 313 323 319 305 302 300 298 296 295 293 287 284 286 287 291 301 301 305 309 308 313 315 316 318 323
314 314 314 314 315 314 314 314 313 312 313 313 313 314 315 315 309 305 313 323 325 325 304 301 299 299 295 294 294 291 287 288 292 292 294 298 303 306 307 306 309 309 319 321 323
312 313 313 313 313 315 315 314 313 313 314 314 314 314 314 314 303 297 324 324 325 321 304 302 304 300 294 293 293 290 289 293 295 296 295 296 303 308 303 300 305 307 313 319 320
312 312 312 312 312 312 313 313 314 314 314 314 313 314 314 310 287 305 325 327 328 312 303 302 301 296 292 292 294 290 294 294 296 296 296 302 306 303 302 304 307 310 315 317 317
312 312 312 312 311 312 313 312 313 313 313 313 312 313 308 300 299 309 324 325 314 305 301 301 298 295 291 292 294 292 295 298 298 298 298 308 306 307 307 308 312 315 316 314 316
311 312 312 311 311 311 312 312 311 312 312 312 313 312 304 292 303 308 307 311 305 302 301 301 300 299 295 294 294 297 297 297 297 297 308 306 306 306 309 312 311 314 315 313 315
313 312 311 311 312 312 312 311 311 310 311 311 312 308 300 296 305 306 307 304 304 302 299 302 302 298 298 295 299 298 294 295 295 295 303 307 299 303 310 311 310 311 314 315 316
313 313 312 311 311 312 311 311 310 310 311 311 312 306 296 309 307 308 305 305 307 305 304 304 302 300 297 299 296 293 292 287 292 298 300 301 292 297 310 310 308 311 312 313 314
313 312 312 312 311 311 311 310 310 310 311 312 305 302 295 311 306 309 308 302 303 306 305 308 302 297 296 291 288 288 284 286 290 295 297 295 294 299 309 311 308 308 310 310 311
312 312 312 312 311 310 310 309 308 309 308 308 308 295 298 295 304 307 308 306 301 303 302 300 297 291 290 289 283 285 285 285 287 290 296 294 295 298 309 309 309 306 306 308 309
311 311 311 311 311 310 306 300 294 294 297 297 298 297 301 309 311 306 306 303 300 300 294 296 291 288 289 291 290 289 287 286 288 292 292 291 292 296 305 308 306 306 305 306 307
311 311 311 311 311 310 302 296 298 298 291 298 298 298 301 305 299 299 306 297 296 292 295 291 290 293 295 293 292 290 287 287 291 294 292 290 293 295 301 305 308 307 305 305 307
310 311 311 310 310 302 297 300 304 302 292 294 298 297 298 299 295 297 303 298 294 292 294 291 292 296 294 292 290 289 287 288 289 291 292 292 291 294 299 302 308 308 307 306 306
309 310 310 309 300 298 295 303 303 303 285 286 293 296 299 300 294 302 304 299 295 292 294 293 297 294 292 291 292 287 293 292 291 288 284 291 283 290 293 298 302 306 307 306 305
309 310 309 309 297 295 298 303 302 302 270 287 293 300 301 293 292 297 303 298 293 294 295 291 293 293 291 292 294 291 294 292 292 288 285 287 284 288 296 295 298 301 306 308 307
309 309 309 304 303 300 301 300 301 284 273 283 292 293 294 294 293 297 296 299 298 295 295 294 297 295 295 296 296 297 293 292 290 287 281 287 285 285 289 295 297 301 303 306 308
308 308 306 304 297 298 298 298 284 277 288 284 286 291 291 290 290 292 290 290 289 286 286 291 294 297 297 293 294 293 288 282 280 280 280 288 284 288 293 295 299 299 301 304 308
307 307 305 306 301 300 296 289 278 284 284 289 289 289 288 291 289 292 288 285 291 290 287 285 282 293 297 295 292 290 289 282 279 278 281 288 284 290 297 298 299 301 302 303 304
306 299 299 303 302 301 290 279 280 284 288 286 287 284 285 288 291 290 289 287 290 293 288 285 286 294 296 297 297 291 286 292 285 284 281 284 288 294 297 297 298 299 300 301 303
297 298 297 304 304 298 286 280 285 290 290 288 282 285 282 284 286 287 289 293 291 293 294 290 285 293 295 296 295 293 294 286 284 280 279 282 284 286 291 295 297 296 298 301 303
297 291 301 304 303 292 281 282 285 289 290 287 285 284 284 283 285 284 286 294 297 296 293 291 288 288 293 290 289 289 288 288 288 284 280 278 282 292 294 295 296 298 298 298 303
294 285 301 303 288 287 283 285 290 288 292 289 289 287 285 286 284 284 285 292 300 299 292 295 288 282 287 293 294 291 289 290 283 283 284 280 284 295 296 296 297 298 300 300 302
289 290 301 300 283 283 287 286 286 287 288 288 287 288 289 285 281 286 290 297 297 298 295 296 290 282 284 289 293 290 290 292 289 286 282 279 283 297 296 296 298 297 299 299 298
288 282 291 294 292 287 285 284 283 288 287 288 288 289 286 285 287 284 286 292 298 299 301 299 292 287 283 287 290 287 289 291 290 282 282 285 286 292 295 296 297 298 298 299 298
288 284 290 284 285 287 287 286 283 283 288 288 285 286 285 281 282 282 287 289 292 299 297 295 286 289 292 292 291 290 288 289 287 288 284 287 288 291 294 296 298 299 299 298 299
285 286 289 289 289 287 287 284 284 285 286 285 284 287 286 283 284 282 285 285 285 290 292 294 284 288 285 291 290 287 289 289 290 290 289 290 289 294 298 297 296 298 299 299 299
293 294 291 287 288 285 285 286 285 288 288 288 287 285 284 286 288 289 288 289 288 286 287 289 287 284 280 286 286 281 285 289 289 290 290 286 291 296 296 297 297 298 299 299 300

GFSSW_sfc_thetae_051.txt.gz
Theta_e
314 314 314 314 315 316 315 315 314 314 313 313 313 313 314 315 314 310 304 308 314 323 319 307 307 306 305 303 302 301 297 293 294 294 297 303 305 310 314 312 315 317 318 320 323
312 312 313 313 314 314 315 314 314 315 314 314 314 314 314 314 309 305 313 320 323 325 306 305 301 303 301 301 301 300 295 295 298 298 299 301 305 307 310 309 310 314 319 322 323
312 312 312 312 312 313 314 313 313 312 313 314 314 314 314 313 302 299 326 325 325 324 308 307 305 305 301 300 300 298 296 298 299 300 300 299 303 311 309 306 309 312 315 320 321
311 312 312 312 312 312 313 313 312 311 311 312 313 313 313 311 288 305 325 327 327 320 307 307 305 302 299 298 300 296 298 299 300 301 301 299 309 308 309 309 311 314 318 320 319
311 311 311 311 311 312 313 312 312 311 310 311 312 313 308 299 296 308 317 322 319 309 305 304 303 300 297 298 298 296 298 299 302 301 301 309 308 309 309 313 316 318 318 316 318
312 312 312 312 311 312 312 312 312 311 311 310 311 312 304 292 304 309 308 308 310 306 304 304 303 303 299 298 298 301 299 301 302 302 309 306 308 313 312 316 315 317 315 316 316
313 313 313 313 313 313 312 312 311 311 311 310 310 309 299 295 306 307 308 306 307 305 303 305 306 303 302 299 302 301 298 300 300 301 305 311 305 307 314 315 314 315 314 315 316
312 312 312 312 312 312 312 311 311 311 311 311 310 306 295 307 310 308 308 306 307 307 306 307 307 304 302 303 300 298 297 294 298 302 304 307 297 303 314 314 313 314 314 314 315
311 312 311 311 311 311 311 311 310 310 312 311 306 301 292 310 306 310 308 303 304 306 307 308 305 301 301 297 295 294 291 291 294 300 303 303 299 303 314 313 312 313 313 313 313
310 311 311 311 311 310 310 310 309 309 309 308 306 295 299 294 305 308 309 308 302 303 302 303 300 297 295 295 288 290 290 291 292 298 301 299 300 303 312 313 312 313 313 312 312
309 310 311 311 311 310 307 301 297 296 298 296 297 296 299 306 310 308 309 305 303 301 297 300 295 291 294 297 295 294 291 291 293 297 296 296 297 300 304 311 312 313 313 313 312
309 310 310 311 311 309 303 298 297 297 290 298 298 297 301 304 296 302 307 299 298 294 298 295 292 297 297 296 295 294 292 292 294 296 296 297 297 301 303 309 311 313 313 313 313
308 309 310 310 309 301 299 299 303 302 292 294 298 296 297 299 295 296 303 300 296 293 295 294 295 298 296 294 292 293 292 292 292 294 297 297 296 298 302 305 309 313 315 315 313
308 309 309 309 300 299 296 303 304 302 286 287 293 296 298 299 293 300 303 301 297 293 295 295 298 295 294 293 294 290 295 294 293 292 288 297 288 296 299 300 304 308 312 314 313
307 308 308 309 301 298 300 304 303 301 273 287 292 301 300 294 293 297 302 299 295 294 296 293 294 294 292 294 296 293 296 295 294 292 291 292 290 294 297 298 302 306 308 313 314
306 307 308 304 304 303 303 301 301 285 274 285 293 293 292 295 294 298 298 301 300 296 297 295 299 298 297 297 297 298 296 295 294 292 286 291 291 292 296 299 302 305 307 310 314
305 306 305 306 298 301 302 297 284 277 289 285 287 290 290 290 292 293 292 292 290 287 289 294 295 298 299 295 297 296 293 286 285 285 285 291 289 294 299 300 302 305 306 308 313
305 306 303 305 304 304 298 289 277 283 285 290 289 289 287 290 291 291 289 288 293 292 289 287 285 295 299 296 293 293 293 287 281 283 286 290 287 293 301 303 303 304 306 307 310
304 299 299 302 305 302 292 279 281 284 288 287 288 285 285 288 289 290 289 288 290 294 289 287 287 296 298 299 299 293 290 295 289 288 287 289 292 298 301 302 303 304 305 307 308
297 295 295 302 305 299 287 281 284 290 290 288 283 285 282 285 285 286 289 296 294 295 296 292 287 294 296 298 298 296 297 289 289 282 281 286 288 291 296 299 303 303 305 306 307
295 289 298 303 303 292 282 283 285 289 289 286 285 284 285 285 285 285 287 293 296 298 295 294 291 290 295 293 292 293 292 292 292 289 284 283 287 298 299 301 302 303 305 307 308
294 283 300 303 287 288 284 286 289 287 291 289 289 287 286 286 284 285 286 292 295 300 294 297 290 286 289 295 296 294 293 293 288 286 287 286 288 299 300 302 302 304 306 306 307
289 288 300 299 281 283 288 287 287 287 288 288 287 289 290 286 282 286 289 295 295 299 296 298 291 285 287 291 295 292 294 293 292 289 286 285 287 299 300 301 303 303 306 306 306
289 282 289 292 291 286 285 284 284 288 287 289 287 289 287 285 288 285 287 292 294 297 300 300 293 288 284 287 292 289 291 292 291 287 287 288 290 295 298 299 301 303 305 306 306
289 284 289 283 284 286 287 287 283 283 288 289 286 287 286 283 284 284 287 288 291 295 298 296 288 291 291 292 292 291 290 290 289 290 286 290 291 295 298 300 302 304 304 304 305
285 286 289 287 288 286 286 285 284 285 287 285 284 287 287 284 285 284 286 287 286 290 293 293 287 290 287 292 291 288 290 290 290 291 291 292 291 299 301 301 300 301 303 303 304
293 293 290 286 285 284 284 286 286 288 289 289 288 286 285 287 291 291 292 291 290 287 286 287 289 286 282 287 287 283 288 289 290 292 292 288 293 298 298 299 302 302 303 303 305

GFSSW_sfc_thetae_054.txt.gz
Theta_e
312 313 313 313 313 313 314 314 314 313 313 314 315 316 316 315 314 311 306 310 315 322 321 319 314 312 313 310 311 310 300 298 299 301 302 306 306 312 317 313 318 320 319 324 326
313 313 313 313 313 314 314 313 313 312 312 313 314 315 315 315 311 304 317 320 322 324 315 312 309 309 307 308 308 305 301 300 304 305 304 307 306 308 310 310 314 317 323 325 324
312 312 312 312 312 313 314 313 313 312 312 313 313 314 314 314 304 303 324 326 324 324 315 313 310 307 304 307 306 305 300 304 304 306 307 307 307 309 309 307 313 314 319 323 323
312 312 312 312 312 312 313 313 312 312 312 312 312 312 314 312 290 309 323 328 325 321 311 310 307 303 301 301 306 300 304 304 305 306 307 306 309 309 311 312 316 318 320 322 321
312 312 313 313 313 313 313 313 313 312 312 311 312 312 310 300 296 307 319 321 321 316 309 309 305 303 300 303 305 302 304 305 306 306 307 308 308 309 311 316 318 320 321 321 322
313 313 313 312 312 312 313 313 312 312 312 312 312 311 304 294 304 309 311 311 312 314 313 309 306 307 304 303 303 305 305 305 306 307 307 306 307 313 311 319 319 320 319 321 319
313 313 312 312 312 312 312 312 312 312 312 312 311 309 301 297 305 308 308 306 311 312 308 312 311 306 306 303 306 305 301 304 305 306 305 309 304 309 313 319 318 319 319 319 321
311 311 312 312 312 312 312 311 312 312 312 312 312 307 295 306 309 307 309 306 306 311 310 310 311 307 306 307 304 301 302 298 304 305 306 309 299 306 314 317 316 318 318 318 319
310 311 311 311 311 311 311 311 311 310 312 311 308 304 294 309 305 308 308 302 304 306 310 310 309 305 305 301 298 300 295 297 300 304 304 307 301 307 314 315 314 317 318 318 319
309 310 311 311 311 310 310 310 310 309 311 310 308 298 300 294 304 309 311 309 304 302 306 306 304 300 300 298 292 295 295 298 297 301 303 303 303 306 310 313 314 316 318 318 318
308 309 310 311 311 310 308 308 302 301 300 296 298 297 299 307 310 308 311 308 306 302 298 304 298 295 298 300 300 299 297 296 299 301 300 300 301 305 308 311 313 316 318 318 318
307 308 309 309 310 309 308 301 298 299 290 299 300 300 302 304 298 304 310 303 302 296 299 300 295 301 302 301 298 297 295 296 299 300 299 299 300 305 307 310 314 315 317 318 319
306 308 308 309 309 307 305 303 306 305 292 296 300 299 300 301 295 297 306 302 300 298 296 296 297 302 300 298 296 297 295 296 296 298 301 300 298 302 306 310 312 315 317 319 320
306 307 308 308 305 306 303 307 309 306 289 290 294 298 300 299 293 300 302 303 298 295 296 296 299 298 298 297 298 294 299 298 297 295 291 300 291 300 304 305 308 311 316 318 320
306 306 308 308 306 302 305 309 308 304 278 290 294 304 301 295 295 297 304 299 294 297 297 295 294 296 296 297 299 296 300 298 298 296 295 295 293 297 302 301 304 307 312 318 320
304 305 307 306 307 305 308 309 305 289 278 287 294 293 294 296 295 298 297 300 299 297 300 298 301 299 299 300 300 300 298 298 298 296 289 294 294 294 299 302 304 307 310 315 318
304 304 305 306 301 308 308 302 288 281 291 287 289 293 292 291 294 294 293 290 290 286 290 296 295 300 301 296 300 299 295 289 288 288 287 296 294 296 302 305 306 307 309 313 318
303 304 305 304 308 309 302 293 280 284 287 293 291 292 289 292 292 293 292 288 294 291 288 287 286 295 300 298 296 296 296 290 283 286 289 296 291 297 305 307 309 309 310 312 316
303 303 302 305 308 307 293 283 284 286 290 289 290 287 287 291 291 292 292 291 292 295 287 287 288 298 300 301 299 296 293 298 292 293 291 294 297 302 305 305 307 308 310 311 314
299 296 298 306 310 303 288 283 286 292 292 291 285 288 284 288 288 290 291 296 295 296 299 294 288 296 298 301 302 299 301 292 293 285 284 290 293 295 299 302 305 306 308 310 313
297 292 301 307 307 294 283 285 289 293 293 289 287 287 287 287 288 287 289 294 296 300 299 296 294 293 297 296 295 296 295 296 296 294 287 286 292 302 302 304 305 307 308 311 313
296 285 303 307 289 289 284 288 291 290 293 291 291 289 288 289 287 287 286 293 297 299 295 296 294 290 292 297 300 300 297 297 291 290 293 292 293 304 303 304 305 307 308 311 313
290 289 303 303 282 283 288 288 291 290 290 290 289 291 292 289 285 288 290 296 296 297 296 299 293 286 289 293 297 296 297 297 296 295 291 289 293 302 304 303 306 307 309 310 312
292 284 290 295 292 288 286 287 286 292 291 292 290 292 290 288 291 287 288 292 295 295 298 300 295 290 286 289 295 292 294 295 295 291 292 292 294 298 301 301 304 306 309 310 311
290 286 290 283 286 287 288 287 286 285 291 292 289 289 288 285 288 287 290 291 293 295 299 298 289 292 292 292 292 292 293 293 292 293 290 293 293 297 299 300 304 307 307 308 309
285 286 291 289 290 287 287 285 286 287 288 287 287 290 290 287 289 287 289 290 289 293 293 296 289 291 288 291 292 290 292 293 293 293 293 294 294 301 302 303 302 303 304 306 308
293 295 290 287 287 286 286 287 286 290 291 292 291 289 288 290 294 295 294 294 294 291 290 291 292 288 284 290 289 285 290 292 294 296 294 290 295 299 298 299 301 302 305 306 308

GFSSW_sfc_thetae_057.txt.gz
Theta_e
313 313 313 313 313 313 314 313 313 313 313 313 313 313 313 315 314 312 306 312 315 321 322 319 320 317 314 311 313 313 302 300 302 302 304 309 306 312 315 312 315 319 319 324 329
312 312 313 313 313 314 314 313 313 313 312 313 313 313 314 314 311 307 319 327 325 322 314 315 314 313 308 308 310 306 301 302 307 307 306 307 308 309 309 310 312 315 321 327 327
312 313 313 313 313 314 314 314 313 313 313 313 313 313 313 312 306 307 322 328 327 324 316 316 316 312 306 308 308 307 301 307 307 307 309 308 308 311 308 307 312 313 316 324 325
312 313 313 313 313 314 314 313 314 313 313 313 313 313 313 311 294 309 321 326 324 318 316 313 312 307 304 303 308 303 306 307 307 308 307 307 310 308 310 311 317 318 320 322 322
313 313 313 313 312 313 313 313 314 313 313 313 313 312 309 303 305 312 319 318 321 318 314 310 308 307 302 304 306 304 305 307 308 307 308 309 307 308 309 314 319 319 321 321 320
313 313 312 312 312 312 313 312 312 313 313 312 312 311 306 297 311 310 310 306 309 316 313 312 310 310 305 304 304 306 307 306 308 307 308 306 307 308 311 315 317 319 321 321 321
311 312 312 311 312 312 312 312 312 312 313 312 312 311 303 301 310 311 311 308 307 305 307 315 314 307 307 304 308 307 303 305 306 307 306 308 303 305 311 314 316 319 321 321 322
310 311 311 311 312 312 312 312 311 312 312 312 312 311 300 308 311 309 309 307 311 306 308 312 313 310 306 308 306 303 303 298 305 306 307 306 299 307 313 314 314 317 320 321 321
309 310 310 311 311 311 311 311 311 312 312 311 311 307 299 308 303 306 307 306 308 307 305 310 309 305 307 301 300 302 296 298 302 308 306 305 302 307 314 313 312 315 319 320 321
308 309 310 310 310 310 310 310 312 310 312 313 310 302 304 298 305 309 312 307 307 305 301 301 303 300 301 300 293 297 298 300 300 305 304 302 303 307 311 312 312 315 318 320 320
307 308 309 310 310 310 310 311 305 305 305 299 300 301 302 307 309 307 312 309 308 303 295 300 296 294 298 302 302 301 301 300 303 305 302 302 302 306 309 310 310 314 316 319 320
306 307 308 309 309 309 310 304 302 303 295 302 302 301 304 305 297 302 312 303 303 297 298 295 294 298 300 302 300 299 299 299 302 303 301 301 301 305 307 309 310 313 316 318 320
305 306 307 308 309 309 307 305 310 308 296 299 302 300 301 303 297 298 305 302 301 296 297 295 297 301 299 300 299 299 298 298 298 302 303 300 298 302 306 309 310 313 315 317 320
305 306 307 307 304 308 303 310 311 309 291 293 296 301 303 301 295 303 304 304 298 296 297 297 300 299 299 298 301 296 302 300 299 298 294 302 291 300 304 306 308 310 312 315 318
305 305 306 306 304 301 307 312 312 305 282 292 297 306 303 297 298 298 303 299 297 295 298 296 297 296 295 299 302 298 303 301 299 298 297 297 294 299 304 303 306 309 311 315 318
304 304 305 305 306 308 311 312 308 290 282 289 295 295 295 298 297 298 299 301 299 297 297 298 303 301 297 300 302 303 300 300 300 298 291 296 295 296 300 303 306 309 310 313 317
303 304 303 305 299 309 311 306 290 284 292 290 291 294 294 294 295 296 294 293 289 286 289 294 296 301 301 296 301 300 297 290 289 290 288 298 295 297 304 306 307 307 309 313 316
303 303 303 304 307 309 307 295 283 287 288 294 293 293 290 294 295 295 294 291 293 293 291 288 287 296 301 297 295 297 297 291 284 287 291 298 292 297 306 308 309 310 311 312 315
302 301 301 305 308 307 297 286 286 288 291 290 291 288 289 293 293 294 294 293 294 293 288 288 289 298 300 301 299 297 294 299 293 295 292 295 299 304 306 306 307 308 309 311 314
297 296 299 307 309 304 290 285 289 293 293 292 285 289 287 289 291 292 293 297 295 297 298 294 287 295 298 301 301 298 301 292 294 286 284 292 295 296 301 303 306 307 309 310 313
297 290 302 307 307 295 285 287 290 294 295 290 289 289 289 289 290 290 291 296 298 297 299 296 294 292 296 295 294 295 294 297 297 294 288 287 292 304 303 304 305 308 310 312 313
295 285 305 308 289 290 286 290 293 292 295 293 293 292 290 290 289 289 289 292 299 298 296 297 294 290 293 298 301 299 297 297 292 291 294 294 293 306 306 305 306 307 309 311 313
290 290 302 304 285 287 290 289 291 291 292 292 290 293 294 291 287 290 292 297 297 295 294 298 292 287 290 295 299 296 298 299 299 298 291 291 293 305 306 304 305 306 309 311 312
292 286 291 297 295 289 287 287 287 293 293 293 292 294 292 290 292 289 291 294 296 295 298 299 295 290 286 291 296 294 296 298 297 292 293 294 296 301 302 303 304 306 309 310 311
291 287 291 285 288 289 290 289 286 287 292 293 290 291 290 287 289 288 292 293 295 295 295 296 291 294 294 295 295 295 296 296 295 296 292 295 296 300 302 303 304 305 305 305 308
288 287 292 290 291 288 289 286 287 289 290 288 289 291 292 289 290 289 291 292 292 294 293 297 289 292 291 293 293 292 295 296 296 295 295 296 295 302 304 305 303 303 303 303 305
295 296 292 288 288 288 288 287 288 290 292 294 292 291 290 292 295 296 296 295 295 293 292 292 290 288 284 291 291 287 292 294 295 297 297 293 298 301 300 300 301 303 305 305 308

GFSSW_sfc_thetae_060.txt.gz
Theta_e
312 313 313 313 314 314 314 314 314 313 313 314 314 314 314 315 313 310 304 311 314 320 318 313 315 315 315 310 310 310 300 298 300 301 304 309 307 311 312 311 312 316 316 324 330
312 313 313 313 314 315 315 315 315 314 314 314 315 315 315 314 308 306 319 328 328 324 309 306 311 313 309 308 308 304 300 300 305 306 305 308 307 308 307 309 310 312 319 327 328
312 313 313 313 314 314 314 314 314 314 314 315 315 315 314 313 305 306 321 325 326 327 316 308 312 312 308 308 306 304 300 304 306 308 308 307 307 310 307 305 309 313 314 326 326
311 312 313 313 313 313 314 313 314 314 314 314 313 314 314 309 295 310 320 322 324 321 314 307 308 306 305 303 306 301 305 305 306 308 307 305 308 306 308 309 313 316 318 319 322
312 312 312 312 312 312 313 313 313 313 313 312 313 313 309 300 301 313 318 319 320 317 311 308 307 306 302 305 305 302 303 306 307 307 307 307 305 306 307 311 314 318 319 319 321
311 311 311 311 311 311 312 312 312 313 313 312 312 312 305 295 310 313 311 309 307 314 313 311 307 308 305 304 302 304 304 304 306 306 307 304 304 306 308 311 312 316 318 320 321
310 310 310 310 310 311 312 312 311 312 312 312 312 310 303 299 310 310 310 310 311 305 301 304 309 309 308 303 306 304 300 303 305 306 304 307 301 303 309 310 310 314 317 320 321
309 309 310 310 310 311 311 311 311 312 312 313 313 309 299 309 311 308 309 307 309 311 306 305 306 307 306 307 303 300 301 296 303 305 306 305 298 305 310 310 309 313 316 319 320
308 308 309 309 310 310 310 310 310 312 313 313 310 307 299 311 304 307 306 306 308 311 309 306 303 302 303 299 296 298 293 296 299 305 305 303 299 305 310 311 311 312 315 318 319
307 307 308 309 309 309 308 309 311 313 311 313 311 301 305 300 306 308 311 307 306 307 304 302 298 295 298 296 288 292 295 297 298 303 305 302 301 305 309 310 311 311 312 317 319
306 306 307 308 309 308 307 307 303 303 305 301 300 302 303 306 309 305 312 306 308 304 297 298 291 289 295 298 298 298 297 297 302 306 303 302 301 303 307 308 309 311 312 314 318
305 305 306 307 308 308 307 303 303 304 294 301 302 302 304 305 298 302 311 303 301 296 299 297 290 294 297 299 298 297 296 297 301 304 302 301 300 303 305 307 308 309 312 314 317
304 305 306 307 307 307 307 304 310 308 295 298 302 301 302 304 298 298 302 304 299 296 297 294 295 298 296 295 294 296 296 297 297 301 303 300 297 300 304 307 308 311 312 315 316
304 305 306 306 302 305 302 309 311 308 289 296 298 302 304 302 296 303 304 301 297 295 297 296 300 297 296 294 296 293 300 299 298 297 292 301 290 299 302 303 306 309 311 313 315
304 304 305 305 300 299 306 309 310 304 281 294 298 307 304 298 299 298 303 299 294 295 296 294 296 296 295 296 299 296 302 300 299 297 296 296 293 297 303 301 304 308 310 312 314
304 303 304 301 303 306 308 309 306 288 281 290 297 296 296 299 299 299 299 300 298 293 297 296 301 299 298 299 300 301 300 299 299 297 289 294 293 294 298 302 305 308 310 312 314
303 303 301 302 296 305 308 303 288 283 293 290 292 294 294 293 296 296 295 293 288 285 286 292 293 297 301 297 299 297 294 288 286 287 287 296 293 296 302 305 307 307 309 313 315
304 304 302 301 303 307 302 292 281 288 290 295 293 293 290 294 296 295 294 291 294 292 289 287 284 292 299 297 294 294 294 289 282 285 288 297 291 296 305 307 309 309 312 314 314
303 300 300 303 306 306 293 283 284 289 292 291 292 287 288 292 293 294 293 293 295 293 287 287 288 297 299 300 298 294 290 297 292 293 289 294 298 302 306 305 306 307 309 311 312
298 296 296 306 310 301 289 283 288 293 293 293 286 288 287 290 290 291 293 297 296 297 297 292 286 294 297 300 300 297 299 290 291 283 283 291 294 294 301 303 305 306 308 311 313
296 289 299 308 306 294 282 285 290 294 294 291 289 287 289 289 290 290 291 296 298 297 299 295 291 290 295 293 293 294 293 295 294 292 287 286 291 302 302 304 306 308 310 311 312
293 285 302 305 290 290 284 289 292 293 295 292 293 291 290 291 289 289 290 293 298 298 294 298 293 287 291 298 299 296 295 294 289 289 292 292 292 306 306 305 306 306 309 311 313
289 290 301 303 284 285 289 289 291 291 291 291 290 292 292 289 286 290 291 297 297 295 293 295 291 286 288 294 298 293 295 296 296 295 289 289 291 306 305 305 306 305 307 309 311
289 284 291 296 293 288 287 287 287 292 290 292 291 293 290 289 291 289 290 295 296 295 298 296 293 289 285 289 293 290 295 296 296 289 291 291 295 299 302 303 304 305 305 305 307
289 286 290 285 287 288 289 289 287 286 292 292 290 290 289 286 288 288 291 292 295 296 296 295 289 292 293 295 294 294 294 295 294 294 290 294 295 299 301 303 304 305 304 303 305
285 287 290 287 290 288 288 286 286 288 289 289 288 290 291 287 289 287 290 292 291 295 293 296 287 290 289 294 294 291 295 295 295 296 295 296 294 303 304 304 303 303 303 304 306
292 294 290 286 287 286 286 287 287 290 291 293 292 291 289 291 294 296 296 296 295 293 292 291 289 287 285 291 291 287 291 294 294 296 296 291 297 301 300 300 301 303 304 306 307

GFSSW_sfc_thetae_063.txt.gz
Theta_e
312 313 313 313 313 314 314 314 315 314 314 314 314 314 315 315 314 307 300 307 313 321 318 308 307 310 309 306 306 302 293 290 292 295 298 305 302 304 306 306 310 312 309 325 329
312 313 313 313 314 314 314 314 314 313 313 313 314 314 315 314 307 302 311 323 324 323 308 303 300 307 301 301 301 298 290 293 299 301 300 302 304 304 303 306 306 307 323 326 325
311 312 312 313 313 313 313 314 313 313 313 313 313 314 314 312 301 302 320 323 323 325 317 310 304 303 302 302 301 298 294 298 301 303 303 302 301 304 300 301 306 309 319 322 321
311 312 312 312 312 312 313 313 312 312 312 312 313 313 313 307 290 301 318 321 325 320 317 309 303 296 298 299 303 296 300 301 302 304 303 301 301 300 301 304 311 311 321 321 320
311 311 311 311 311 311 311 312 312 312 312 312 313 312 306 297 298 307 321 319 319 314 308 305 300 299 297 301 302 299 300 302 303 303 303 304 300 301 299 305 310 316 316 315 318
310 310 310 310 310 310 310 311 311 312 311 312 312 312 301 291 305 306 306 306 305 303 307 307 304 305 301 301 300 302 301 301 302 302 303 302 299 299 303 305 305 313 314 315 315
309 309 309 308 309 309 310 310 310 311 311 312 313 308 299 296 305 305 305 302 306 306 298 301 301 298 302 300 304 302 297 299 299 300 300 302 297 296 302 304 303 310 314 314 316
309 308 308 308 308 309 310 310 309 310 311 312 313 306 296 308 307 306 304 302 304 306 305 305 302 297 300 303 302 297 295 290 298 301 302 299 294 299 302 302 301 303 313 315 316
308 307 308 308 308 308 309 309 309 310 312 313 307 303 297 312 305 306 304 299 304 305 305 309 301 295 298 294 293 294 287 291 295 302 301 297 296 300 303 304 302 305 309 313 314
307 306 307 307 307 307 307 307 309 311 311 310 308 300 304 301 304 305 305 305 301 304 304 300 296 289 292 291 284 288 290 291 293 299 299 297 297 301 302 304 305 304 304 312 313
306 305 306 306 307 307 304 300 297 297 299 296 299 300 301 304 304 301 307 304 305 302 295 297 288 284 288 294 295 295 293 292 294 301 301 299 297 299 301 300 303 303 304 308 313
305 305 305 305 306 306 302 298 301 300 292 300 300 299 302 302 297 299 303 300 300 294 298 295 288 293 294 294 295 295 292 291 296 301 300 298 296 297 299 298 301 304 304 305 313
305 304 304 305 305 303 300 300 308 304 291 294 300 299 300 302 297 296 298 301 297 294 296 292 294 298 295 292 290 293 291 292 293 298 299 297 292 295 300 301 302 303 307 308 313
306 305 305 305 299 296 296 305 307 306 287 291 296 299 302 301 295 301 301 296 297 292 296 295 298 295 295 294 294 288 295 295 295 293 288 295 284 293 298 299 301 301 302 308 313
305 305 305 303 294 293 300 303 306 302 275 296 296 306 303 296 297 296 300 296 291 295 296 293 295 295 293 294 298 294 298 296 296 294 291 292 286 290 297 296 299 299 303 304 313
305 304 305 298 296 297 301 302 302 286 276 289 296 295 295 297 297 298 296 297 296 292 296 295 300 298 297 299 299 300 296 296 295 293 286 291 288 287 293 297 300 303 304 305 307
305 304 300 299 290 298 298 297 284 278 293 289 291 294 292 291 294 294 292 288 284 281 284 290 293 297 299 294 297 297 292 284 284 283 282 293 290 291 297 301 302 303 303 305 306
304 304 300 298 297 297 296 289 278 286 289 294 293 292 289 291 293 293 290 287 289 287 285 284 284 292 296 293 293 294 291 285 280 280 285 293 287 291 301 304 304 304 304 306 307
303 296 294 297 299 296 291 279 280 285 290 290 290 287 287 289 291 292 291 289 293 291 284 286 287 296 296 298 297 293 289 294 288 289 286 289 293 298 300 301 301 301 304 306 308
292 291 293 298 300 294 287 280 284 290 291 290 285 288 284 288 288 288 291 296 295 297 293 290 284 293 295 298 298 295 297 287 288 281 280 287 289 290 297 299 301 300 301 304 306
290 286 293 298 298 290 279 281 285 290 291 288 287 287 287 287 289 287 291 296 297 296 296 294 289 288 293 292 291 293 291 292 292 289 282 282 288 299 297 300 300 302 304 303 304
291 279 295 300 285 287 281 285 290 288 292 290 290 290 287 288 287 288 288 292 296 295 292 294 291 284 287 294 297 296 293 293 287 286 289 287 289 303 302 301 301 302 303 304 307
287 284 294 297 281 280 285 286 287 286 288 288 288 290 290 287 283 288 289 296 296 293 291 291 288 283 286 291 296 292 294 294 294 293 288 285 288 304 304 303 302 299 300 303 307
287 280 285 288 287 285 284 284 284 290 288 290 288 290 288 286 288 286 289 295 296 296 297 294 290 287 283 287 292 289 293 294 292 287 288 290 293 298 301 301 303 299 300 304 305
287 281 285 281 281 284 285 285 284 285 290 290 286 287 286 284 286 286 289 290 294 297 295 293 286 290 290 291 293 291 291 293 291 292 289 293 294 298 300 301 303 300 303 305 306
282 281 285 283 285 285 285 283 283 285 287 286 286 288 288 285 287 285 289 290 290 294 293 293 285 288 286 292 292 291 292 294 294 295 295 295 294 303 303 304 303 302 304 304 304
291 290 286 283 283 280 282 284 285 288 289 290 290 288 287 290 292 292 293 293 292 290 290 290 287 285 282 288 289 284 290 293 293 295 295 290 297 302 301 301 301 301 302 303 303

GFSSW_sfc_thetae_066.txt.gz
Theta_e
312 312 312 312 313 313 313 313 313 313 313 313 313 313 314 314 313 306 298 305 310 319 321 308 307 308 307 303 303 299 290 286 289 292 295 301 299 303 305 309 309 309 315 321 328
311 312 312 312 313 313 312 312 312 312 312 313 313 313 314 314 305 301 310 317 321 323 306 301 299 301 299 300 301 296 290 292 296 297 296 299 299 300 302 304 305 316 323 326 326
311 311 311 311 311 311 312 312 311 311 312 312 312 313 313 311 297 300 317 320 324 324 311 308 303 298 299 299 297 295 295 297 297 300 298 299 300 302 300 299 304 313 319 322 322
311 311 310 310 310 310 311 311 310 311 311 312 312 313 312 305 283 300 320 323 322 320 316 310 304 294 292 296 300 294 299 299 300 302 300 299 301 299 299 302 307 318 321 320 318
310 310 310 309 309 309 309 310 310 310 310 311 312 312 304 296 295 305 317 312 315 314 309 305 300 295 292 295 298 298 300 302 302 302 301 301 299 300 299 302 309 319 320 318 318
310 309 309 308 308 308 308 309 310 310 310 310 311 312 299 288 303 305 303 304 304 307 302 305 300 298 298 298 296 300 301 301 302 302 300 298 298 297 300 302 309 317 315 318 317
309 309 308 308 307 307 308 309 309 309 309 310 311 308 298 294 304 303 305 302 301 304 300 300 299 295 296 297 302 300 295 298 299 298 297 298 295 295 302 301 301 309 311 313 316
308 308 307 307 307 307 308 308 308 309 310 310 311 305 295 306 305 305 303 302 302 301 303 303 301 296 295 300 299 296 294 289 297 298 299 296 291 300 302 299 299 303 310 312 313
307 307 307 307 307 307 307 307 307 310 312 312 306 301 296 312 305 307 305 300 300 303 303 307 301 293 294 291 289 292 286 289 294 299 298 296 294 300 302 300 299 298 308 311 312
307 306 306 306 306 306 306 306 307 310 310 310 308 299 302 300 303 302 301 301 299 302 302 299 294 287 287 288 283 287 288 289 290 294 297 295 296 301 302 298 300 298 303 311 312
306 305 305 306 306 306 303 299 298 296 299 295 299 300 302 305 304 300 301 301 304 300 293 295 288 286 285 289 293 293 291 289 293 297 295 295 296 299 302 298 297 300 303 310 312
306 305 305 305 306 305 301 297 300 301 291 299 299 298 302 302 295 299 301 297 298 292 296 293 287 292 292 292 291 292 291 290 294 297 296 295 294 298 300 299 300 302 301 309 310
305 305 305 306 305 300 294 297 303 302 290 293 297 297 297 299 294 295 297 299 296 294 294 290 294 298 294 292 290 289 288 291 291 295 297 295 292 295 298 299 299 302 304 306 311
306 306 305 305 296 295 294 300 300 302 285 289 294 298 300 300 294 300 299 299 296 292 295 293 298 296 294 292 293 289 293 292 292 291 285 296 284 293 296 297 299 299 300 302 311
306 305 305 304 295 292 297 298 299 299 273 293 296 304 301 295 295 295 299 294 289 294 294 290 293 294 291 293 296 292 299 295 294 289 287 291 286 291 294 294 297 298 298 303 312
304 305 304 297 293 296 297 297 298 284 274 289 296 294 294 295 295 294 294 296 294 291 294 292 299 297 295 298 298 299 296 295 293 290 282 290 288 287 290 295 298 300 299 303 311
303 304 301 299 289 295 295 294 280 276 289 288 290 294 292 292 293 292 290 287 284 281 281 286 291 296 300 294 297 296 291 284 283 281 281 292 289 291 296 298 300 301 301 302 312
303 303 300 299 295 294 292 286 275 283 285 292 290 290 288 290 291 291 288 284 287 284 282 280 280 290 298 294 292 292 291 284 279 280 283 292 285 290 299 302 302 302 301 303 311
302 293 292 294 296 293 288 273 278 282 288 286 287 285 285 289 289 290 288 288 288 287 282 282 285 292 296 297 295 290 288 294 286 288 283 288 292 298 299 299 300 300 302 305 311
291 288 289 296 295 295 284 277 282 287 288 287 281 287 282 285 286 286 288 294 294 295 291 287 283 291 294 297 297 294 297 287 289 281 279 286 288 290 295 297 299 299 299 304 311
288 283 291 297 297 289 278 278 283 287 287 286 284 283 285 285 286 287 290 294 295 295 296 292 287 286 292 290 290 291 290 290 291 289 282 281 288 299 298 298 299 301 303 304 305
286 277 292 298 283 285 280 283 288 286 289 287 289 287 286 286 285 285 287 291 294 294 290 292 289 284 287 293 296 295 292 292 286 285 288 286 287 302 302 301 299 302 303 305 306
287 282 290 292 279 278 283 284 286 285 285 285 287 288 288 285 282 287 289 295 294 293 289 289 286 281 284 289 293 291 293 294 294 291 287 284 288 303 304 303 303 301 303 305 306
287 277 281 285 285 283 282 282 283 289 287 287 287 288 286 285 288 284 287 294 295 294 297 293 287 285 282 287 291 289 292 293 292 286 286 286 292 298 300 300 302 300 303 305 304
286 279 282 279 282 283 284 283 281 281 288 288 286 286 284 282 284 283 288 290 294 297 294 290 282 288 289 290 290 291 291 291 290 290 287 290 292 298 301 299 302 303 303 303 302
283 276 283 281 285 282 282 281 281 284 285 284 284 286 287 285 286 283 288 288 289 292 290 291 283 286 285 289 289 287 292 292 291 293 292 293 293 302 303 303 302 303 302 301 301
291 287 284 280 279 278 280 282 282 284 287 288 287 285 285 288 291 291 291 292 291 288 287 288 286 282 280 287 286 283 289 292 293 296 295 290 296 301 299 300 300 300 300 299 299

GFSSW_sfc_thetae_069.txt.gz
Theta_e
311 312 312 311 312 312 312 311 311 311 311 312 312 313 313 314 313 305 297 303 307 318 321 307 306 307 304 301 301 296 288 283 288 290 292 298 296 299 301 303 307 308 317 320 326
311 311 312 311 311 311 311 311 310 310 310 311 312 312 313 313 305 300 306 316 318 322 307 301 298 302 298 298 299 295 287 289 294 295 294 295 296 298 299 300 301 312 321 325 327
311 311 311 311 310 310 309 309 309 309 310 310 311 311 312 311 296 292 317 320 320 321 307 306 301 297 296 296 297 294 293 295 296 298 297 295 297 298 296 297 301 307 317 322 323
311 311 310 310 310 309 309 309 308 308 309 310 310 311 313 304 282 298 321 321 321 318 312 310 303 294 289 293 298 292 296 298 298 299 297 296 298 297 296 300 303 304 320 321 320
309 310 309 309 309 308 308 309 308 308 308 309 310 311 304 293 292 301 314 309 307 315 310 306 299 295 289 291 296 295 297 299 301 300 298 299 297 298 298 302 301 313 321 319 319
308 309 309 308 308 307 307 308 308 308 308 308 310 310 299 289 299 303 303 302 301 308 305 304 301 298 294 294 294 297 298 299 301 301 300 298 298 295 300 299 302 317 317 317 317
308 308 308 307 307 306 307 308 308 308 308 309 310 307 299 295 302 303 304 301 300 300 298 299 299 294 294 293 299 298 293 296 297 295 296 298 292 291 299 298 303 314 316 315 316
308 308 307 307 307 307 307 307 307 309 310 311 311 306 296 306 305 304 302 301 303 301 300 302 301 296 292 296 297 294 293 288 295 296 297 296 290 296 300 299 297 308 312 315 315
307 307 307 307 307 306 306 306 308 310 313 311 306 301 294 311 305 307 305 300 300 301 301 306 300 294 291 288 288 289 285 287 291 297 296 294 291 297 300 299 297 298 306 310 314
307 306 307 307 306 306 305 307 308 309 310 310 307 298 301 299 304 304 301 303 298 302 300 298 292 287 285 286 282 285 286 285 288 294 294 291 292 298 300 300 299 298 299 308 311
306 306 306 307 306 306 303 300 298 296 299 294 297 298 300 304 304 300 301 302 304 299 291 295 288 284 285 287 290 291 289 287 289 297 292 291 292 295 299 297 296 296 295 306 310
306 306 306 305 306 305 298 296 295 296 290 299 298 298 301 303 295 298 301 295 297 290 295 292 286 291 292 290 288 287 287 288 293 297 293 291 291 295 298 298 298 299 296 300 309
305 305 305 305 305 296 292 296 299 297 289 292 296 295 297 299 293 293 297 296 295 292 293 288 292 297 293 290 288 288 285 288 289 293 293 291 289 292 298 297 298 298 299 303 309
305 305 306 305 294 293 292 297 297 297 284 287 293 297 298 298 291 298 298 299 295 291 293 292 296 295 293 291 291 285 292 293 289 287 282 290 281 290 295 296 296 298 298 300 308
304 304 305 303 292 288 295 296 297 298 273 289 296 304 300 294 295 294 298 293 292 292 293 288 292 292 290 292 295 290 297 295 293 288 285 287 283 288 292 293 295 297 298 299 308
304 303 304 296 292 292 294 295 296 282 273 287 295 293 293 294 294 293 293 294 293 289 293 291 297 295 293 296 296 297 295 294 293 288 280 286 286 286 291 294 296 299 300 298 305
303 303 300 298 288 293 293 290 279 275 286 286 287 291 292 291 292 291 289 287 283 280 280 285 288 294 298 292 296 295 290 282 281 279 279 289 287 289 296 298 298 299 301 299 304
302 302 299 297 294 293 290 285 273 280 283 289 288 288 287 291 290 290 286 283 286 283 280 279 278 289 296 292 290 291 291 284 277 279 281 290 284 290 300 301 302 302 302 302 301
300 291 291 292 294 292 286 276 275 280 286 284 286 284 284 288 287 289 286 284 286 286 280 280 282 290 296 296 295 291 287 293 286 288 282 286 291 297 299 298 300 298 299 299 304
289 287 287 293 294 291 283 276 279 286 285 284 280 285 281 283 284 284 286 291 292 289 289 286 281 289 292 295 296 293 296 286 288 280 278 285 289 289 294 294 299 299 299 303 307
286 282 288 293 294 287 276 277 282 286 287 284 283 283 284 283 284 284 288 293 294 294 291 290 287 284 291 289 289 291 290 289 290 288 281 280 287 298 298 298 297 299 301 302 305
284 274 288 295 282 281 276 281 286 285 288 285 286 285 284 285 283 285 285 291 295 294 291 292 290 283 287 292 295 294 292 291 285 284 287 286 287 302 301 299 299 300 302 304 307
284 281 289 288 270 279 281 283 285 283 283 284 284 286 288 284 280 286 287 295 294 291 288 289 286 281 282 287 293 291 293 293 292 291 286 283 286 302 302 300 300 300 301 303 304
286 274 279 283 283 280 278 281 280 287 286 287 285 286 284 283 287 284 286 292 295 293 297 293 287 283 279 284 290 287 289 293 292 286 286 286 292 297 298 299 299 301 301 302 303
286 279 280 269 280 281 282 282 281 281 286 287 284 284 284 282 283 282 287 290 293 296 292 288 282 286 287 288 288 289 288 291 290 290 287 288 290 296 298 300 300 303 301 301 300
282 278 281 280 283 281 281 280 280 280 282 283 283 285 286 283 285 283 287 287 287 291 289 290 282 284 282 288 286 284 288 291 292 292 292 292 291 301 301 301 301 302 300 299 299
290 289 282 279 279 278 278 280 281 283 284 286 285 284 283 285 289 290 290 290 289 287 287 287 284 282 279 284 283 280 287 288 292 293 292 289 294 301 300 299 301 299 299 298 296

GFSSW_sfc_thetae_072.txt.gz
Theta_e
311 312 312 311 311 311 311 310 310 310 310 310 311 311 312 312 312 304 297 300 306 314 319 305 304 305 303 299 300 294 286 282 285 288 290 296 293 297 298 298 299 306 314 318 325
310 311 311 311 310 310 310 310 309 309 309 309 310 311 311 313 304 299 306 312 316 320 305 300 296 302 297 297 298 294 286 286 291 292 292 293 294 296 297 297 299 301 316 324 325
309 311 311 310 309 310 309 309 308 308 308 309 309 311 311 310 294 290 317 317 319 320 306 305 299 298 293 295 296 294 290 292 294 296 295 293 295 297 294 295 298 299 304 320 322
308 309 310 309 309 309 308 309 307 308 308 308 309 310 312 302 282 299 317 317 317 316 309 307 300 292 289 290 295 291 295 296 295 298 296 295 296 296 296 299 301 302 302 318 320
308 309 309 309 308 308 308 308 307 307 307 308 309 310 305 294 292 299 311 308 312 313 308 305 299 294 288 289 291 292 295 297 298 298 297 298 295 297 295 300 300 300 303 315 320
308 308 308 308 307 307 306 307 308 307 307 308 309 309 300 288 301 302 303 302 301 307 306 305 300 298 293 292 290 294 295 296 298 298 299 298 298 295 299 299 298 301 308 315 319
308 307 308 307 307 306 306 307 307 308 308 310 310 306 300 294 304 304 304 302 300 301 297 299 300 293 292 289 295 296 292 294 295 295 296 298 292 292 299 297 297 299 310 315 318
308 307 307 307 306 307 307 307 307 309 311 312 311 305 296 307 306 304 303 302 303 302 300 301 300 296 292 293 294 292 291 287 293 294 296 295 290 296 298 296 295 296 307 315 316
307 307 307 307 307 307 306 307 308 310 311 311 304 301 293 310 305 307 305 300 300 299 299 303 299 294 292 287 285 288 284 287 290 295 294 292 290 293 297 298 296 296 300 311 315
307 306 306 307 307 306 306 306 307 309 309 309 306 296 300 298 304 304 302 303 298 301 299 298 293 288 286 286 279 282 285 284 285 290 291 290 290 294 296 296 297 296 295 305 311
305 305 305 305 306 306 301 298 292 292 294 292 293 297 297 303 304 300 301 300 303 299 290 294 288 285 286 286 288 288 286 286 287 293 292 291 290 293 295 295 294 296 294 298 307
305 305 305 305 305 303 297 294 292 292 285 295 295 296 300 301 294 299 300 294 296 290 295 291 287 291 292 290 287 286 283 283 288 293 292 290 289 293 295 295 296 297 297 297 302
304 304 305 304 303 295 292 293 296 294 288 292 294 294 296 298 292 293 296 295 295 290 292 287 290 296 293 290 288 287 285 285 285 290 292 289 288 292 295 296 297 297 298 297 301
304 304 305 305 293 292 291 295 295 294 282 285 292 295 297 297 290 298 298 297 295 290 292 291 295 294 292 291 290 284 291 289 288 286 280 288 280 288 291 294 296 297 297 297 301
303 304 304 301 290 288 292 295 295 295 269 286 294 302 298 293 294 294 298 296 292 292 293 288 291 291 290 291 293 289 294 293 292 287 284 285 284 286 291 291 294 297 298 298 304
303 303 303 295 290 291 293 293 294 277 270 283 293 292 292 293 293 292 292 295 294 291 293 291 295 294 292 294 295 295 293 293 291 287 280 285 284 283 287 292 296 298 299 300 299
302 303 300 297 287 292 291 290 275 271 283 283 285 288 287 290 291 289 288 286 283 280 280 284 286 292 296 289 293 292 290 281 279 279 279 287 283 287 292 295 298 298 299 300 301
302 301 296 296 292 292 288 281 270 278 280 287 285 286 284 288 289 289 285 283 285 283 280 278 278 287 294 290 287 289 289 280 277 277 280 288 281 287 297 298 301 301 301 299 299
299 289 288 290 292 290 283 269 273 278 283 281 282 282 282 285 285 286 285 283 285 286 281 279 281 288 294 294 292 289 287 293 286 287 282 284 288 295 300 298 299 300 301 301 300
288 285 286 292 292 288 277 275 278 283 284 283 277 283 279 283 282 282 284 289 288 287 288 285 280 287 292 295 295 292 295 286 286 279 277 284 287 288 293 294 297 298 299 302 308
285 281 287 292 291 281 269 276 280 284 285 281 281 280 282 281 283 282 284 291 293 292 288 287 285 284 291 288 287 289 288 289 289 286 282 281 285 297 295 296 296 298 301 304 308
282 272 287 292 277 278 272 280 285 283 285 283 284 283 281 283 282 283 284 287 295 294 290 292 289 282 285 291 293 293 290 290 285 284 287 286 286 301 300 299 300 300 301 303 303
281 281 288 286 266 272 281 282 284 282 283 282 282 284 285 282 279 284 286 291 293 293 290 290 286 281 282 286 292 289 292 292 290 288 285 282 285 302 302 300 301 299 300 299 299
281 274 278 282 280 276 275 278 279 286 284 285 284 285 283 281 285 282 284 289 293 293 297 292 286 282 279 281 288 285 288 290 288 285 284 285 290 296 298 298 300 299 298 297 296
284 278 280 269 277 280 280 280 278 280 285 285 283 284 282 279 281 281 285 287 291 294 291 287 282 285 285 286 287 287 287 288 287 288 285 288 290 294 297 299 300 299 299 296 293
282 279 282 280 281 278 279 279 279 280 280 279 280 282 283 281 282 282 285 286 286 291 290 290 282 283 282 286 284 283 283 285 287 291 290 290 290 298 302 302 301 299 297 295 293
290 289 282 280 279 276 277 279 279 281 283 285 284 282 281 284 287 287 290 290 289 288 286 286 283 281 279 282 282 278 283 284 287 293 292 286 292 299 299 299 299 298 296 294 292

GFSSW_sfc_thetae_075.txt.gz
Theta_e
310 311 311 311 311 310 310 310 310 309 309 309 310 310 311 312 312 306 299 303 306 316 316 311 309 309 308 305 304 300 293 290 291 292 295 300 299 302 304 303 304 307 311 321 328
309 310 311 311 310 309 309 309 309 309 309 309 309 310 310 312 305 300 307 312 314 317 308 304 302 306 303 302 303 299 293 293 295 297 296 299 299 301 301 301 303 304 315 326 329
309 309 310 310 309 309 309 308 308 308 308 308 309 309 310 311 296 294 319 316 316 318 309 305 304 304 299 301 301 299 293 296 297 299 299 299 300 302 300 299 303 303 306 316 326
309 309 309 309 309 309 308 308 307 307 307 308 309 310 310 304 285 302 315 315 318 316 311 306 300 296 294 294 299 294 298 299 299 301 300 299 302 301 301 302 307 307 308 307 313
308 308 308 308 308 308 307 308 307 307 307 308 309 309 306 295 295 301 309 308 317 313 308 306 299 296 293 293 294 294 296 298 300 301 301 302 300 300 301 305 307 306 306 306 307
308 308 308 308 308 307 307 308 308 307 308 309 309 308 301 290 302 303 304 305 305 311 308 307 303 302 297 295 294 296 297 297 299 299 300 299 300 301 302 306 304 305 305 307 311
308 308 308 308 307 307 306 308 307 308 309 311 310 306 299 296 306 306 306 305 303 307 304 306 305 297 297 293 297 297 293 297 298 298 298 302 297 298 304 306 304 304 305 306 311
307 307 307 307 307 307 307 307 307 308 312 312 311 304 295 308 308 305 305 304 305 304 302 303 303 299 296 297 295 293 294 289 297 298 299 299 291 299 303 302 302 304 304 304 309
306 306 306 307 307 307 307 307 307 310 311 311 304 301 293 310 304 308 307 301 302 302 302 303 301 297 294 290 288 290 286 289 292 299 298 296 294 300 301 301 301 303 304 305 308
305 305 305 305 306 306 306 305 307 310 309 309 305 296 299 298 305 305 305 304 299 300 300 300 297 292 289 289 282 285 286 289 289 296 296 295 294 298 301 301 302 303 304 305 305
305 305 304 305 305 305 300 297 292 292 293 291 293 296 295 300 305 302 303 301 304 300 291 296 290 287 289 290 291 289 288 287 290 294 293 292 294 297 300 300 301 302 303 304 305
304 304 304 305 304 302 298 291 290 291 285 293 293 294 297 299 293 298 302 295 298 292 296 293 288 293 293 291 289 289 287 287 290 292 292 291 292 297 299 300 301 303 304 304 305
304 304 304 304 301 295 293 291 296 294 286 290 295 294 296 298 293 293 297 295 295 291 293 289 291 296 293 293 290 290 288 289 288 292 294 291 289 292 297 301 301 302 304 305 304
303 303 304 302 294 293 292 295 296 295 283 284 292 296 297 297 291 299 299 297 296 290 293 292 295 294 293 292 293 287 293 291 290 288 284 292 283 291 295 297 300 302 304 305 306
303 303 303 300 293 289 292 295 296 295 272 286 294 303 298 293 295 294 299 297 292 293 294 289 293 293 291 291 295 290 295 293 293 290 289 289 286 290 295 294 298 301 303 305 306
302 303 303 296 293 293 294 294 295 279 272 282 292 290 289 294 294 294 295 297 297 294 295 293 297 296 294 296 296 297 293 293 293 290 283 288 287 288 291 294 298 302 304 306 307
302 302 299 298 289 294 293 291 277 273 283 282 284 286 286 287 291 291 290 288 286 283 283 286 288 295 297 291 295 293 289 283 281 281 281 290 287 290 295 298 301 302 304 306 307
301 299 295 296 294 293 291 282 272 277 279 285 284 284 285 287 288 289 287 286 288 286 283 281 281 288 295 291 288 290 289 284 277 279 283 289 284 290 300 302 303 304 305 307 309
298 291 290 292 295 292 284 273 274 279 282 281 282 282 283 286 286 286 287 285 288 288 284 281 282 290 294 295 293 290 287 293 287 287 283 287 291 298 300 300 302 303 305 308 310
289 287 288 293 294 289 279 276 278 283 283 283 277 283 280 279 282 283 284 291 290 289 290 287 282 289 294 297 296 293 295 286 287 278 278 285 288 290 294 297 299 301 302 306 311
287 283 291 293 292 283 273 276 280 284 285 281 280 279 279 277 281 281 284 290 291 293 290 289 287 286 293 291 289 290 289 289 288 287 281 281 286 296 296 298 298 299 299 300 304
285 276 289 292 280 279 277 280 284 283 285 282 284 282 281 281 282 283 283 288 292 292 290 293 289 283 286 292 296 294 291 291 284 283 287 286 286 300 299 298 298 297 298 299 300
282 282 289 288 273 276 281 282 283 282 283 282 282 284 285 281 278 282 286 291 293 290 289 292 287 282 284 289 293 289 292 292 290 288 284 283 287 301 300 298 297 295 295 295 297
281 274 281 285 281 279 276 278 279 286 284 285 283 285 283 281 284 281 284 289 292 291 294 293 287 284 280 283 288 286 288 290 289 282 283 286 290 296 295 297 296 295 294 293 293
282 277 281 275 280 280 280 280 278 278 284 285 283 282 280 279 281 281 284 287 290 291 291 290 283 286 287 288 288 286 286 287 285 288 284 288 288 293 297 298 299 297 294 292 291
282 280 283 281 281 280 279 278 278 280 280 279 280 282 281 280 281 280 283 285 286 290 289 291 284 286 283 287 285 283 285 286 287 287 289 291 290 298 300 303 299 296 294 291 290
289 288 284 280 280 278 278 279 278 281 283 284 283 280 280 283 287 288 289 288 288 287 286 286 285 284 279 284 283 279 284 285 287 291 292 288 293 300 299 300 298 296 294 291 290

GFSSW_sfc_thetae_078.txt.gz
Theta_e
310 310 311 312 311 310 310 310 310 309 309 310 310 310 311 311 312 310 303 307 309 316 315 316 314 312 310 307 309 309 299 297 299 298 300 304 303 307 309 306 308 310 311 316 324
309 309 310 310 310 310 310 309 309 309 309 309 309 310 310 311 308 303 312 311 312 315 309 308 305 309 307 306 306 302 298 299 304 303 301 304 304 305 304 305 306 308 312 320 323
309 309 309 309 309 309 309 308 308 308 308 308 309 309 311 311 301 298 318 315 315 316 311 308 306 306 303 306 305 303 298 303 302 303 304 302 303 305 303 302 305 306 309 312 314
308 309 309 309 309 309 308 308 308 308 308 309 309 310 310 308 290 306 313 314 318 315 310 307 305 301 299 298 303 299 302 303 304 304 303 302 305 303 304 305 308 309 310 311 312
308 309 308 309 309 308 308 307 308 307 308 309 310 310 308 300 299 305 308 311 314 312 309 306 302 301 297 298 299 298 299 301 302 303 302 303 301 302 303 307 309 309 309 310 312
309 308 308 308 308 308 307 307 307 307 308 309 310 310 304 293 306 306 306 306 308 310 308 310 305 306 301 300 298 300 300 301 302 302 303 300 301 303 304 309 308 309 309 310 312
307 307 308 307 307 306 306 307 308 307 309 311 312 309 302 299 308 309 308 306 307 308 305 309 310 304 302 298 302 299 296 299 301 302 301 303 299 300 306 309 307 308 309 310 312
306 306 306 306 306 306 306 307 307 308 311 312 312 307 300 308 312 310 310 308 310 308 307 308 309 304 301 302 298 295 296 292 299 301 303 302 295 302 306 306 306 308 309 309 311
305 305 305 305 306 306 306 306 307 311 312 312 308 305 298 310 307 311 311 305 306 308 306 305 304 301 299 294 292 293 288 291 294 301 300 300 297 303 306 305 305 307 308 309 311
305 305 305 305 306 306 306 305 307 312 311 311 306 298 303 300 307 308 310 307 303 302 301 300 299 295 294 291 285 289 290 292 291 296 297 297 298 303 305 305 305 307 309 309 310
305 304 305 305 304 305 305 305 300 299 298 294 295 298 298 302 306 304 306 304 303 300 294 297 292 289 290 293 294 292 289 289 292 295 294 294 296 300 303 305 305 307 308 308 310
304 304 304 304 303 302 303 296 294 295 290 295 296 296 299 301 294 298 306 299 300 295 297 295 290 294 295 294 292 291 289 289 293 296 296 296 296 300 301 302 304 306 307 309 310
303 303 304 304 300 302 297 295 299 299 291 293 297 298 299 300 296 297 300 300 297 294 295 292 293 297 295 293 291 292 291 292 292 296 298 297 295 298 302 303 304 306 308 309 310
302 303 304 303 297 299 296 298 300 301 290 288 296 299 300 300 296 301 301 299 296 292 294 293 296 294 294 293 295 289 295 294 293 292 289 296 287 296 299 300 302 304 307 309 310
302 303 303 301 299 296 296 301 302 299 278 290 297 305 300 297 299 297 302 297 292 293 294 290 293 294 291 292 296 291 296 294 294 293 293 293 290 295 298 297 300 304 307 310 312
302 302 302 300 301 298 301 301 302 286 276 286 294 291 291 295 296 298 297 300 300 295 296 294 298 297 296 298 297 297 294 293 294 293 286 292 291 294 296 298 301 305 307 309 312
302 301 300 301 295 301 301 300 284 279 286 284 286 288 287 290 293 295 294 293 291 287 288 291 292 297 298 293 296 295 289 283 284 283 284 292 290 294 299 303 304 305 309 312 314
301 298 298 300 301 302 300 288 277 280 282 287 286 287 285 289 289 291 292 291 294 292 288 286 284 290 296 294 289 291 290 285 279 282 286 293 288 295 303 305 307 308 311 314 316
297 300 301 301 303 302 291 282 280 282 283 283 285 283 284 288 287 289 290 290 292 294 287 287 286 293 296 296 295 292 289 295 288 290 285 289 294 300 303 304 306 307 308 309 314
297 297 296 301 303 297 288 280 282 285 285 284 279 283 281 284 283 286 287 294 293 295 296 291 285 292 295 298 297 296 298 287 289 281 281 288 290 292 298 300 304 304 304 304 307
296 291 297 301 301 292 282 280 282 285 286 282 281 280 281 281 282 283 285 292 294 295 297 293 290 289 295 292 291 292 291 292 290 290 284 284 288 296 295 298 299 301 300 300 302
294 287 297 299 288 289 283 283 285 284 287 285 285 283 281 282 281 282 282 287 295 295 291 294 291 286 289 295 297 296 293 293 287 285 289 287 290 300 298 296 297 296 296 298 299
290 288 298 296 282 283 284 283 285 284 285 284 283 285 286 283 279 283 284 290 294 293 289 291 289 284 286 291 295 292 294 292 289 289 286 284 289 298 299 296 296 295 294 294 295
290 283 290 292 290 284 280 280 281 287 286 286 285 287 284 283 286 282 284 289 293 292 292 291 289 288 283 284 291 289 291 293 291 286 287 286 289 294 297 296 297 294 293 292 292
290 285 287 281 284 284 284 282 280 277 285 286 284 281 281 279 282 283 285 286 290 292 292 288 286 288 288 287 289 288 288 289 289 289 286 287 289 294 298 299 299 297 293 291 289
286 288 289 286 284 283 282 281 279 281 282 281 281 284 284 280 282 281 284 286 285 290 289 288 286 289 286 287 289 287 289 288 289 290 290 291 291 299 303 304 298 296 293 291 289
291 292 290 283 283 283 282 281 280 283 284 286 285 284 283 284 288 289 290 289 289 286 286 285 285 286 281 287 286 282 287 288 289 291 293 289 294 301 300 299 297 295 294 291 287

GFSSW_sfc_thetae_081.txt.gz
Theta_e
309 309 309 310 310 310 310 310 310 309 309 309 310 310 311 311 312 311 306 310 312 317 316 316 315 311 311 309 313 312 302 299 301 302 304 308 306 310 311 308 309 311 312 315 323
308 309 309 309 309 309 309 309 309 309 309 309 309 310 311 311 309 306 314 314 311 314 306 308 308 311 307 306 308 305 301 301 306 307 305 307 307 307 307 306 307 308 312 315 321
308 309 309 309 309 309 309 309 309 309 309 309 309 311 311 311 305 303 317 314 314 315 314 308 309 307 305 307 306 304 299 304 305 307 307 306 306 308 306 304 308 308 310 313 315
308 309 309 309 309 309 309 308 308 308 308 309 310 311 311 310 293 310 314 314 319 314 313 308 305 301 301 300 306 301 305 305 306 307 306 304 306 305 306 307 310 311 311 312 312
309 309 309 309 309 309 308 308 308 308 308 309 310 311 310 302 302 311 312 312 315 314 309 308 303 302 299 301 302 300 302 304 305 305 304 305 303 304 305 309 311 311 311 311 311
308 308 308 309 308 307 307 307 307 308 308 309 310 310 307 297 308 309 307 309 311 312 309 309 306 307 302 302 301 302 302 302 303 303 303 301 302 304 305 308 308 309 310 312 312
306 307 307 306 306 306 307 307 307 308 309 310 312 311 305 301 310 310 308 306 308 309 307 309 311 306 305 301 305 303 298 300 301 302 301 303 299 301 307 308 308 308 310 312 313
305 306 305 306 306 306 306 307 307 308 311 313 313 311 300 310 312 309 311 308 309 308 307 309 309 307 304 304 300 297 297 293 300 302 303 303 295 303 308 307 307 309 310 311 312
305 305 305 305 305 306 306 307 307 312 312 312 311 308 300 309 307 312 312 306 307 309 307 307 305 302 302 296 293 294 289 293 295 302 301 301 298 304 308 307 306 308 310 311 311
305 305 305 305 306 306 306 305 308 311 312 312 309 302 306 302 307 310 312 310 305 305 302 301 300 297 297 295 288 289 291 294 294 298 299 298 298 301 304 306 306 308 308 310 311
304 304 304 305 305 305 304 307 305 304 304 298 298 299 299 303 305 304 308 306 306 302 295 299 294 292 294 296 295 294 292 291 294 297 295 294 296 298 301 303 304 307 308 310 311
304 304 304 305 304 304 306 301 297 298 293 299 299 300 303 304 297 301 306 301 300 296 299 297 292 297 297 296 294 292 291 290 294 297 297 297 297 301 302 302 304 305 307 310 312
303 303 304 304 303 303 300 298 302 302 296 296 301 301 302 303 299 299 302 301 298 296 297 294 297 298 296 295 292 292 291 291 292 297 299 296 295 298 302 304 305 307 308 309 311
302 303 303 303 299 302 300 301 303 305 293 292 298 301 303 303 299 304 304 300 297 294 296 296 299 296 294 293 294 290 296 295 294 293 288 298 288 296 299 301 304 306 307 308 311
302 302 303 303 302 299 299 303 306 303 282 292 298 306 301 298 300 301 304 299 294 295 294 292 294 294 293 293 296 293 297 296 295 291 291 292 290 294 300 299 303 306 307 308 311
302 302 302 303 303 302 304 304 304 292 280 289 296 293 292 296 297 300 300 302 301 297 297 295 300 297 296 298 298 298 295 295 294 291 285 291 291 292 298 300 303 307 309 310 311
301 301 300 302 299 304 305 302 290 282 289 287 289 291 290 290 292 295 295 295 293 290 291 295 295 299 299 294 297 296 292 284 283 285 284 294 291 294 300 304 305 306 309 313 315
300 299 299 302 305 306 302 294 281 284 285 290 288 289 286 290 291 292 291 290 295 294 290 287 286 294 298 295 293 293 291 284 279 281 285 294 289 295 305 307 308 310 311 312 315
299 301 302 303 306 304 295 286 285 286 287 286 287 285 286 288 289 289 290 290 293 295 289 288 287 296 297 298 297 293 289 294 288 290 285 288 293 302 305 304 306 307 310 310 311
299 298 299 304 305 300 291 284 285 287 287 286 281 284 283 286 285 287 287 293 293 297 298 292 286 294 297 298 298 295 298 288 290 281 281 288 290 292 297 300 303 303 303 305 305
298 294 299 304 304 295 287 285 285 287 287 284 282 283 283 283 284 283 284 290 295 295 298 297 291 290 294 293 292 294 292 293 292 290 283 283 288 298 296 298 298 299 301 299 298
297 290 299 302 293 293 288 286 285 286 289 287 287 285 283 284 284 284 283 286 293 295 290 295 293 287 289 296 298 296 294 293 287 286 290 289 289 298 299 298 297 299 297 296 296
293 292 299 300 287 287 286 285 287 286 287 286 285 287 288 285 281 284 286 290 291 290 289 289 289 284 286 291 296 293 294 295 294 292 287 285 288 298 300 301 300 297 296 294 293
294 288 292 295 293 287 285 284 284 289 287 288 287 288 286 285 287 284 285 289 291 292 293 292 286 286 283 286 291 290 292 295 293 287 287 289 291 296 300 300 301 298 296 292 290
295 289 292 286 288 287 287 285 283 282 287 288 284 284 281 281 283 284 286 288 290 291 291 291 284 286 289 291 291 289 289 292 291 291 287 289 290 294 299 302 301 298 295 291 289
288 291 291 289 288 286 283 283 282 284 284 284 281 285 286 283 284 283 286 287 285 290 289 290 283 287 283 291 291 287 291 291 291 290 290 291 291 300 303 305 301 296 294 290 289
296 296 293 286 287 285 285 284 283 285 286 287 286 285 284 287 290 291 291 290 290 287 286 286 285 283 279 290 288 282 288 290 290 292 292 289 295 301 299 301 298 294 292 290 288

GFSSW_sfc_thetae_084.txt.gz
Theta_e
310 310 310 311 311 311 311 311 310 310 310 310 310 311 311 312 312 309 303 311 313 319 313 307 314 311 307 306 311 312 300 297 298 299 302 308 306 310 311 308 309 310 310 315 324
310 310 310 310 310 310 310 310 310 310 310 310 310 311 311 312 308 305 316 318 317 313 305 302 306 308 303 303 303 303 300 299 304 305 304 306 307 307 307 306 307 308 313 315 319
310 310 310 310 310 310 310 310 310 309 309 309 309 311 312 312 304 306 318 315 314 313 305 304 306 308 303 305 303 301 298 303 304 306 306 305 305 308 305 304 308 308 310 313 315
309 309 310 310 310 310 310 310 309 309 309 309 310 311 312 309 294 310 321 318 316 309 308 308 303 301 299 299 304 299 302 303 303 306 305 303 306 304 305 306 310 310 312 312 312
309 310 310 310 310 309 309 309 308 308 308 309 310 311 309 302 303 313 319 315 315 311 308 307 302 300 296 298 300 299 301 303 305 304 305 305 302 302 303 308 310 310 311 310 311
309 309 308 309 308 307 307 307 308 308 308 309 310 310 305 295 309 311 308 308 309 310 308 307 305 305 301 300 299 301 301 301 302 302 303 300 301 302 303 306 306 307 308 309 311
308 307 307 306 307 307 307 307 307 308 308 310 311 309 303 300 310 311 309 305 306 307 306 309 308 305 305 300 304 302 297 300 300 301 300 302 297 298 304 306 305 306 308 308 310
307 306 306 306 306 306 306 306 307 308 310 313 313 310 299 310 312 308 309 307 309 307 306 308 309 305 303 305 301 297 297 290 297 299 300 300 293 300 305 305 304 306 307 308 310
306 306 306 306 306 307 307 307 307 309 313 313 311 308 299 311 306 310 312 306 307 306 306 306 304 300 301 296 293 294 289 291 294 300 299 299 295 302 306 306 305 306 307 308 310
305 305 305 305 306 306 306 307 309 311 311 313 310 303 306 302 307 309 312 310 305 305 303 301 298 295 295 293 285 289 290 292 291 296 298 296 296 301 303 303 303 304 307 308 309
305 305 304 304 305 306 305 307 304 304 308 304 302 302 300 304 307 303 305 307 305 302 295 299 293 290 293 295 295 294 292 290 293 297 294 294 295 297 300 301 301 302 304 307 308
304 304 304 304 304 306 304 301 298 298 292 302 300 300 304 305 299 302 304 300 299 294 298 295 291 296 298 297 295 293 290 290 293 295 295 294 294 299 301 302 303 302 303 305 308
302 303 303 304 304 302 300 299 303 303 293 297 301 302 303 304 300 300 301 299 297 295 296 293 296 299 297 295 293 293 290 290 290 294 296 295 292 296 300 301 303 304 305 305 306
302 302 303 303 299 301 300 301 303 306 290 292 296 301 304 304 299 305 305 300 297 293 295 295 299 296 295 294 294 289 295 294 293 291 286 295 284 293 297 299 302 304 305 305 306
301 302 302 302 300 299 300 303 305 304 281 294 298 307 302 298 299 301 305 300 294 295 295 292 294 293 292 293 295 291 296 295 294 292 291 290 286 291 297 296 300 303 306 307 308
301 302 302 302 303 303 304 304 303 291 280 289 298 295 293 296 297 301 300 302 301 295 296 294 299 296 294 297 297 298 295 294 293 291 284 289 287 288 292 298 302 306 309 312 310
301 301 299 301 299 304 305 300 290 283 291 288 290 292 290 289 291 293 294 295 292 288 289 294 295 298 299 293 297 295 291 283 281 282 281 292 289 292 300 303 304 305 309 312 313
301 300 302 302 305 306 302 293 281 286 287 291 289 289 286 289 290 290 290 289 293 292 289 286 284 294 298 295 292 292 291 284 277 279 282 290 286 293 303 306 307 307 307 309 309
300 300 302 304 305 304 295 285 284 287 288 286 287 285 286 289 289 289 289 288 291 292 287 287 287 296 297 298 296 292 288 293 287 288 283 287 291 300 301 302 303 303 303 303 304
296 298 297 303 305 300 291 285 286 289 288 287 282 285 282 286 286 286 286 290 292 297 298 293 286 293 295 298 298 294 296 288 287 279 278 285 288 289 293 296 299 299 300 301 301
296 293 299 303 304 296 287 286 286 289 288 285 284 283 284 283 284 283 283 287 290 292 293 293 290 290 294 292 291 292 291 291 291 288 281 280 285 293 294 297 297 299 299 297 296
297 291 300 303 292 292 288 287 285 287 289 287 287 285 284 284 283 283 283 286 291 291 285 291 288 285 289 295 298 295 292 293 286 284 288 287 287 299 299 300 299 298 298 296 294
292 292 298 300 288 287 287 286 288 287 287 287 286 287 288 285 281 284 286 291 291 289 287 290 286 280 284 290 294 291 293 294 294 292 285 282 286 299 300 301 300 298 297 294 293
293 288 292 294 293 289 285 285 284 289 288 288 287 288 286 284 287 284 285 289 291 291 292 291 285 282 279 284 288 287 291 293 292 287 287 287 289 294 298 300 301 297 294 292 290
294 290 292 287 287 289 288 286 284 283 288 289 286 286 285 281 283 283 286 287 290 292 290 289 281 284 286 288 288 287 288 289 288 290 287 289 289 295 299 301 298 297 294 291 289
289 291 292 290 289 287 284 284 283 285 284 285 284 286 286 283 284 282 285 286 285 288 288 289 282 284 282 286 287 286 289 290 290 290 290 291 290 299 300 301 298 295 293 290 288
295 296 293 288 287 286 286 285 284 286 287 288 286 285 284 286 288 290 290 289 288 285 285 285 282 281 278 285 285 283 288 289 290 292 292 288 294 297 293 292 292 291 290 288 287

GFSSW_sfc_thetae_087.txt.gz
Theta_e
311 311 311 311 311 311 311 311 311 311 311 311 311 311 311 312 313 307 300 307 312 319 318 306 303 308 303 297 299 305 295 293 295 296 298 304 303 306 305 303 304 306 305 316 323
311 311 311 311 311 311 311 311 311 311 310 310 310 310 311 313 306 302 310 320 322 319 303 299 296 301 295 295 296 294 293 295 300 301 300 303 302 301 302 303 304 303 308 315 317
311 311 311 310 311 311 311 311 310 310 310 310 310 310 312 311 302 302 321 319 318 315 302 301 299 298 296 297 295 293 291 297 301 304 303 301 300 302 299 299 303 303 305 307 312
311 310 310 311 311 311 311 311 310 309 309 309 310 311 312 306 289 305 321 320 319 307 302 303 302 293 293 294 299 293 297 298 299 301 301 299 301 300 299 301 304 304 304 306 306
310 310 310 310 310 310 310 309 308 308 308 308 310 311 306 299 301 313 321 319 314 307 302 301 300 297 292 294 295 294 295 298 299 300 299 301 298 299 298 301 302 304 305 303 304
311 310 309 309 309 308 307 308 307 307 308 309 310 309 302 293 304 311 310 307 308 307 305 306 302 302 297 295 293 296 297 297 298 298 298 297 296 296 299 300 301 302 302 304 304
311 310 308 307 307 307 307 307 307 307 308 309 311 308 301 297 306 305 307 302 302 302 301 305 305 300 299 297 301 299 293 295 295 295 296 298 294 295 300 301 300 301 303 303 304
310 308 307 307 307 307 306 307 307 308 308 310 313 307 297 308 306 306 305 303 304 304 302 302 303 299 297 299 297 293 292 286 292 295 296 294 288 296 300 299 299 301 302 303 304
308 307 306 307 307 307 307 307 307 308 310 314 308 305 298 312 305 307 304 301 303 304 302 304 299 294 295 289 287 289 284 286 290 296 295 293 290 296 299 301 299 298 299 301 304
306 306 306 306 306 306 307 307 306 308 311 311 309 299 304 301 306 307 305 308 304 302 298 297 292 288 288 285 280 284 284 285 285 290 293 290 290 295 297 297 297 297 299 300 302
306 306 305 305 305 306 304 300 298 299 304 300 301 299 301 302 304 301 303 302 302 298 291 294 286 283 286 289 290 290 288 287 289 293 291 290 290 292 296 297 297 297 299 300 301
306 304 304 304 305 305 301 296 296 295 288 301 304 302 301 302 297 301 303 294 296 290 294 291 286 292 294 293 292 290 287 286 289 292 292 290 289 292 296 297 298 299 300 300 301
303 303 303 304 304 301 297 296 301 301 289 295 298 300 300 303 298 298 298 295 294 291 292 288 292 296 294 293 291 290 287 287 287 291 292 289 288 291 296 298 300 301 302 303 301
301 302 303 303 298 299 297 299 302 302 286 292 293 299 302 302 298 304 303 297 293 290 291 290 296 294 293 292 292 287 293 292 290 288 283 290 281 290 294 295 298 303 303 301 302
301 302 302 302 295 295 298 300 301 300 279 292 295 306 304 299 298 299 303 298 291 291 291 289 291 290 290 291 294 289 294 291 290 287 286 287 284 287 293 292 295 303 307 303 302
301 301 302 299 298 299 301 300 299 287 279 291 297 294 294 295 295 299 298 300 298 293 292 291 295 292 291 294 294 295 293 291 290 286 280 286 285 286 290 293 301 305 306 305 306
300 301 299 299 295 301 301 296 286 280 292 287 290 292 290 289 291 291 293 291 288 284 285 290 291 294 295 289 293 291 287 279 277 277 277 289 286 289 298 301 302 302 303 303 304
300 300 299 299 301 301 298 289 280 286 286 291 289 288 285 288 287 288 287 284 288 287 283 281 280 289 295 291 289 288 287 280 275 276 280 288 283 290 296 302 303 303 303 302 300
300 295 297 300 301 299 290 281 281 285 287 285 286 283 284 287 287 287 286 286 288 291 284 284 284 294 296 296 294 289 285 291 284 285 280 284 287 297 299 299 300 300 299 297 297
293 295 295 299 300 296 287 284 285 287 287 287 281 285 281 283 283 282 283 288 285 291 290 287 282 292 294 296 294 291 293 281 284 278 277 283 286 287 292 294 298 297 296 295 295
291 289 296 299 298 291 282 284 285 289 288 284 283 282 282 282 283 282 283 286 288 287 287 287 286 285 290 289 288 288 287 288 288 286 279 278 283 292 293 296 297 296 295 293 292
291 285 296 298 287 289 284 287 287 287 289 287 287 285 283 284 282 282 282 285 291 289 283 289 286 279 282 289 292 291 290 289 282 282 284 284 284 297 298 299 297 295 294 292 292
288 287 294 296 282 282 286 286 288 286 287 286 285 287 287 284 280 284 285 290 290 288 285 286 281 276 278 285 290 287 290 289 290 289 284 281 284 298 299 299 296 292 291 290 290
289 283 287 290 289 286 283 284 283 288 287 288 286 288 285 283 285 282 283 288 291 289 294 290 283 279 274 279 284 282 286 288 287 283 284 284 287 294 297 296 294 291 290 289 289
290 286 288 281 282 285 286 285 284 283 288 288 285 285 284 279 281 280 284 286 288 291 288 286 278 281 282 283 284 283 284 286 285 286 284 288 288 294 295 294 293 292 291 289 288
285 285 288 286 287 285 284 283 283 284 284 284 283 285 284 280 282 279 283 283 283 286 285 285 277 281 278 282 283 282 284 286 287 289 290 289 288 296 297 296 292 291 289 287 286
290 291 288 286 283 282 282 285 284 286 287 287 285 283 282 284 286 285 286 285 285 283 281 280 277 279 275 282 282 278 284 286 289 291 290 285 291 294 289 288 288 288 287 285 285

GFSSW_sfc_thetae_090.txt.gz
Theta_e
315 313 312 312 312 312 311 311 312 312 312 311 311 311 312 312 312 306 298 304 308 315 317 304 303 301 301 293 296 300 290 288 291 294 297 304 301 304 302 301 303 305 303 313 324
314 313 312 312 312 312 312 312 312 311 311 311 311 311 311 313 306 302 309 317 319 322 304 302 299 296 297 292 294 293 288 292 298 299 297 301 302 302 300 300 302 303 307 316 321
314 312 312 311 311 311 311 312 311 311 311 310 310 310 311 311 300 301 320 318 324 319 302 301 299 295 294 294 293 291 291 295 296 298 299 300 301 304 299 297 300 301 303 306 312
314 312 311 311 311 311 312 312 310 310 309 309 309 310 311 306 286 303 320 322 320 307 300 299 299 292 290 293 295 290 295 296 297 299 298 296 299 298 297 299 303 303 302 302 304
314 313 311 311 311 311 311 310 308 308 308 309 309 310 305 298 299 308 322 320 311 304 300 300 298 296 291 291 293 292 295 298 298 298 298 298 296 297 297 299 300 301 301 300 301
313 312 311 311 310 309 308 308 308 307 308 308 309 309 301 289 300 308 314 311 311 305 304 301 301 301 296 293 290 294 294 294 295 295 296 295 294 294 297 299 299 299 300 300 300
312 312 311 309 308 308 307 307 308 307 308 308 309 306 300 294 302 306 308 302 304 307 303 305 304 297 296 294 299 297 292 293 293 293 292 293 292 291 296 297 297 299 300 301 302
311 311 310 308 307 307 307 307 307 307 308 309 310 306 295 307 305 305 303 302 302 301 300 300 299 296 294 296 294 291 290 285 291 293 295 292 287 294 297 296 296 298 299 300 301
311 310 307 307 307 307 306 307 307 307 308 310 308 303 296 312 306 309 305 301 302 301 300 304 298 293 292 287 285 287 282 285 288 293 293 291 289 293 296 297 295 296 296 298 299
310 307 306 306 306 306 307 306 306 306 308 311 308 299 301 300 305 305 304 303 300 300 297 294 290 286 285 283 279 282 283 283 283 288 290 289 288 293 294 293 295 294 294 295 297
307 306 306 305 305 305 304 299 298 297 301 298 297 298 301 302 303 300 303 301 300 297 288 292 286 282 284 286 288 287 286 284 287 290 288 288 288 291 294 292 293 295 297 298 299
306 306 306 304 304 304 301 294 296 295 288 300 303 302 304 304 297 300 301 293 293 289 291 288 284 290 291 290 289 287 285 284 288 291 289 289 288 292 292 292 295 297 297 298 300
307 305 303 303 303 299 295 296 302 299 288 292 296 300 302 303 296 298 298 294 292 290 290 286 290 294 292 290 288 288 285 285 287 290 289 286 287 290 293 295 297 299 300 305 304
304 302 302 303 296 296 294 299 301 300 282 289 293 297 301 301 296 302 298 294 291 288 290 289 294 292 291 289 290 285 292 290 288 285 281 288 280 287 291 293 296 297 303 303 303
302 301 301 301 294 293 297 298 299 299 276 293 293 304 302 297 298 298 302 297 290 290 290 288 289 289 288 289 292 288 293 290 288 284 283 285 281 284 293 295 298 302 303 303 302
301 300 301 298 296 298 299 299 298 286 277 289 296 295 295 297 295 298 298 299 297 291 290 289 292 290 290 292 292 293 290 289 288 285 279 284 282 282 291 293 296 300 302 302 301
299 299 298 298 294 299 299 295 285 279 292 288 291 294 293 291 292 295 293 290 288 283 284 288 289 292 293 288 290 289 285 278 276 276 276 286 283 286 293 296 297 299 300 300 299
299 299 297 298 298 300 297 288 280 284 285 289 288 288 286 288 287 287 287 284 291 288 283 280 279 287 293 288 286 286 286 279 275 275 278 286 280 288 297 299 300 302 300 298 296
298 294 294 299 299 298 291 281 281 284 286 284 286 283 284 286 285 287 285 284 286 286 283 280 282 290 293 293 290 287 283 289 282 283 279 282 287 294 298 298 300 300 298 295 294
292 293 294 300 299 295 286 284 282 287 287 286 281 284 280 282 281 282 283 286 285 286 286 284 277 289 289 292 292 291 292 280 280 275 275 280 284 286 292 294 298 297 294 292 292
291 288 295 298 298 290 280 283 285 288 288 285 282 281 282 281 282 281 282 286 287 286 287 285 283 282 286 286 282 283 283 286 285 283 277 275 278 293 293 295 297 294 293 289 290
290 283 295 297 287 288 282 286 289 287 290 287 287 286 283 284 282 282 282 285 290 288 283 287 283 278 280 287 289 288 287 289 282 280 282 280 281 297 296 297 294 291 291 289 289
287 286 293 296 279 280 286 286 287 287 287 287 285 287 287 283 279 284 284 289 290 287 284 284 280 274 275 280 287 284 286 286 286 286 280 279 281 297 298 293 292 290 288 288 288
288 280 284 288 288 285 282 284 283 289 287 288 287 288 285 283 284 281 282 287 289 289 293 288 280 278 273 276 281 279 282 284 284 280 281 282 286 292 294 292 291 289 288 288 288
286 283 287 280 283 284 285 286 283 282 288 288 284 284 283 279 280 279 282 284 286 289 286 284 277 280 281 282 282 281 281 282 281 283 280 285 286 291 293 292 291 290 289 287 286
284 285 287 284 287 284 284 282 283 284 285 283 282 285 283 278 280 278 281 281 281 285 282 283 276 279 276 280 281 279 282 283 283 284 286 286 288 290 291 292 289 288 287 285 285
289 290 287 284 282 281 281 284 284 285 286 286 284 282 281 282 284 284 284 284 283 281 279 279 275 275 272 279 279 276 281 283 284 288 289 285 290 290 286 285 284 285 285 284 284

GFSSW_sfc_thetae_093.txt.gz
Theta_e
317 316 315 313 312 312 312 312 312 312 312 312 311 311 311 312 312 305 296 300 306 314 317 303 302 301 298 292 294 298 289 285 288 291 293 301 299 301 303 300 301 302 302 309 324
316 316 315 313 313 312 312 312 312 311 311 311 310 310 311 312 304 299 306 313 316 319 304 301 298 297 295 292 292 292 287 290 296 296 296 299 299 301 299 300 301 301 304 307 316
317 316 315 313 312 312 312 312 311 311 310 310 310 310 311 310 294 294 318 317 320 319 303 300 298 295 292 292 291 290 290 294 296 298 296 295 297 300 297 296 299 299 301 303 303
317 317 315 313 312 312 312 312 311 310 309 309 309 309 311 304 285 299 320 319 321 311 300 296 295 289 287 291 295 289 293 294 293 296 295 294 297 295 296 297 301 302 301 300 302
316 316 315 313 312 312 312 311 309 308 308 308 308 309 304 295 295 302 322 321 312 301 298 299 296 293 289 290 291 290 293 295 297 297 296 297 294 295 295 298 299 299 300 298 300
316 315 314 312 312 311 310 309 308 308 308 307 308 308 300 286 298 302 312 312 305 300 300 299 298 299 295 293 290 292 292 292 292 293 293 293 293 291 295 298 297 297 297 298 299
315 314 313 311 311 309 308 308 308 308 307 308 308 305 298 293 299 300 310 304 304 306 302 304 303 298 295 292 296 296 291 292 293 292 292 293 290 289 294 294 293 295 296 297 298
314 313 312 311 309 307 307 307 307 307 307 308 309 305 293 306 303 302 300 301 303 302 304 301 299 296 294 295 293 289 289 285 289 292 293 290 286 292 296 293 293 295 296 297 297
313 312 310 308 306 306 307 306 306 307 307 308 306 301 292 310 305 307 303 300 302 299 298 302 296 292 292 287 285 285 281 284 287 291 290 288 287 291 295 294 293 294 294 295 297
312 311 309 307 305 305 305 305 305 306 306 308 307 296 299 298 305 305 304 303 299 298 296 294 290 286 285 284 279 281 281 280 282 288 287 287 288 293 292 291 292 292 293 294 295
311 310 307 305 304 304 303 298 298 297 299 296 296 295 297 302 301 299 302 300 299 296 288 290 284 282 284 286 286 286 284 282 284 288 286 287 288 290 292 290 290 293 294 295 296
310 307 306 305 305 304 301 293 297 294 287 299 300 298 301 303 299 298 299 295 292 289 291 287 284 289 290 288 286 285 283 282 286 289 287 285 287 291 291 291 291 293 295 301 303
307 307 306 305 303 300 296 294 301 299 284 289 297 298 300 304 299 297 297 293 290 287 289 285 289 293 290 288 286 285 283 284 284 288 288 286 285 288 291 293 302 302 303 303 302
307 306 304 303 295 295 291 297 299 299 277 283 289 296 301 301 294 301 298 294 290 287 289 288 293 291 289 288 288 283 290 289 287 284 280 286 278 287 288 296 299 300 300 300 301
304 303 303 300 294 291 296 297 302 298 272 288 291 301 301 295 296 297 298 294 288 288 288 286 288 287 287 288 290 287 291 289 288 284 283 283 279 283 292 292 295 297 300 299 300
302 302 301 298 295 296 297 299 298 283 273 287 294 292 293 295 295 297 296 297 295 289 288 288 291 289 289 291 291 292 290 288 286 284 277 282 280 279 288 291 295 298 301 300 299
301 300 298 298 293 299 299 296 282 277 288 288 290 293 292 292 293 294 292 289 285 282 283 287 288 291 292 287 290 289 284 277 276 276 276 284 281 282 292 296 297 298 300 298 298
299 299 297 297 297 298 297 288 277 282 284 287 291 292 289 287 287 289 288 285 285 287 283 281 280 288 292 289 286 285 284 278 274 275 277 284 278 284 296 299 301 302 298 297 295
298 294 293 298 298 298 290 280 280 283 285 284 286 284 283 285 285 285 283 283 284 283 282 279 282 288 291 289 289 286 282 287 282 281 278 280 284 293 297 297 300 297 295 292 292
291 292 293 300 299 295 287 283 283 286 287 287 281 284 279 281 282 282 282 285 283 285 286 283 277 287 287 291 289 285 289 279 280 276 274 278 280 281 290 293 297 293 291 290 291
291 287 295 298 298 291 281 283 285 288 288 285 283 281 282 281 282 281 282 285 286 285 288 285 281 280 283 282 280 281 283 284 286 283 277 274 276 290 291 294 292 291 290 289 289
289 282 293 297 286 287 283 286 290 287 290 287 288 286 283 284 281 282 281 284 289 288 283 285 281 277 278 285 286 284 285 286 279 278 280 280 278 293 292 292 291 289 289 289 288
285 283 292 295 281 281 285 285 287 286 286 286 285 287 286 283 279 282 283 288 288 287 282 282 278 273 273 279 284 282 283 284 283 283 278 277 279 293 294 292 290 288 288 288 287
286 277 283 288 288 284 283 284 283 289 286 288 287 287 284 282 283 281 282 286 288 288 292 287 280 277 272 275 280 278 280 282 281 273 276 278 280 288 291 292 290 288 288 287 286
286 281 286 279 282 284 285 285 283 282 287 288 284 284 283 280 280 279 282 283 285 288 286 283 277 279 279 280 279 278 278 279 278 279 276 279 281 287 289 288 288 288 288 286 285
284 283 286 284 286 283 283 282 283 284 285 283 282 283 282 279 280 278 280 280 280 283 281 281 276 278 276 278 277 277 280 280 280 281 281 282 281 291 290 289 286 286 285 284 284
289 289 286 283 282 281 281 283 283 284 285 285 284 282 281 282 284 284 284 283 282 281 279 278 275 274 272 278 278 274 279 282 281 283 284 279 286 289 286 283 282 283 283 283 283

GFSSW_sfc_thetae_096.txt.gz
Theta_e
319 318 317 316 314 313 312 312 312 312 312 312 311 311 311 311 312 304 296 300 305 313 316 303 302 301 298 292 293 297 287 283 286 289 291 299 297 299 301 300 300 301 301 304 319
320 318 317 316 315 314 313 312 312 311 311 311 310 310 310 311 303 298 305 311 316 317 302 300 297 297 293 293 290 292 286 287 293 294 293 297 297 299 298 299 299 300 303 305 310
320 319 318 317 316 314 313 312 312 311 310 309 309 309 311 309 291 292 318 316 317 317 301 301 297 295 289 290 289 288 286 292 295 298 295 293 295 297 294 294 298 298 300 301 302
320 319 318 317 315 314 313 313 311 310 309 308 308 309 310 302 288 296 322 319 317 314 299 296 293 288 286 288 292 286 291 293 294 297 294 292 293 294 294 296 299 299 300 299 299
319 318 318 316 315 314 313 312 310 309 308 308 308 309 302 290 291 298 320 320 310 303 297 295 292 289 285 287 290 289 292 294 295 295 294 295 293 293 293 297 297 298 298 297 297
318 317 317 316 314 313 312 310 309 308 308 308 308 308 297 282 297 302 302 311 303 298 297 297 296 295 292 292 289 291 291 292 292 292 292 291 291 291 294 296 295 295 295 296 297
318 317 316 315 313 312 309 308 308 308 308 307 308 305 297 290 300 298 306 308 304 301 299 299 299 296 294 291 294 294 290 291 292 292 292 291 288 289 294 292 293 293 295 295 296
318 316 315 313 311 310 307 307 307 307 307 307 309 303 291 304 303 302 300 298 301 303 303 302 301 295 292 293 291 288 287 284 290 291 293 290 285 292 294 292 293 293 294 295 295
318 316 313 311 310 307 305 304 305 304 306 307 305 301 290 306 303 305 302 297 298 299 298 302 295 291 290 286 283 284 280 282 286 291 290 287 285 291 294 293 291 291 291 293 295
317 314 312 310 308 305 304 303 303 305 306 306 306 293 296 294 303 306 303 301 297 296 294 292 289 285 284 283 278 280 280 280 282 287 286 285 286 290 292 290 291 290 290 291 294
316 313 311 309 306 304 302 298 295 295 299 294 294 291 295 301 304 298 302 299 297 293 287 289 283 281 286 285 286 285 283 282 283 287 285 285 286 288 291 288 288 289 293 300 301
314 312 310 307 305 304 300 291 296 297 288 297 297 297 299 302 296 300 301 294 292 288 289 285 282 288 288 287 285 284 281 281 284 287 285 285 286 289 289 289 293 297 299 300 301
312 310 308 306 305 301 296 293 299 299 287 289 294 295 296 299 294 298 296 293 289 288 287 284 288 291 289 286 285 284 282 283 283 286 287 284 282 284 289 295 299 299 299 300 300
310 308 306 305 296 296 293 298 298 297 280 282 287 294 298 300 293 301 298 293 289 287 288 286 291 289 287 286 286 281 288 287 285 283 279 285 277 282 289 293 296 297 297 298 299
307 305 303 299 295 293 297 297 296 295 270 285 289 299 299 294 293 295 297 293 286 287 287 285 287 286 285 287 289 285 290 288 286 283 281 282 279 280 290 290 293 295 299 298 298
304 303 302 298 296 297 297 300 299 280 271 284 291 290 292 293 294 294 293 294 292 287 287 287 289 289 288 291 290 291 288 287 284 282 276 281 279 278 284 291 293 296 300 300 297
301 300 298 298 291 298 299 295 279 273 286 285 287 291 289 289 292 292 289 287 283 280 280 285 287 290 292 287 289 288 283 277 275 275 275 283 280 282 288 294 296 297 297 296 295
300 299 298 297 296 298 297 287 273 279 280 286 288 290 288 290 287 290 286 282 283 285 282 280 279 287 291 289 286 286 284 278 273 275 276 283 278 283 294 297 299 298 295 294 292
300 294 292 295 296 297 289 278 276 282 284 283 290 286 282 285 285 284 283 281 282 283 282 281 282 288 289 288 289 286 281 286 280 281 277 279 283 289 295 295 296 293 292 290 290
292 291 292 298 299 296 285 280 282 286 286 287 282 283 279 281 282 282 282 285 283 286 287 283 278 285 286 289 288 285 288 280 280 275 274 277 279 280 288 291 291 290 289 289 288
290 287 294 299 298 289 280 282 285 288 288 285 283 281 282 281 282 281 282 285 287 286 287 284 281 281 284 282 279 280 280 283 283 282 276 274 275 289 288 289 288 289 289 288 287
287 281 295 296 285 285 281 287 290 287 290 288 287 285 283 283 281 281 281 284 288 287 282 285 282 277 278 284 287 284 285 284 277 276 279 279 277 291 289 289 289 288 288 288 287
284 285 292 294 280 282 285 286 287 286 286 286 285 287 286 282 279 283 283 287 289 286 282 283 278 273 274 279 282 281 282 283 281 279 274 272 277 290 291 290 289 288 287 287 286
284 276 285 288 288 282 282 283 283 289 286 288 286 287 284 282 283 281 282 285 287 289 291 287 279 275 271 275 279 278 279 280 278 266 271 275 277 282 287 288 288 287 287 286 286
285 278 284 277 281 283 284 285 283 282 287 287 284 284 282 279 279 279 281 282 285 287 285 282 276 278 279 279 279 278 277 276 276 277 272 276 277 282 287 288 287 287 286 285 284
282 283 284 283 285 283 283 282 283 283 285 282 281 283 282 279 280 278 280 280 279 282 280 281 276 277 275 278 277 275 277 278 278 279 279 279 278 287 290 288 285 284 284 283 283
288 289 285 283 282 281 281 283 282 284 284 285 284 281 280 282 283 283 283 282 281 280 279 278 274 273 271 277 276 272 277 281 281 284 283 277 281 288 284 282 281 282 282 282 282

GFSSW_sfc_thetae_099.txt.gz
Theta_e
321 321 320 318 318 316 314 313 313 312 312 312 311 311 311 311 312 305 297 304 309 313 315 307 306 303 303 299 303 301 293 289 291 292 294 302 301 305 308 305 305 306 307 309 312
322 322 320 319 318 317 315 313 313 312 312 311 310 310 310 311 305 299 307 311 317 317 305 302 300 301 300 298 297 300 293 291 297 298 297 300 301 302 302 302 303 304 307 309 309
322 322 321 320 318 317 315 314 312 312 311 309 309 310 311 310 294 296 316 316 316 318 305 305 303 300 296 297 294 295 291 296 298 301 302 300 300 303 301 298 301 302 304 307 307
322 322 321 320 319 317 315 313 312 311 310 309 308 309 311 305 293 301 321 317 318 315 303 300 297 294 293 293 296 291 294 296 297 300 300 298 301 298 299 300 304 305 305 303 304
321 320 320 320 319 317 314 313 311 309 308 308 308 309 304 292 291 308 321 318 315 309 301 299 296 293 290 291 294 293 295 297 298 298 298 299 297 298 298 302 303 302 302 303 303
320 319 319 319 318 316 314 312 309 308 308 308 307 308 299 284 298 304 305 315 307 304 300 299 297 297 293 294 293 295 295 296 296 296 296 295 297 295 299 302 300 300 300 301 302
320 319 318 318 317 315 313 310 308 307 307 307 307 305 297 291 300 302 305 309 305 301 298 300 302 300 299 295 298 296 293 295 296 297 296 297 294 293 300 298 298 300 301 301 302
318 319 317 317 316 313 310 308 306 305 304 305 307 304 291 303 305 302 302 300 303 304 305 305 304 300 296 297 294 292 292 288 294 295 296 296 290 296 298 297 298 299 300 300 301
316 319 317 315 313 311 308 306 304 304 305 307 303 300 291 306 301 305 303 297 299 301 302 303 300 296 294 290 288 289 285 287 290 295 294 293 290 296 299 297 297 298 299 298 301
316 318 316 314 311 308 306 304 303 303 305 306 305 294 297 296 301 305 305 301 296 298 297 296 294 290 290 288 282 284 285 287 287 291 291 290 290 294 296 296 296 297 297 303 307
316 318 315 312 309 306 302 300 296 294 299 295 295 295 295 302 305 302 303 298 298 295 290 292 288 285 288 290 290 289 287 286 289 291 288 289 290 293 296 295 296 296 304 305 306
317 316 313 311 308 305 300 295 297 299 291 297 297 298 301 301 294 298 303 296 294 287 291 288 286 290 291 289 288 288 286 285 288 290 289 291 290 294 295 295 296 303 303 304 305
316 314 312 309 306 301 296 296 302 300 288 291 295 295 297 299 294 295 299 296 292 290 289 286 290 292 289 287 286 286 285 286 287 290 292 289 288 290 293 299 303 304 303 304 304
315 311 309 307 299 298 295 300 301 298 282 287 288 293 297 298 292 301 301 297 292 290 290 290 293 290 289 288 289 285 290 290 288 287 284 290 282 288 292 295 300 301 302 304 303
311 308 306 302 295 293 297 299 299 295 275 288 288 299 298 294 294 295 303 294 291 289 291 289 289 289 288 289 291 288 292 289 289 286 286 286 284 287 291 293 297 300 303 302 302
304 302 301 298 297 299 300 300 299 279 274 284 291 291 290 292 293 295 296 297 296 290 290 290 293 292 291 292 292 293 290 290 288 287 281 286 285 284 289 293 296 300 302 300 299
302 301 298 299 292 299 300 295 279 275 286 284 287 291 290 288 289 292 290 289 286 282 283 287 288 292 293 289 291 291 287 280 279 279 278 285 283 287 291 296 298 299 298 297 296
301 300 299 297 299 300 297 287 274 280 280 286 287 290 286 288 289 290 288 284 286 288 284 282 280 288 291 290 288 287 287 281 275 277 280 285 281 287 296 301 299 297 296 295 294
299 293 294 296 299 299 290 278 279 282 285 284 290 285 283 286 286 285 284 282 284 285 284 283 282 290 289 289 290 287 285 289 283 283 280 283 286 292 297 297 296 294 293 292 291
293 291 291 299 298 296 285 280 282 286 286 287 282 284 281 282 284 284 283 285 284 288 289 284 279 286 287 291 288 289 290 284 285 276 275 280 283 285 290 291 292 292 292 291 291
291 287 294 299 299 289 280 282 285 289 288 286 284 282 282 282 284 282 282 285 287 286 288 286 283 281 285 283 280 282 283 286 286 284 279 277 281 291 290 291 290 290 291 290 290
289 282 295 298 285 286 281 285 289 287 290 288 288 286 283 284 282 282 281 284 288 288 283 285 283 278 279 285 287 287 285 285 279 278 281 280 281 293 292 291 291 290 290 290 290
287 288 295 295 280 281 285 285 287 287 287 287 286 287 286 282 280 282 283 287 289 287 284 285 280 274 276 282 284 281 283 283 282 281 276 277 280 293 291 289 289 288 288 289 288
284 280 285 289 288 284 283 284 283 288 287 288 287 288 285 282 284 281 281 285 288 290 291 288 281 277 274 277 281 278 280 281 280 277 276 278 280 284 286 288 288 288 288 287 287
286 281 285 278 282 284 284 285 283 282 287 288 285 285 284 279 280 279 282 283 285 287 286 285 278 280 280 281 281 280 279 279 277 278 275 277 278 282 285 288 288 287 287 285 284
283 284 286 284 286 283 283 284 283 283 285 283 282 283 283 280 281 279 281 281 281 284 283 283 278 279 277 280 280 277 279 279 279 279 279 281 281 288 290 289 286 284 284 283 283
290 290 287 283 283 282 282 284 284 284 285 286 285 283 281 282 285 285 285 285 284 282 281 280 278 275 272 278 277 273 278 279 281 284 283 279 284 289 285 284 283 283 283 282 282

GFSSW_sfc_thetae_102.txt.gz
Theta_e
323 323 322 321 320 319 317 315 314 313 313 313 312 311 311 312 312 308 303 309 311 316 315 311 309 308 310 306 308 306 298 297 300 299 301 304 303 308 311 308 309 311 310 313 315
324 323 323 322 320 319 317 316 314 313 312 312 311 310 311 311 307 303 315 311 316 317 308 305 304 306 303 304 305 302 298 299 303 303 301 303 304 305 304 304 305 308 312 312 313
324 324 323 322 320 319 317 315 314 313 312 311 309 310 311 311 302 305 314 315 319 317 308 308 307 305 301 303 302 301 297 303 301 303 303 302 303 306 303 301 305 305 307 310 311
324 323 323 322 321 319 317 315 314 313 311 309 309 309 310 306 303 307 320 318 318 315 308 306 304 300 299 298 302 296 299 300 301 302 302 301 303 302 303 303 307 307 309 309 309
319 321 323 322 321 319 316 314 313 311 308 308 308 309 304 298 301 311 320 317 313 312 306 304 301 301 297 298 299 297 298 300 301 301 301 302 300 301 302 306 308 308 307 308 308
316 317 320 321 321 319 316 314 312 310 308 307 307 308 301 295 311 304 310 313 311 309 305 304 301 302 298 297 296 299 299 300 302 302 302 300 300 302 303 307 306 306 306 307 307
316 315 316 320 320 318 315 313 310 308 307 306 307 305 300 302 310 307 306 306 310 307 303 304 304 300 300 297 301 300 296 298 300 300 299 302 298 299 304 306 304 305 306 306 307
317 316 315 318 318 317 314 311 309 307 304 304 306 305 299 309 311 307 307 304 309 310 306 306 306 303 302 302 298 296 297 293 299 300 301 300 295 300 304 303 303 304 305 305 306
316 316 315 316 316 314 311 309 307 306 305 305 302 301 297 309 303 308 308 303 303 307 306 307 305 300 301 296 294 295 291 294 295 301 300 299 295 300 303 302 301 304 305 305 306
316 316 315 316 315 311 309 307 305 304 305 306 304 298 303 304 305 305 310 306 300 300 301 300 298 296 296 294 288 291 292 294 293 297 297 296 295 298 301 302 302 304 304 305 309
317 316 315 316 312 308 305 302 297 295 300 301 301 302 305 305 307 305 307 303 299 297 293 295 289 290 294 295 294 293 293 293 295 297 294 294 294 297 301 302 302 303 304 307 310
316 315 315 315 310 308 307 299 303 304 299 303 303 304 306 305 299 302 307 297 292 291 293 292 288 295 297 295 292 292 291 291 294 296 293 294 295 299 301 301 302 302 306 307 309
316 315 315 310 308 305 303 301 304 304 293 300 303 302 304 305 300 303 304 301 294 290 289 288 292 294 293 291 289 290 290 290 289 294 296 295 293 296 298 300 304 306 307 308 308
315 314 311 308 302 300 296 300 302 302 287 294 295 298 302 302 297 306 305 301 295 292 290 288 291 289 291 290 292 287 293 291 291 291 288 295 287 293 296 298 302 305 306 307 307
314 311 307 308 299 297 299 302 301 298 279 294 293 302 301 298 299 300 308 299 294 293 292 290 290 289 287 291 293 290 294 292 293 291 291 291 288 292 295 294 300 304 306 306 306
308 306 303 300 300 299 302 302 299 287 279 290 293 292 293 296 296 299 301 300 299 292 292 292 296 293 291 293 294 295 292 293 293 291 284 289 289 290 292 295 299 304 305 304 304
303 302 300 301 294 301 301 296 283 281 290 289 290 293 292 291 292 294 294 290 287 285 286 290 290 294 295 291 294 292 288 282 280 281 281 290 288 291 296 299 301 303 303 303 303
302 301 300 300 301 302 299 289 280 285 287 289 289 291 289 292 291 292 293 289 293 291 287 283 281 290 294 292 289 289 288 282 276 279 283 289 284 291 301 303 303 302 302 302 302
301 298 297 299 302 302 293 283 283 285 288 287 289 288 289 290 290 291 291 290 291 292 286 285 284 292 292 293 294 290 287 293 286 287 284 287 290 298 298 298 299 299 300 299 299
297 297 293 299 301 297 289 284 286 289 288 288 284 285 286 287 288 289 289 289 287 290 292 288 282 289 290 293 292 293 295 286 288 279 278 284 286 289 293 294 295 296 297 298 298
296 292 295 299 300 290 284 286 287 290 290 288 286 285 285 284 288 286 287 288 288 287 291 288 286 285 288 287 286 288 289 290 290 287 281 280 286 294 293 293 294 295 297 297 297
296 287 298 300 287 288 286 287 290 288 291 290 291 288 285 286 286 285 284 287 291 290 286 289 286 281 283 288 289 287 287 287 283 282 285 285 285 296 295 294 294 294 295 295 295
290 289 296 296 284 285 288 287 289 288 289 289 287 289 288 286 282 287 285 289 290 288 286 287 283 279 280 285 287 284 286 286 285 285 281 280 283 296 294 293 293 292 293 294 293
292 284 289 291 290 287 285 285 285 290 289 291 290 289 286 284 287 285 284 287 291 290 290 289 284 281 278 280 284 281 283 284 283 281 281 282 283 289 290 289 292 293 292 292 291
292 288 290 284 286 288 288 287 285 285 290 290 288 287 286 282 283 283 284 286 288 288 289 288 280 281 282 282 282 282 282 282 281 281 278 281 281 285 289 292 293 292 291 289 287
289 288 290 288 289 287 287 285 285 286 288 286 286 287 288 284 284 282 284 285 284 286 286 286 280 281 279 282 282 280 282 282 282 282 282 282 283 292 293 293 289 289 288 287 286
298 297 292 288 286 285 286 286 287 288 288 289 289 286 285 285 288 289 289 288 288 285 283 282 282 278 275 279 279 276 281 282 283 284 285 282 287 290 289 288 287 287 285 285 284

GFSSW_sfc_thetae_108.txt.gz
Theta_e
326 326 325 324 323 322 321 320 319 317 315 314 314 314 313 314 311 316 315 319 318 317 312 308 312 312 312 308 310 310 300 297 300 302 305 311 309 311 313 310 311 313 312 315 319
321 323 326 325 323 322 321 320 319 317 315 314 314 313 312 313 307 312 319 321 321 318 306 306 308 309 306 306 308 304 299 300 306 308 307 309 308 309 307 308 308 310 314 317 317
318 319 320 321 323 322 321 319 318 316 315 314 313 311 312 310 310 309 317 319 318 316 308 311 311 308 305 307 306 305 300 304 306 308 309 307 306 309 306 304 308 308 311 314 315
317 318 319 320 319 321 321 319 318 316 315 314 311 310 311 308 303 312 320 319 320 312 309 309 308 304 303 302 307 301 305 306 306 307 306 304 307 305 306 307 311 311 312 311 310
316 316 317 317 319 318 320 319 317 316 315 312 310 309 308 306 309 323 324 318 313 309 309 308 305 305 301 304 305 303 305 306 307 307 306 306 303 303 304 308 310 310 310 310 310
315 315 316 317 318 317 317 318 316 316 314 311 309 308 305 300 318 322 319 317 312 311 310 311 308 309 305 304 303 304 304 304 304 304 305 303 303 304 305 308 307 308 308 310 310
315 314 315 315 316 317 317 318 315 314 312 310 308 307 303 304 317 320 319 315 314 314 310 313 313 308 307 303 307 305 300 302 303 304 303 305 300 301 307 308 307 307 308 309 310
314 314 314 314 315 316 316 316 315 313 311 308 306 305 300 315 318 316 317 315 318 314 312 313 313 308 305 306 303 299 300 295 302 304 305 303 295 303 308 307 306 307 308 309 310
314 314 314 314 314 315 315 315 313 311 308 307 304 304 301 316 312 315 316 311 315 314 311 311 310 304 303 298 296 298 292 295 298 306 304 303 299 305 307 307 305 306 307 308 308
313 314 314 314 314 314 314 312 310 307 305 307 307 300 305 303 311 313 313 313 310 310 307 305 303 299 298 295 289 292 293 296 297 302 304 301 301 304 306 306 304 305 306 307 307
314 314 315 315 314 312 307 305 301 298 300 303 303 302 306 311 313 309 311 309 308 305 298 302 296 292 295 297 298 297 295 294 298 302 300 300 299 302 305 305 304 304 305 306 308
313 313 314 315 314 310 310 305 307 309 301 304 306 306 309 310 303 306 312 303 301 296 299 296 292 297 298 297 296 296 294 293 297 300 299 297 295 298 303 303 304 304 304 305 308
312 313 315 315 311 308 307 308 311 312 300 301 306 305 306 308 303 303 308 304 299 296 296 293 296 299 297 295 293 293 292 292 292 296 297 295 292 296 301 303 304 305 305 307 309
312 313 314 312 305 307 305 307 312 313 292 294 299 304 307 307 301 309 309 305 300 296 297 295 299 297 295 294 294 289 296 294 292 290 285 294 284 292 297 299 301 303 305 308 309
312 315 312 311 307 304 303 306 311 306 280 295 298 308 306 302 302 303 309 304 297 297 297 294 295 294 292 293 296 291 295 293 292 289 288 288 285 290 296 295 298 302 306 308 307
314 313 310 306 309 306 305 307 306 288 279 292 299 298 298 300 301 302 302 305 304 298 299 296 301 297 296 297 297 296 291 291 291 288 280 287 285 286 292 296 299 303 305 306 306
313 312 310 308 300 305 305 302 286 282 294 290 293 296 295 295 297 298 297 295 293 288 289 294 294 298 298 293 295 292 287 280 279 280 279 289 286 288 296 300 301 303 304 305 305
304 304 303 304 306 305 304 292 282 288 289 297 296 296 292 295 295 296 294 291 296 294 290 286 285 293 297 293 291 289 287 281 275 278 281 289 283 288 300 303 304 304 303 303 302
302 301 299 302 306 305 295 284 286 291 295 294 294 291 291 294 294 294 294 292 295 296 288 287 288 297 297 297 295 289 285 291 284 284 281 285 289 295 300 300 301 301 300 299 299
298 296 296 303 305 299 289 287 292 297 298 296 289 290 288 291 291 292 292 296 294 298 298 292 285 293 296 296 295 293 295 284 284 277 277 284 286 287 294 295 297 296 296 296 297
298 291 297 302 302 290 284 289 294 299 298 292 290 289 290 290 292 291 291 294 296 297 297 294 290 288 292 290 288 290 288 289 288 286 280 279 283 293 291 294 294 295 295 296 296
296 287 298 301 286 287 286 293 296 296 297 293 293 293 291 292 290 290 290 292 298 298 292 295 290 285 287 293 294 293 289 289 284 282 285 284 283 295 293 295 295 295 295 296 296
292 289 297 297 283 284 290 292 294 292 293 292 291 293 294 291 287 290 292 294 295 293 290 293 288 281 283 288 291 288 290 290 289 288 282 279 281 295 295 294 295 294 295 295 294
291 284 287 289 289 288 287 289 290 294 293 293 292 294 291 289 292 289 290 292 294 294 292 293 288 285 281 283 288 285 287 289 287 282 282 283 284 290 290 291 294 294 294 293 291
290 288 291 281 283 288 291 290 289 288 292 294 291 291 290 286 288 288 291 291 292 290 291 291 284 287 287 286 286 286 285 286 284 285 282 283 283 287 291 292 292 292 292 290 289
289 290 293 292 290 287 290 289 288 289 290 288 289 291 291 288 289 286 290 289 287 289 289 291 283 286 283 286 285 282 284 285 285 285 284 284 283 291 291 291 289 289 288 287 286
296 299 295 291 289 288 288 289 290 292 293 293 292 291 290 291 293 294 294 294 291 288 287 287 285 282 278 284 282 278 282 283 285 286 286 281 286 289 286 285 284 286 285 284 284

GFSSW_sfc_thetae_111.txt.gz
Theta_e
321 323 325 325 324 323 323 322 320 320 318 317 316 315 314 314 312 310 310 316 313 319 315 304 304 305 305 302 303 299 290 291 292 294 298 306 303 306 306 305 307 308 308 311 314
319 319 319 321 322 323 322 321 320 319 318 316 315 314 314 313 305 306 319 320 319 318 303 301 302 305 298 298 298 295 289 292 298 301 300 303 303 303 303 304 305 305 311 313 313
317 317 318 319 320 319 321 320 320 319 318 316 315 313 313 310 304 307 318 317 318 316 304 304 306 305 299 299 299 297 294 299 301 303 304 302 302 305 300 300 304 304 307 310 310
316 316 316 316 318 319 318 318 320 319 318 316 313 311 312 305 297 307 320 320 320 312 305 304 304 300 298 297 301 297 302 302 303 304 303 302 304 302 301 302 305 305 306 306 306
316 316 315 315 316 317 317 316 319 319 317 315 312 310 305 301 304 318 324 321 313 307 304 303 303 301 297 299 301 299 301 303 304 303 302 303 300 301 302 303 305 305 306 305 305
316 316 316 315 316 317 317 316 317 318 316 314 311 308 301 295 312 315 316 313 308 305 303 305 304 305 301 300 299 302 302 302 303 302 302 301 301 301 302 303 303 304 304 304 305
316 315 315 315 315 314 314 316 316 316 315 313 311 306 301 301 311 312 312 312 310 309 305 308 308 303 303 300 304 302 296 298 299 299 298 301 297 298 304 304 303 304 305 304 304
315 314 314 314 314 313 313 315 315 316 314 312 308 304 297 312 312 311 310 309 313 313 309 308 307 303 300 302 299 296 295 290 296 299 301 300 293 301 303 302 301 304 304 304 303
314 314 314 314 314 314 314 315 315 314 312 308 302 301 297 313 308 311 312 309 311 311 309 310 304 299 299 293 290 292 287 289 293 300 300 299 295 302 304 305 303 303 302 301 302
313 314 313 314 314 313 313 312 311 308 306 307 306 299 302 301 310 312 312 312 308 308 306 303 297 292 292 289 283 285 287 289 290 294 298 296 296 300 304 304 302 301 298 299 300
313 313 313 313 314 312 308 305 301 299 300 298 299 301 304 308 310 308 309 307 306 302 295 299 291 287 291 294 294 292 291 289 293 297 296 295 295 295 299 301 301 299 299 299 306
312 312 312 313 314 310 309 301 303 303 296 300 303 303 305 306 301 305 308 300 299 293 296 292 288 294 296 295 293 291 289 289 293 296 295 293 291 295 298 299 301 302 299 300 307
311 312 312 313 312 309 305 305 309 310 294 299 302 302 304 306 300 300 304 301 297 293 293 289 293 297 295 292 291 291 289 289 288 292 294 291 289 292 297 300 303 304 302 303 306
310 310 311 312 306 306 305 311 309 310 286 292 297 301 305 305 299 306 307 301 297 293 294 292 297 295 293 292 292 287 293 292 290 288 283 290 281 289 293 295 299 303 301 304 304
309 310 311 311 305 303 305 307 308 304 275 294 296 308 305 300 301 301 308 302 295 294 294 291 293 292 291 292 293 290 293 291 290 286 287 286 283 286 292 292 296 300 302 303 302
309 311 312 309 308 307 306 306 305 287 276 290 297 297 297 299 299 301 301 302 300 295 295 294 297 296 293 296 294 295 291 290 288 287 279 284 284 283 287 292 296 301 302 301 299
310 313 311 309 301 305 305 303 286 279 293 288 292 296 295 294 296 297 295 292 289 285 286 291 292 295 298 291 293 290 285 278 275 278 276 287 285 285 292 297 300 301 300 299 299
305 309 304 305 306 305 304 292 280 287 288 295 293 294 290 293 293 295 293 289 292 291 286 284 281 292 296 292 288 287 285 278 273 274 280 287 281 287 299 301 300 299 298 298 297
303 300 299 302 306 306 297 284 284 288 292 291 291 288 289 292 292 291 291 290 292 294 286 285 285 295 296 296 293 289 283 289 282 282 277 281 288 295 293 297 297 296 296 294 295
298 296 296 303 305 301 292 286 289 295 295 295 288 290 286 288 289 290 290 294 293 297 296 291 283 293 295 296 294 291 292 282 283 275 275 281 284 281 287 288 292 292 292 293 294
298 291 297 303 302 292 285 286 292 297 297 294 291 289 289 289 289 289 291 294 295 295 296 293 288 287 292 290 287 288 287 288 287 285 278 277 282 287 285 290 290 291 292 291 292
295 286 298 301 287 286 285 289 295 294 298 296 294 292 290 291 289 289 289 293 296 296 292 294 289 283 286 293 295 292 288 288 281 280 283 282 282 293 291 292 293 292 291 291 291
290 288 297 297 282 283 287 290 294 293 294 292 290 292 292 289 286 289 290 296 295 293 293 293 285 280 282 287 290 287 289 291 289 287 281 277 281 294 295 293 292 289 289 289 289
289 282 287 287 287 286 285 286 288 295 293 294 292 292 290 288 291 287 289 292 295 294 295 294 288 283 278 282 286 283 286 289 287 278 280 280 285 288 290 289 290 289 288 287 287
290 286 285 280 283 286 289 288 286 288 293 293 290 290 288 284 286 285 290 291 292 292 291 290 282 286 287 288 286 285 285 286 285 284 279 282 283 286 287 286 287 288 287 286 285
285 287 291 285 286 285 286 289 286 288 290 287 288 290 290 286 287 283 289 288 286 288 289 290 282 285 282 286 285 282 284 283 284 284 284 283 282 287 287 287 285 285 285 283 283
292 294 290 286 286 284 283 285 288 290 292 292 290 289 289 290 292 291 292 293 291 286 285 284 282 281 277 284 283 276 282 284 285 285 286 279 284 285 283 282 282 283 283 282 282

GFSSW_sfc_thetae_114.txt.gz
Theta_e
320 320 321 322 322 324 323 323 321 321 320 318 318 317 316 315 312 308 307 314 314 320 316 302 301 301 301 298 300 297 288 285 289 291 294 302 301 301 305 302 304 307 306 310 313
318 318 319 320 319 318 320 321 321 320 320 318 317 316 315 314 306 304 316 321 320 318 301 300 300 302 296 296 296 293 287 290 295 296 297 301 301 301 301 302 302 303 308 311 311
316 315 316 316 318 319 318 318 319 321 320 318 316 314 314 311 304 307 320 320 320 316 302 302 303 302 297 297 296 293 291 296 299 301 301 301 302 304 300 298 302 302 304 307 307
316 315 315 315 315 317 317 317 316 319 320 318 315 313 313 305 292 305 320 321 321 311 304 302 301 298 296 295 298 293 298 300 300 302 300 299 300 300 299 300 304 304 304 304 304
316 316 315 315 315 316 316 316 316 317 319 318 315 310 304 300 303 314 324 321 312 305 302 301 301 300 295 297 299 297 298 300 302 302 301 302 300 300 300 303 303 303 304 303 303
315 316 316 315 315 315 315 315 315 316 318 317 314 308 302 295 310 312 312 312 309 304 302 302 302 303 299 298 296 299 299 298 299 298 299 299 299 298 301 303 304 304 303 303 303
315 316 315 315 315 315 314 312 315 315 317 316 313 306 301 300 311 310 311 308 309 306 302 305 305 301 301 298 302 300 295 297 297 296 296 300 296 296 302 302 302 304 305 304 302
315 315 314 314 314 314 313 312 314 316 317 314 311 304 297 310 310 308 308 307 310 311 309 309 307 301 298 300 298 294 293 287 293 296 298 294 291 297 302 301 299 300 303 304 302
314 313 313 313 313 313 314 314 315 316 315 311 304 301 297 312 306 310 309 306 309 310 308 310 303 297 297 291 288 289 283 287 290 297 295 294 293 298 302 302 300 301 302 304 303
313 313 313 313 313 313 313 313 312 309 307 307 306 297 301 300 308 310 309 309 306 306 304 300 296 291 290 287 280 283 285 285 285 291 293 292 293 298 299 298 299 300 301 303 301
313 313 313 312 313 312 308 304 301 299 300 296 297 299 302 306 310 307 309 307 305 301 294 297 290 286 289 291 292 290 288 287 290 293 292 291 292 294 297 297 297 298 301 302 305
312 312 312 312 313 311 307 298 301 301 294 300 302 301 304 304 299 303 307 300 298 292 295 291 288 294 295 293 292 291 288 287 291 293 292 289 290 294 296 296 297 297 300 305 305
311 311 311 311 312 309 303 304 309 306 293 298 301 299 301 303 298 299 302 299 295 292 292 289 291 296 294 292 290 289 287 287 287 290 291 289 287 290 294 296 298 299 300 306 305
310 310 309 310 306 307 304 310 311 307 282 290 296 300 303 304 298 305 304 299 295 292 292 290 295 293 292 290 291 286 292 291 289 286 281 289 280 287 290 292 295 297 300 302 301
308 307 309 312 302 304 306 309 308 304 270 291 296 307 305 298 299 301 306 299 293 292 292 289 290 290 289 291 292 289 292 290 289 284 283 285 280 285 291 289 292 298 299 299 300
307 307 309 308 307 305 308 307 305 286 272 289 296 296 296 298 298 300 300 301 299 294 294 292 296 294 292 294 293 294 290 288 287 284 275 282 282 280 285 291 295 299 298 298 298
306 307 309 310 302 306 308 303 286 277 290 287 291 295 294 293 295 295 294 292 289 285 285 290 291 294 296 290 292 289 284 279 273 276 275 285 282 283 293 295 298 294 294 295 296
305 305 306 308 305 307 305 292 279 285 286 293 293 294 291 294 293 294 291 287 290 289 286 283 281 290 295 292 288 286 285 278 272 273 276 285 277 285 292 291 294 295 295 295 294
304 300 300 303 307 308 297 283 283 286 291 290 290 287 286 292 291 292 290 289 291 292 286 284 284 293 295 295 292 287 281 287 282 281 274 279 284 290 289 288 288 288 290 291 292
296 297 297 303 305 303 292 285 287 293 293 293 287 290 285 287 287 288 288 293 292 294 294 290 284 291 294 295 294 289 290 282 281 274 273 279 280 280 285 285 287 286 286 286 290
296 288 297 304 304 294 284 286 290 295 295 292 289 288 289 288 288 288 289 293 294 293 295 291 288 286 293 289 287 287 286 287 285 281 276 275 278 287 286 289 287 287 288 289 288
295 286 297 302 288 286 286 290 294 293 296 294 294 292 289 289 287 287 289 292 294 294 291 293 289 283 285 293 294 292 288 288 279 277 280 279 281 291 291 293 290 289 288 288 287
290 289 297 297 283 283 287 289 292 292 292 293 291 293 292 287 285 288 290 295 295 293 291 292 286 281 282 287 289 286 289 289 288 286 280 275 279 293 293 291 289 287 287 287 286
287 281 287 288 288 286 284 286 287 293 292 294 293 293 289 287 290 286 288 293 294 293 296 295 288 284 279 282 285 283 286 289 287 279 278 279 283 288 287 286 286 285 285 284 284
287 284 286 280 282 286 287 287 284 286 292 292 291 289 287 283 286 286 290 289 290 294 291 288 280 284 286 288 287 286 283 286 286 284 279 281 283 286 285 284 284 285 285 283 282
285 286 288 283 285 284 286 287 284 287 289 288 287 288 288 284 286 283 288 288 285 286 287 288 280 283 282 287 285 281 283 283 283 284 284 284 282 287 286 285 283 283 283 281 281
291 294 290 287 283 283 283 285 286 289 290 292 290 289 289 288 291 289 291 291 290 286 283 284 282 281 279 284 284 278 280 284 284 284 285 279 283 284 281 281 281 282 282 281 280

GFSSW_sfc_thetae_117.txt.gz
Theta_e
320 320 320 320 319 318 320 321 321 321 321 320 319 318 317 316 313 307 305 313 313 323 316 302 300 300 299 297 298 295 288 284 288 290 293 299 298 299 303 301 302 303 303 307 311
316 317 317 317 318 318 318 318 318 320 321 320 318 317 316 315 304 302 313 322 323 320 300 299 299 302 296 294 295 292 286 288 294 294 295 299 298 299 299 300 301 301 305 308 309
315 315 314 315 316 317 317 317 317 317 320 320 317 316 315 311 301 303 322 322 320 315 302 301 301 301 294 293 293 290 289 293 296 298 299 297 300 300 297 297 300 300 302 304 304
316 315 315 315 315 316 316 316 316 317 318 319 317 315 313 304 286 304 321 319 321 309 303 300 300 295 293 292 295 291 295 297 297 300 299 298 300 298 299 300 303 302 303 302 301
315 315 315 315 314 315 315 315 315 316 317 319 315 311 305 300 300 311 322 320 310 304 301 299 299 297 294 295 297 295 297 299 299 299 298 300 297 298 298 302 302 302 302 301 301
314 315 315 314 314 314 315 313 313 315 316 318 314 309 301 294 307 309 309 308 309 304 300 300 300 300 297 296 294 298 297 296 297 297 298 297 297 296 299 302 301 302 302 302 301
313 315 315 314 314 314 313 312 312 313 315 317 312 307 300 298 307 307 308 305 306 304 301 304 303 300 299 295 299 298 293 295 296 295 295 297 292 293 298 300 300 301 302 303 304
313 314 313 313 313 314 313 312 313 314 314 316 312 304 296 309 308 307 305 305 308 308 308 308 306 301 297 299 296 293 291 286 292 294 296 293 288 296 298 300 299 299 300 302 303
313 313 312 312 312 313 313 314 314 316 316 311 303 302 295 310 304 308 308 304 307 308 308 311 304 297 296 290 287 287 282 285 289 295 293 292 290 295 299 299 299 298 298 299 301
312 312 312 312 312 312 313 313 312 310 309 308 306 296 299 296 304 308 308 307 305 305 303 301 294 290 290 287 280 282 283 280 284 290 292 290 291 295 296 297 297 297 297 297 299
311 312 312 312 311 312 308 302 300 297 300 296 296 297 300 304 307 305 308 305 304 301 294 294 288 286 290 290 290 288 286 285 287 292 290 290 290 292 294 294 295 296 296 297 302
311 311 311 311 311 311 307 297 298 300 294 299 300 299 303 303 297 301 307 300 298 292 295 291 287 293 293 291 290 289 287 286 289 292 290 288 289 293 293 293 295 296 294 300 301
311 311 311 310 311 309 302 302 306 307 292 296 299 298 300 302 296 296 302 299 294 292 292 289 292 296 293 291 289 289 287 287 286 289 290 288 286 288 293 294 295 296 297 302 301
310 310 309 309 306 306 303 307 306 305 281 288 295 299 301 301 295 302 302 298 293 291 291 290 295 292 290 289 290 285 290 289 288 285 279 287 278 287 288 292 296 298 297 298 297
309 307 307 309 300 302 303 308 307 300 270 290 296 306 303 297 297 299 302 297 291 291 291 288 290 289 288 290 291 287 292 289 288 283 281 283 279 282 289 290 294 295 295 295 296
308 307 307 306 307 305 306 307 303 279 270 287 297 295 295 297 297 299 298 299 297 292 291 289 293 292 290 292 293 293 289 287 286 282 274 281 280 278 285 287 291 296 295 295 294
308 307 305 308 298 307 307 302 284 273 287 285 290 295 294 292 293 294 292 290 288 284 284 288 290 293 295 290 291 288 288 281 275 275 275 284 280 283 287 288 291 290 291 291 291
306 305 306 306 306 306 303 292 277 284 284 291 292 294 290 292 292 293 290 287 290 288 284 283 281 290 295 292 288 286 285 279 273 273 275 283 275 283 289 290 290 290 290 289 288
305 298 301 304 307 307 296 283 280 284 289 288 288 285 286 291 291 290 288 289 291 290 284 283 284 291 294 293 292 286 281 286 281 281 275 278 283 288 289 288 288 288 288 287 287
296 294 296 304 306 302 291 285 286 290 291 291 283 286 282 284 287 288 287 291 291 293 293 289 282 290 292 294 292 289 290 280 281 274 273 277 279 277 284 285 288 287 286 286 287
295 290 296 304 304 295 284 285 289 293 293 289 287 286 287 286 286 285 286 291 293 292 293 290 287 285 291 288 286 287 284 285 283 279 274 274 275 283 286 288 287 287 287 286 286
295 286 294 304 289 287 286 289 293 291 294 292 292 290 288 288 286 286 287 290 294 294 289 292 288 284 286 290 293 291 288 286 276 276 281 274 275 291 290 291 289 289 287 286 286
290 289 296 297 283 283 288 289 292 290 290 291 289 291 292 287 285 287 288 293 294 293 290 291 286 279 282 285 290 287 289 289 287 284 280 275 278 292 292 291 289 286 285 285 285
288 282 286 289 289 285 284 286 287 293 291 293 291 292 289 287 289 286 287 292 293 293 297 295 287 283 278 280 285 284 287 289 287 280 280 280 283 288 289 285 284 283 283 282 283
289 284 286 280 283 286 287 286 284 286 291 293 289 289 287 284 285 286 288 289 289 296 292 290 282 284 286 286 286 285 286 287 285 285 280 281 282 287 286 284 284 283 283 282 282
284 285 288 283 285 285 285 284 284 285 288 288 287 289 289 286 286 284 288 287 286 288 286 286 280 281 281 286 287 283 285 283 286 287 286 284 284 288 286 285 283 282 282 281 280
289 293 289 285 282 283 283 284 284 287 288 290 289 288 287 288 291 292 292 291 291 286 284 284 282 281 279 284 285 280 282 283 283 283 284 280 283 285 283 283 282 281 281 279 280

GFSSW_sfc_thetae_120.txt.gz
Theta_e
320 320 320 319 318 318 318 318 317 318 320 321 321 319 318 317 314 306 301 307 313 323 315 300 299 301 299 296 297 294 287 285 288 289 292 297 296 298 301 299 300 302 301 305 309
316 316 316 316 317 317 317 317 317 317 318 320 320 318 316 315 304 301 311 321 322 317 300 300 299 300 296 293 294 291 286 288 292 292 292 295 296 298 298 299 299 299 304 306 306
316 315 314 315 315 315 316 316 316 316 316 318 319 317 315 311 298 297 322 321 319 312 301 300 300 299 294 293 292 289 288 291 293 296 296 295 297 299 295 296 299 300 302 304 302
316 316 315 314 315 314 315 314 315 315 316 317 319 315 314 304 285 303 321 320 320 306 301 299 299 294 291 291 293 290 293 294 295 298 296 296 297 296 298 300 303 301 302 301 300
314 315 315 314 314 314 314 314 313 314 316 316 317 313 305 298 298 310 317 317 309 303 301 299 297 295 292 294 295 293 295 298 298 297 297 298 296 297 296 300 300 301 301 301 301
314 314 314 315 314 313 314 313 312 313 315 316 313 312 301 293 304 308 308 307 307 303 300 298 299 299 296 295 293 295 296 295 296 297 296 295 295 293 296 298 299 300 300 301 301
313 313 314 314 313 313 313 311 311 312 313 316 312 306 299 297 306 306 307 304 304 304 299 302 301 298 297 294 297 296 291 293 294 293 294 294 290 290 296 297 297 297 300 300 301
313 313 313 312 313 313 313 312 311 312 313 316 312 305 295 307 306 306 304 304 306 306 305 306 304 299 295 297 295 291 290 285 291 293 294 293 286 293 296 297 297 297 298 300 300
313 313 312 312 312 312 312 313 312 315 315 312 303 301 293 308 300 305 306 303 305 306 305 309 302 296 294 289 286 287 280 284 288 293 292 290 287 294 298 297 295 297 296 296 297
312 311 311 311 311 311 312 312 313 311 308 308 306 294 297 294 302 306 306 306 303 303 302 299 293 290 288 286 279 281 282 280 283 288 290 289 290 293 294 293 295 296 294 295 300
310 311 311 311 311 311 307 301 296 295 301 294 295 294 297 302 305 304 306 303 303 299 292 293 288 285 289 289 288 287 284 283 285 291 289 289 289 290 293 293 292 293 293 294 298
310 311 310 310 311 311 303 296 295 302 293 298 299 298 302 302 296 298 306 299 297 291 293 289 286 291 292 290 289 288 285 285 288 291 289 287 287 291 291 292 294 295 296 297 297
310 310 310 309 310 309 304 298 305 306 291 294 298 297 298 300 294 295 302 298 294 291 291 287 290 295 292 289 288 287 285 285 286 288 288 287 284 286 291 296 298 295 295 296 294
309 310 308 308 303 301 300 305 304 304 279 285 294 298 300 299 293 300 301 298 292 291 290 290 294 292 290 289 289 283 290 289 286 284 278 286 277 284 288 290 295 293 293 294 294
309 309 307 308 296 298 300 304 303 297 269 289 294 304 301 294 296 297 300 296 291 290 290 287 288 288 287 289 290 286 290 288 287 282 280 281 278 280 287 286 291 292 292 291 292
310 308 307 303 305 302 305 305 302 275 269 286 295 294 293 296 295 297 295 298 295 291 290 289 291 290 290 291 291 292 288 286 284 281 277 281 280 277 283 286 288 289 289 290 290
309 308 305 304 296 305 306 303 282 271 284 284 290 294 292 291 292 293 290 289 286 283 283 287 288 291 293 288 290 287 285 277 274 275 275 282 279 280 286 289 289 288 288 289 289
308 307 304 303 304 305 303 292 277 280 281 289 292 292 289 291 290 291 288 284 289 287 283 281 279 288 293 290 286 284 285 281 273 272 274 282 276 283 289 290 290 290 289 289 288
306 298 300 304 304 305 296 282 278 282 288 285 286 285 286 290 289 289 288 286 288 289 284 281 282 290 293 292 291 285 284 287 282 281 277 278 283 287 290 288 289 289 289 288 288
296 294 298 303 306 302 290 283 285 289 290 290 281 283 280 284 287 287 286 290 290 292 291 287 281 289 291 292 291 288 289 281 282 275 273 276 277 277 284 285 286 287 287 287 288
295 290 295 303 305 294 283 284 287 292 292 288 286 285 286 285 286 284 286 289 292 290 292 288 286 284 290 287 285 285 284 285 284 281 274 273 275 281 285 287 285 286 288 286 286
294 285 295 304 289 288 285 287 292 290 292 290 291 289 286 287 286 285 285 288 293 292 287 290 286 282 285 290 292 291 287 286 280 276 279 273 275 289 289 289 289 288 287 286 286
289 289 295 297 283 284 287 288 290 289 289 289 288 291 291 286 284 286 288 292 293 292 289 292 285 280 278 284 288 287 288 288 287 285 280 274 277 291 291 291 290 288 286 284 283
288 282 287 291 291 286 285 285 286 292 290 292 290 291 288 286 288 285 286 291 292 292 297 294 286 283 278 280 284 283 286 288 287 281 281 280 281 285 289 289 285 283 282 281 281
289 284 286 280 284 286 287 286 285 285 291 292 289 289 286 283 284 284 286 288 289 293 291 289 283 284 285 286 287 285 285 286 286 286 281 283 282 286 288 286 282 282 282 281 281
284 285 288 283 286 286 285 284 283 285 287 287 286 288 288 285 285 282 286 286 285 290 288 287 280 283 281 285 286 283 285 285 286 287 286 285 283 289 287 284 282 281 281 280 280
291 293 285 282 282 283 283 284 284 287 288 289 288 288 286 288 290 291 291 290 291 287 284 284 282 281 278 282 281 280 283 284 283 283 285 282 285 284 282 282 281 281 281 280 280

GFSSW_sfc_thetae_123.txt.gz
Theta_e
321 320 320 320 318 317 317 317 317 317 317 317 320 320 318 318 314 308 302 310 315 324 316 305 307 306 305 304 303 301 298 296 296 295 298 301 301 305 307 304 306 307 308 310 313
318 317 316 316 316 316 316 316 316 316 316 317 319 319 317 316 306 302 313 319 321 317 305 306 304 306 304 301 302 300 297 297 298 298 298 301 302 303 304 305 303 305 310 311 311
317 316 315 314 315 315 315 315 315 315 316 317 319 318 316 312 300 300 321 320 321 314 306 304 305 305 302 301 299 296 296 297 298 300 302 301 302 303 302 301 304 304 306 308 308
316 316 315 314 314 314 314 314 314 314 316 316 318 316 316 307 288 307 322 321 321 310 306 304 304 301 299 298 300 296 298 298 301 302 301 300 302 301 302 303 306 306 306 307 308
315 315 315 315 314 313 314 314 313 312 314 316 317 314 308 299 298 313 316 316 311 308 305 304 302 301 298 299 300 298 299 301 302 301 301 301 300 300 301 305 305 306 306 306 307
314 313 313 315 314 313 313 314 312 312 314 315 314 312 305 292 306 310 309 309 308 308 304 304 304 304 301 299 299 300 299 299 300 301 300 298 298 299 300 303 302 303 304 305 306
314 313 314 314 313 313 313 313 311 312 312 314 313 307 301 297 309 309 308 307 308 307 305 305 306 303 302 298 301 299 296 298 298 298 297 299 294 296 301 302 302 302 303 305 305
313 313 313 313 312 312 313 313 311 312 312 316 311 305 296 308 309 307 308 306 308 309 307 309 309 304 301 301 298 295 294 290 295 297 297 298 290 297 301 301 300 301 302 303 304
313 313 312 311 311 312 312 313 313 313 315 312 306 302 295 309 302 306 308 304 306 307 307 310 307 302 300 294 292 292 287 288 291 296 296 295 291 298 302 300 299 300 301 301 303
313 311 311 311 311 311 311 312 314 311 309 308 306 296 298 295 303 307 308 307 304 304 303 303 299 297 293 293 284 286 287 288 288 294 295 293 293 297 300 298 298 300 301 301 299
312 310 311 311 310 311 307 304 298 296 301 295 295 294 298 304 306 305 308 306 305 302 296 298 295 291 294 294 291 290 288 288 291 295 292 292 293 295 297 299 297 299 300 299 297
310 311 310 310 310 310 306 299 297 303 293 299 299 299 301 303 297 301 307 301 300 293 296 293 291 296 295 294 292 292 289 290 292 294 293 292 292 295 298 297 295 295 295 295 295
310 310 310 309 309 309 304 301 307 307 294 295 298 297 298 301 295 296 304 301 297 293 293 291 292 296 294 292 290 290 289 289 289 292 293 291 289 292 295 297 295 295 295 295 293
310 310 309 308 304 304 300 306 307 307 284 286 293 297 300 299 293 301 304 302 296 294 294 293 296 294 293 291 292 288 293 292 290 288 285 291 282 289 291 293 293 293 291 291 291
309 310 308 309 300 300 302 306 306 297 274 290 294 304 301 294 297 298 302 300 294 293 294 290 291 291 291 292 294 290 293 291 290 288 287 287 285 286 289 288 288 290 290 291 291
309 309 307 305 305 305 307 308 302 282 272 287 295 294 293 296 297 297 298 301 298 294 293 291 295 294 293 293 294 294 292 290 289 287 281 286 286 284 285 288 288 289 290 291 291
309 308 305 304 297 306 308 304 284 275 286 286 290 294 292 291 293 293 292 292 290 286 287 290 291 294 295 292 293 293 290 282 280 278 279 285 284 288 288 290 292 290 290 290 291
309 308 306 303 304 307 304 293 276 281 282 289 293 293 290 292 291 292 290 288 292 289 286 284 282 290 294 293 290 290 289 282 276 277 280 285 282 287 291 291 292 292 292 291 290
307 301 300 302 303 305 295 282 280 283 288 286 289 288 288 291 291 291 289 288 291 292 286 284 284 292 294 294 294 289 287 292 285 283 280 284 286 288 290 288 290 290 291 289 288
299 297 297 303 304 299 289 284 285 289 291 290 282 285 283 287 289 290 289 292 291 293 294 290 284 291 292 295 293 292 293 285 286 277 275 281 282 285 285 285 289 289 289 288 289
296 291 296 304 304 292 283 285 287 292 293 289 287 287 287 286 289 287 288 292 294 292 294 292 289 287 292 290 289 288 287 287 287 284 279 277 282 289 288 289 288 289 289 288 288
294 284 297 304 287 287 284 287 291 290 292 291 291 290 288 289 287 287 287 290 295 294 290 293 290 285 287 292 295 293 290 289 283 280 282 280 283 292 293 293 291 289 289 289 288
289 288 297 298 281 283 286 286 289 289 289 289 289 291 292 289 285 289 289 294 295 294 292 294 287 283 284 288 291 290 291 291 289 287 282 279 282 292 292 291 291 290 289 287 285
288 283 287 291 291 287 284 284 285 291 289 290 290 292 289 288 290 287 288 293 294 294 298 296 289 286 281 283 288 285 289 291 289 283 284 284 286 288 289 290 290 290 287 285 285
289 285 288 281 285 287 287 287 284 284 291 291 288 289 288 284 286 286 289 290 292 294 295 293 285 287 288 288 288 288 287 288 287 288 283 286 286 290 290 290 291 287 284 283 283
285 286 288 285 288 286 286 284 284 286 288 287 287 288 289 286 287 285 288 289 288 291 291 290 285 286 284 287 288 285 288 288 288 288 288 289 287 293 294 293 285 285 284 283 282
289 292 288 285 285 284 284 285 285 288 289 290 290 288 287 289 292 293 293 292 292 290 287 287 285 283 280 285 285 281 285 287 287 289 288 284 290 289 287 286 285 285 284 283 282

GFSSW_sfc_thetae_126.txt.gz
Theta_e
323 322 320 319 318 317 316 317 317 317 317 317 318 320 319 318 316 312 305 311 317 324 321 312 314 316 313 311 311 310 306 303 303 303 304 306 306 310 313 309 311 312 312 315 317
320 319 319 317 315 315 315 315 315 315 316 317 317 320 318 317 311 306 317 320 322 319 313 313 312 315 312 309 311 309 305 303 305 306 304 306 306 308 307 307 308 310 314 315 317
319 318 316 316 315 314 314 314 314 315 315 317 317 319 317 316 305 305 321 322 323 317 314 313 314 313 309 310 307 306 303 305 304 305 307 306 306 308 306 303 307 307 309 312 313
318 317 317 315 315 314 314 314 313 313 314 316 317 318 316 312 293 312 321 321 321 316 313 312 312 309 306 303 306 301 303 303 305 306 305 305 307 305 305 306 309 309 310 311 311
316 316 316 316 315 314 314 313 313 312 313 315 317 315 311 302 301 316 316 319 316 315 312 311 308 306 301 302 303 301 303 305 306 306 306 306 304 303 304 307 309 309 309 309 310
315 314 313 314 315 314 313 314 312 312 313 314 316 313 308 296 311 315 313 313 313 313 311 311 308 308 304 303 303 304 303 304 305 304 304 301 301 302 304 307 307 308 308 309 310
314 313 313 314 314 313 313 313 312 312 313 313 314 311 304 300 312 314 312 311 312 312 308 310 311 306 307 302 305 303 299 301 301 302 301 303 298 300 305 306 305 306 307 308 309
313 313 313 313 312 312 312 313 313 313 313 315 312 310 299 310 314 310 313 311 312 312 312 313 313 308 306 305 302 299 299 295 300 300 301 300 294 301 305 305 304 305 306 307 306
314 313 313 312 311 312 312 313 313 314 314 313 310 306 298 309 305 309 311 305 308 309 312 313 311 305 304 299 297 298 293 293 295 300 299 298 295 300 305 304 303 305 307 306 305
313 313 312 311 311 311 311 313 313 312 311 311 309 300 302 298 306 310 312 311 307 306 306 307 305 301 301 298 291 292 292 294 293 298 298 297 297 300 303 303 304 305 306 305 303
313 312 311 311 311 310 312 310 303 302 304 299 300 297 300 307 309 309 311 309 307 304 297 303 298 295 298 299 298 295 293 292 296 299 296 296 297 300 302 303 303 304 303 302 301
312 311 311 311 311 311 311 303 301 306 296 302 301 301 304 305 301 306 312 303 301 296 300 298 294 299 299 299 297 295 293 293 296 298 297 296 296 299 302 300 300 300 299 299 299
311 311 311 310 310 310 306 304 313 311 297 296 301 299 300 303 297 302 308 304 300 296 297 294 296 299 298 296 294 295 293 293 292 296 298 296 294 297 300 299 299 298 299 298 297
310 310 310 309 305 307 304 309 314 312 290 291 295 299 301 301 295 303 309 304 300 295 297 296 299 296 296 295 296 291 296 294 293 292 289 295 286 295 298 297 298 298 297 298 298
309 309 309 309 305 302 305 310 312 307 279 292 295 306 303 296 299 299 307 304 296 297 297 294 296 295 294 294 297 292 296 294 294 293 292 292 288 294 297 295 296 298 296 296 297
309 309 308 307 309 308 312 312 308 287 278 290 297 296 295 297 299 300 298 304 302 297 297 295 299 298 296 297 298 298 295 295 294 292 285 290 289 292 293 295 297 297 297 297 295
309 309 307 307 299 311 313 306 286 280 289 289 292 296 296 293 296 296 293 293 292 288 289 294 294 297 299 295 297 297 293 287 284 285 283 290 288 292 296 297 298 297 297 296 296
308 308 307 306 309 310 306 294 279 285 286 293 295 296 292 294 295 294 293 290 295 293 291 288 286 294 298 295 293 294 293 286 278 281 285 289 285 292 297 298 298 298 298 296 293
308 307 304 307 308 309 296 284 283 286 288 288 295 291 291 294 293 294 293 292 294 295 288 288 287 296 297 298 297 293 290 295 288 289 285 287 292 293 295 293 296 296 296 293 292
301 299 300 307 307 301 289 284 287 291 292 291 287 290 287 291 291 293 292 296 293 297 299 293 286 295 296 298 298 295 298 287 289 280 279 285 287 290 290 290 293 295 293 292 292
298 291 301 308 304 291 283 286 289 294 294 291 287 287 288 289 292 291 291 295 297 296 298 295 292 291 295 293 292 292 292 292 292 289 282 281 287 297 297 296 294 296 295 292 293
295 286 303 306 287 288 285 289 292 291 295 292 293 291 290 291 289 290 290 292 298 298 293 297 293 287 290 297 299 297 293 293 286 285 288 286 286 298 298 300 299 297 295 293 294
289 291 301 302 283 284 288 288 291 290 290 291 290 292 293 290 287 291 292 296 298 296 295 297 292 286 287 292 296 293 294 295 294 291 286 282 286 296 297 298 299 296 293 292 292
291 285 289 293 294 288 285 286 286 292 291 292 291 293 291 289 291 288 290 295 297 297 298 298 292 288 284 286 292 288 291 293 292 286 287 287 289 294 296 296 295 294 293 291 290
289 286 290 282 286 289 289 287 285 285 291 292 290 290 289 285 287 287 290 292 294 296 295 294 286 288 289 291 291 290 290 291 289 290 286 289 289 293 296 297 297 296 294 290 289
285 287 291 290 290 288 288 287 285 286 288 287 287 289 289 286 287 285 289 290 290 294 293 295 286 288 285 289 289 287 290 290 290 291 290 290 290 297 299 300 297 295 291 289 288
289 296 293 289 289 287 287 288 288 290 291 291 291 290 288 291 294 294 295 295 294 292 291 290 288 285 281 287 287 283 288 289 291 292 292 288 293 297 296 297 296 295 292 290 288